<?xml version="1.0" encoding="UTF-8" standalone="no" ?>
<gpx xmlns="http://www.topografix.com/GPX/1/1" xmlns:xsi="http://www.w3.org/2001/XMLSchema-instance" xsi:schemaLocation="http://www.topografix.com/GPX/1/1 http://www.topografix.com/GPX/1/1/gpx.xsd" version="1.1" creator="VisuGPX - https://www.visugpx.com">
  <metadata>
    <name>14538034-les 6 lacs</name>
  </metadata>
  <trk>
    <name><![CDATA[14538034-les 6 lacs]]></name>
    <trkseg>
      <trkpt lat="46.51127" lon="5.83978">
        <ele>910</ele>
        <time>2022-06-06T13:57:14Z</time>
      </trkpt>
      <trkpt lat="46.51135" lon="5.8398">
        <ele>910</ele>
        <time>2022-06-06T13:57:15Z</time>
      </trkpt>
      <trkpt lat="46.51154" lon="5.83977">
        <ele>910</ele>
        <time>2022-06-06T13:57:19Z</time>
      </trkpt>
      <trkpt lat="46.51157" lon="5.83982">
        <ele>910</ele>
        <time>2022-06-06T13:57:20Z</time>
      </trkpt>
      <trkpt lat="46.51161" lon="5.83983">
        <ele>910</ele>
        <time>2022-06-06T13:57:20Z</time>
      </trkpt>
      <trkpt lat="46.51164" lon="5.8398">
        <ele>910</ele>
        <time>2022-06-06T13:57:21Z</time>
      </trkpt>
      <trkpt lat="46.51166" lon="5.83974">
        <ele>910</ele>
        <time>2022-06-06T13:57:22Z</time>
      </trkpt>
      <trkpt lat="46.51183" lon="5.83969">
        <ele>911</ele>
        <time>2022-06-06T13:57:25Z</time>
      </trkpt>
      <trkpt lat="46.51222" lon="5.83942">
        <ele>914</ele>
        <time>2022-06-06T13:57:33Z</time>
      </trkpt>
      <trkpt lat="46.51235" lon="5.83939">
        <ele>915</ele>
        <time>2022-06-06T13:57:35Z</time>
      </trkpt>
      <trkpt lat="46.51258" lon="5.83947">
        <ele>915</ele>
        <time>2022-06-06T13:57:39Z</time>
      </trkpt>
      <trkpt lat="46.5129" lon="5.83962">
        <ele>917</ele>
        <time>2022-06-06T13:57:45Z</time>
      </trkpt>
      <trkpt lat="46.51302" lon="5.83973">
        <ele>917</ele>
        <time>2022-06-06T13:57:48Z</time>
      </trkpt>
      <trkpt lat="46.51315" lon="5.83994">
        <ele>915</ele>
        <time>2022-06-06T13:57:51Z</time>
      </trkpt>
      <trkpt lat="46.5132" lon="5.84019">
        <ele>913</ele>
        <time>2022-06-06T13:57:54Z</time>
      </trkpt>
      <trkpt lat="46.51318" lon="5.84065">
        <ele>907</ele>
        <time>2022-06-06T13:58:00Z</time>
      </trkpt>
      <trkpt lat="46.51319" lon="5.84073">
        <ele>907</ele>
        <time>2022-06-06T13:58:01Z</time>
      </trkpt>
      <trkpt lat="46.51325" lon="5.84086">
        <ele>906</ele>
        <time>2022-06-06T13:58:03Z</time>
      </trkpt>
      <trkpt lat="46.51334" lon="5.84098">
        <ele>906</ele>
        <time>2022-06-06T13:58:05Z</time>
      </trkpt>
      <trkpt lat="46.51389" lon="5.84132">
        <ele>913</ele>
        <time>2022-06-06T13:58:16Z</time>
      </trkpt>
      <trkpt lat="46.51428" lon="5.84165">
        <ele>915</ele>
        <time>2022-06-06T13:58:24Z</time>
      </trkpt>
      <trkpt lat="46.51454" lon="5.84177">
        <ele>916</ele>
        <time>2022-06-06T13:58:29Z</time>
      </trkpt>
      <trkpt lat="46.51498" lon="5.84184">
        <ele>919</ele>
        <time>2022-06-06T13:58:36Z</time>
      </trkpt>
      <trkpt lat="46.51518" lon="5.84202">
        <ele>917</ele>
        <time>2022-06-06T13:58:41Z</time>
      </trkpt>
      <trkpt lat="46.51545" lon="5.84241">
        <ele>914</ele>
        <time>2022-06-06T13:58:47Z</time>
      </trkpt>
      <trkpt lat="46.51596" lon="5.84282">
        <ele>914</ele>
        <time>2022-06-06T13:58:58Z</time>
      </trkpt>
      <trkpt lat="46.5167" lon="5.84354">
        <ele>911</ele>
        <time>2022-06-06T13:59:14Z</time>
      </trkpt>
      <trkpt lat="46.51699" lon="5.84376">
        <ele>912</ele>
        <time>2022-06-06T13:59:19Z</time>
      </trkpt>
      <trkpt lat="46.51725" lon="5.84405">
        <ele>912</ele>
        <time>2022-06-06T13:59:25Z</time>
      </trkpt>
      <trkpt lat="46.51738" lon="5.84447">
        <ele>912</ele>
        <time>2022-06-06T13:59:31Z</time>
      </trkpt>
      <trkpt lat="46.51736" lon="5.84544">
        <ele>911</ele>
        <time>2022-06-06T13:59:43Z</time>
      </trkpt>
      <trkpt lat="46.51725" lon="5.84622">
        <ele>909</ele>
        <time>2022-06-06T13:59:53Z</time>
      </trkpt>
      <trkpt lat="46.51727" lon="5.84671">
        <ele>909</ele>
        <time>2022-06-06T13:59:59Z</time>
      </trkpt>
      <trkpt lat="46.51742" lon="5.84738">
        <ele>908</ele>
        <time>2022-06-06T14:00:07Z</time>
      </trkpt>
      <trkpt lat="46.51767" lon="5.84775">
        <ele>908</ele>
        <time>2022-06-06T14:00:14Z</time>
      </trkpt>
      <trkpt lat="46.51869" lon="5.84869">
        <ele>908</ele>
        <time>2022-06-06T14:00:35Z</time>
      </trkpt>
      <trkpt lat="46.51892" lon="5.84886">
        <ele>907</ele>
        <time>2022-06-06T14:00:40Z</time>
      </trkpt>
      <trkpt lat="46.51915" lon="5.84899">
        <ele>906</ele>
        <time>2022-06-06T14:00:44Z</time>
      </trkpt>
      <trkpt lat="46.51938" lon="5.84904">
        <ele>907</ele>
        <time>2022-06-06T14:00:48Z</time>
      </trkpt>
      <trkpt lat="46.51954" lon="5.84901">
        <ele>908</ele>
        <time>2022-06-06T14:00:51Z</time>
      </trkpt>
      <trkpt lat="46.51969" lon="5.84894">
        <ele>909</ele>
        <time>2022-06-06T14:00:54Z</time>
      </trkpt>
      <trkpt lat="46.51988" lon="5.84879">
        <ele>912</ele>
        <time>2022-06-06T14:00:58Z</time>
      </trkpt>
      <trkpt lat="46.52006" lon="5.84858">
        <ele>914</ele>
        <time>2022-06-06T14:01:02Z</time>
      </trkpt>
      <trkpt lat="46.52058" lon="5.84771">
        <ele>916</ele>
        <time>2022-06-06T14:01:16Z</time>
      </trkpt>
      <trkpt lat="46.52074" lon="5.84754">
        <ele>916</ele>
        <time>2022-06-06T14:01:19Z</time>
      </trkpt>
      <trkpt lat="46.52093" lon="5.84741">
        <ele>917</ele>
        <time>2022-06-06T14:01:23Z</time>
      </trkpt>
      <trkpt lat="46.52113" lon="5.84736">
        <ele>918</ele>
        <time>2022-06-06T14:01:27Z</time>
      </trkpt>
      <trkpt lat="46.52128" lon="5.84736">
        <ele>919</ele>
        <time>2022-06-06T14:01:29Z</time>
      </trkpt>
      <trkpt lat="46.52145" lon="5.84743">
        <ele>919</ele>
        <time>2022-06-06T14:01:33Z</time>
      </trkpt>
      <trkpt lat="46.52261" lon="5.84804">
        <ele>920</ele>
        <time>2022-06-06T14:01:55Z</time>
      </trkpt>
      <trkpt lat="46.52272" lon="5.84813">
        <ele>920</ele>
        <time>2022-06-06T14:01:57Z</time>
      </trkpt>
      <trkpt lat="46.5228" lon="5.84824">
        <ele>920</ele>
        <time>2022-06-06T14:01:59Z</time>
      </trkpt>
      <trkpt lat="46.52287" lon="5.84842">
        <ele>919</ele>
        <time>2022-06-06T14:02:01Z</time>
      </trkpt>
      <trkpt lat="46.52299" lon="5.84816">
        <ele>924</ele>
        <time>2022-06-06T14:02:05Z</time>
      </trkpt>
      <trkpt lat="46.52303" lon="5.84816">
        <ele>925</ele>
        <time>2022-06-06T14:02:06Z</time>
      </trkpt>
      <trkpt lat="46.52321" lon="5.84831">
        <ele>925</ele>
        <time>2022-06-06T14:02:09Z</time>
      </trkpt>
      <trkpt lat="46.52365" lon="5.84886">
        <ele>923</ele>
        <time>2022-06-06T14:02:20Z</time>
      </trkpt>
      <trkpt lat="46.52375" lon="5.84895">
        <ele>923</ele>
        <time>2022-06-06T14:02:22Z</time>
      </trkpt>
      <trkpt lat="46.52388" lon="5.849">
        <ele>925</ele>
        <time>2022-06-06T14:02:24Z</time>
      </trkpt>
      <trkpt lat="46.52425" lon="5.849">
        <ele>930</ele>
        <time>2022-06-06T14:02:31Z</time>
      </trkpt>
      <trkpt lat="46.52509" lon="5.84894">
        <ele>938</ele>
        <time>2022-06-06T14:02:46Z</time>
      </trkpt>
      <trkpt lat="46.52522" lon="5.84888">
        <ele>940</ele>
        <time>2022-06-06T14:02:48Z</time>
      </trkpt>
      <trkpt lat="46.52549" lon="5.84863">
        <ele>947</ele>
        <time>2022-06-06T14:02:54Z</time>
      </trkpt>
      <trkpt lat="46.52572" lon="5.84833">
        <ele>952</ele>
        <time>2022-06-06T14:02:59Z</time>
      </trkpt>
      <trkpt lat="46.52583" lon="5.84822">
        <ele>953</ele>
        <time>2022-06-06T14:03:02Z</time>
      </trkpt>
      <trkpt lat="46.52603" lon="5.84812">
        <ele>954</ele>
        <time>2022-06-06T14:03:06Z</time>
      </trkpt>
      <trkpt lat="46.52641" lon="5.848">
        <ele>953</ele>
        <time>2022-06-06T14:03:13Z</time>
      </trkpt>
      <trkpt lat="46.5269" lon="5.8479">
        <ele>951</ele>
        <time>2022-06-06T14:03:21Z</time>
      </trkpt>
      <trkpt lat="46.52725" lon="5.84781">
        <ele>951</ele>
        <time>2022-06-06T14:03:28Z</time>
      </trkpt>
      <trkpt lat="46.52749" lon="5.84769">
        <ele>950</ele>
        <time>2022-06-06T14:03:32Z</time>
      </trkpt>
      <trkpt lat="46.52779" lon="5.84739">
        <ele>949</ele>
        <time>2022-06-06T14:03:39Z</time>
      </trkpt>
      <trkpt lat="46.5279" lon="5.84732">
        <ele>950</ele>
        <time>2022-06-06T14:03:41Z</time>
      </trkpt>
      <trkpt lat="46.52806" lon="5.84726">
        <ele>952</ele>
        <time>2022-06-06T14:03:44Z</time>
      </trkpt>
      <trkpt lat="46.52816" lon="5.84725">
        <ele>953</ele>
        <time>2022-06-06T14:03:46Z</time>
      </trkpt>
      <trkpt lat="46.52846" lon="5.84734">
        <ele>954</ele>
        <time>2022-06-06T14:03:51Z</time>
      </trkpt>
      <trkpt lat="46.5295" lon="5.84778">
        <ele>954</ele>
        <time>2022-06-06T14:04:10Z</time>
      </trkpt>
      <trkpt lat="46.52963" lon="5.84787">
        <ele>954</ele>
        <time>2022-06-06T14:04:13Z</time>
      </trkpt>
      <trkpt lat="46.53044" lon="5.84852">
        <ele>954</ele>
        <time>2022-06-06T14:04:29Z</time>
      </trkpt>
      <trkpt lat="46.53146" lon="5.8491">
        <ele>958</ele>
        <time>2022-06-06T14:04:49Z</time>
      </trkpt>
      <trkpt lat="46.53396" lon="5.85056">
        <ele>970</ele>
        <time>2022-06-06T14:05:37Z</time>
      </trkpt>
      <trkpt lat="46.53601" lon="5.85169">
        <ele>981</ele>
        <time>2022-06-06T14:06:16Z</time>
      </trkpt>
      <trkpt lat="46.53758" lon="5.85283">
        <ele>986</ele>
        <time>2022-06-06T14:06:47Z</time>
      </trkpt>
      <trkpt lat="46.53848" lon="5.85326">
        <ele>992</ele>
        <time>2022-06-06T14:07:04Z</time>
      </trkpt>
      <trkpt lat="46.53884" lon="5.85338">
        <ele>995</ele>
        <time>2022-06-06T14:07:10Z</time>
      </trkpt>
      <trkpt lat="46.53926" lon="5.8534">
        <ele>999</ele>
        <time>2022-06-06T14:07:18Z</time>
      </trkpt>
      <trkpt lat="46.53934" lon="5.85344">
        <ele>1000</ele>
        <time>2022-06-06T14:07:19Z</time>
      </trkpt>
      <trkpt lat="46.53946" lon="5.85362">
        <ele>1000</ele>
        <time>2022-06-06T14:07:22Z</time>
      </trkpt>
      <trkpt lat="46.53957" lon="5.85386">
        <ele>1000</ele>
        <time>2022-06-06T14:07:26Z</time>
      </trkpt>
      <trkpt lat="46.53965" lon="5.85399">
        <ele>1001</ele>
        <time>2022-06-06T14:07:28Z</time>
      </trkpt>
      <trkpt lat="46.53975" lon="5.85406">
        <ele>1002</ele>
        <time>2022-06-06T14:07:30Z</time>
      </trkpt>
      <trkpt lat="46.5401" lon="5.85425">
        <ele>1005</ele>
        <time>2022-06-06T14:07:37Z</time>
      </trkpt>
      <trkpt lat="46.54055" lon="5.8544">
        <ele>1008</ele>
        <time>2022-06-06T14:07:45Z</time>
      </trkpt>
      <trkpt lat="46.54074" lon="5.85449">
        <ele>1010</ele>
        <time>2022-06-06T14:07:48Z</time>
      </trkpt>
      <trkpt lat="46.54097" lon="5.85464">
        <ele>1012</ele>
        <time>2022-06-06T14:07:53Z</time>
      </trkpt>
      <trkpt lat="46.54134" lon="5.85492">
        <ele>1013</ele>
        <time>2022-06-06T14:08:00Z</time>
      </trkpt>
      <trkpt lat="46.5416" lon="5.85501">
        <ele>1014</ele>
        <time>2022-06-06T14:08:05Z</time>
      </trkpt>
      <trkpt lat="46.54185" lon="5.85514">
        <ele>1016</ele>
        <time>2022-06-06T14:08:10Z</time>
      </trkpt>
      <trkpt lat="46.54208" lon="5.85537">
        <ele>1017</ele>
        <time>2022-06-06T14:08:15Z</time>
      </trkpt>
      <trkpt lat="46.54224" lon="5.85544">
        <ele>1019</ele>
        <time>2022-06-06T14:08:18Z</time>
      </trkpt>
      <trkpt lat="46.5423" lon="5.85543">
        <ele>1020</ele>
        <time>2022-06-06T14:08:19Z</time>
      </trkpt>
      <trkpt lat="46.54235" lon="5.85538">
        <ele>1021</ele>
        <time>2022-06-06T14:08:20Z</time>
      </trkpt>
      <trkpt lat="46.5424" lon="5.85525">
        <ele>1022</ele>
        <time>2022-06-06T14:08:22Z</time>
      </trkpt>
      <trkpt lat="46.5424" lon="5.85517">
        <ele>1023</ele>
        <time>2022-06-06T14:08:23Z</time>
      </trkpt>
      <trkpt lat="46.54235" lon="5.85503">
        <ele>1023</ele>
        <time>2022-06-06T14:08:25Z</time>
      </trkpt>
      <trkpt lat="46.54149" lon="5.85404">
        <ele>1022</ele>
        <time>2022-06-06T14:08:44Z</time>
      </trkpt>
      <trkpt lat="46.54146" lon="5.85396">
        <ele>1022</ele>
        <time>2022-06-06T14:08:45Z</time>
      </trkpt>
      <trkpt lat="46.54144" lon="5.85388">
        <ele>1023</ele>
        <time>2022-06-06T14:08:46Z</time>
      </trkpt>
      <trkpt lat="46.54145" lon="5.85378">
        <ele>1024</ele>
        <time>2022-06-06T14:08:48Z</time>
      </trkpt>
      <trkpt lat="46.54153" lon="5.8535">
        <ele>1027</ele>
        <time>2022-06-06T14:08:51Z</time>
      </trkpt>
      <trkpt lat="46.54153" lon="5.85335">
        <ele>1029</ele>
        <time>2022-06-06T14:08:53Z</time>
      </trkpt>
      <trkpt lat="46.54151" lon="5.85328">
        <ele>1029</ele>
        <time>2022-06-06T14:08:54Z</time>
      </trkpt>
      <trkpt lat="46.54145" lon="5.85317">
        <ele>1029</ele>
        <time>2022-06-06T14:08:56Z</time>
      </trkpt>
      <trkpt lat="46.54141" lon="5.85313">
        <ele>1029</ele>
        <time>2022-06-06T14:08:57Z</time>
      </trkpt>
      <trkpt lat="46.54125" lon="5.85308">
        <ele>1027</ele>
        <time>2022-06-06T14:09:00Z</time>
      </trkpt>
      <trkpt lat="46.54109" lon="5.853">
        <ele>1025</ele>
        <time>2022-06-06T14:09:03Z</time>
      </trkpt>
      <trkpt lat="46.54104" lon="5.85295">
        <ele>1025</ele>
        <time>2022-06-06T14:09:04Z</time>
      </trkpt>
      <trkpt lat="46.541" lon="5.85282">
        <ele>1025</ele>
        <time>2022-06-06T14:09:05Z</time>
      </trkpt>
      <trkpt lat="46.54102" lon="5.85265">
        <ele>1027</ele>
        <time>2022-06-06T14:09:07Z</time>
      </trkpt>
      <trkpt lat="46.54119" lon="5.85215">
        <ele>1035</ele>
        <time>2022-06-06T14:09:14Z</time>
      </trkpt>
      <trkpt lat="46.54123" lon="5.85201">
        <ele>1037</ele>
        <time>2022-06-06T14:09:16Z</time>
      </trkpt>
      <trkpt lat="46.54129" lon="5.85169">
        <ele>1041</ele>
        <time>2022-06-06T14:09:20Z</time>
      </trkpt>
      <trkpt lat="46.54134" lon="5.85126">
        <ele>1042</ele>
        <time>2022-06-06T14:09:26Z</time>
      </trkpt>
      <trkpt lat="46.54139" lon="5.8511">
        <ele>1043</ele>
        <time>2022-06-06T14:09:28Z</time>
      </trkpt>
      <trkpt lat="46.54145" lon="5.85102">
        <ele>1043</ele>
        <time>2022-06-06T14:09:29Z</time>
      </trkpt>
      <trkpt lat="46.5418" lon="5.85071">
        <ele>1042</ele>
        <time>2022-06-06T14:09:36Z</time>
      </trkpt>
      <trkpt lat="46.54195" lon="5.85064">
        <ele>1040</ele>
        <time>2022-06-06T14:09:39Z</time>
      </trkpt>
      <trkpt lat="46.54208" lon="5.85068">
        <ele>1041</ele>
        <time>2022-06-06T14:09:42Z</time>
      </trkpt>
      <trkpt lat="46.54248" lon="5.85103">
        <ele>1047</ele>
        <time>2022-06-06T14:09:50Z</time>
      </trkpt>
      <trkpt lat="46.54261" lon="5.85112">
        <ele>1047</ele>
        <time>2022-06-06T14:09:52Z</time>
      </trkpt>
      <trkpt lat="46.54287" lon="5.85125">
        <ele>1047</ele>
        <time>2022-06-06T14:09:57Z</time>
      </trkpt>
      <trkpt lat="46.54299" lon="5.85126">
        <ele>1046</ele>
        <time>2022-06-06T14:10:00Z</time>
      </trkpt>
      <trkpt lat="46.54306" lon="5.85124">
        <ele>1046</ele>
        <time>2022-06-06T14:10:01Z</time>
      </trkpt>
      <trkpt lat="46.54311" lon="5.85121">
        <ele>1045</ele>
        <time>2022-06-06T14:10:02Z</time>
      </trkpt>
      <trkpt lat="46.54329" lon="5.85101">
        <ele>1039</ele>
        <time>2022-06-06T14:10:06Z</time>
      </trkpt>
      <trkpt lat="46.54335" lon="5.85097">
        <ele>1038</ele>
        <time>2022-06-06T14:10:07Z</time>
      </trkpt>
      <trkpt lat="46.5435" lon="5.85096">
        <ele>1037</ele>
        <time>2022-06-06T14:10:10Z</time>
      </trkpt>
      <trkpt lat="46.54378" lon="5.85104">
        <ele>1036</ele>
        <time>2022-06-06T14:10:15Z</time>
      </trkpt>
      <trkpt lat="46.54417" lon="5.85123">
        <ele>1040</ele>
        <time>2022-06-06T14:10:22Z</time>
      </trkpt>
      <trkpt lat="46.54459" lon="5.85148">
        <ele>1043</ele>
        <time>2022-06-06T14:10:30Z</time>
      </trkpt>
      <trkpt lat="46.54524" lon="5.85174">
        <ele>1044</ele>
        <time>2022-06-06T14:10:42Z</time>
      </trkpt>
      <trkpt lat="46.54568" lon="5.85163">
        <ele>1037</ele>
        <time>2022-06-06T14:10:50Z</time>
      </trkpt>
      <trkpt lat="46.54581" lon="5.85163">
        <ele>1036</ele>
        <time>2022-06-06T14:10:52Z</time>
      </trkpt>
      <trkpt lat="46.54615" lon="5.85171">
        <ele>1037</ele>
        <time>2022-06-06T14:10:58Z</time>
      </trkpt>
      <trkpt lat="46.54633" lon="5.85171">
        <ele>1037</ele>
        <time>2022-06-06T14:11:02Z</time>
      </trkpt>
      <trkpt lat="46.54646" lon="5.85165">
        <ele>1036</ele>
        <time>2022-06-06T14:11:04Z</time>
      </trkpt>
      <trkpt lat="46.54667" lon="5.85145">
        <ele>1034</ele>
        <time>2022-06-06T14:11:09Z</time>
      </trkpt>
      <trkpt lat="46.54681" lon="5.85126">
        <ele>1032</ele>
        <time>2022-06-06T14:11:12Z</time>
      </trkpt>
      <trkpt lat="46.54695" lon="5.85104">
        <ele>1030</ele>
        <time>2022-06-06T14:11:16Z</time>
      </trkpt>
      <trkpt lat="46.54708" lon="5.85088">
        <ele>1030</ele>
        <time>2022-06-06T14:11:19Z</time>
      </trkpt>
      <trkpt lat="46.54722" lon="5.85081">
        <ele>1030</ele>
        <time>2022-06-06T14:11:21Z</time>
      </trkpt>
      <trkpt lat="46.54767" lon="5.85084">
        <ele>1030</ele>
        <time>2022-06-06T14:11:29Z</time>
      </trkpt>
      <trkpt lat="46.54783" lon="5.85079">
        <ele>1029</ele>
        <time>2022-06-06T14:11:32Z</time>
      </trkpt>
      <trkpt lat="46.54802" lon="5.85069">
        <ele>1029</ele>
        <time>2022-06-06T14:11:36Z</time>
      </trkpt>
      <trkpt lat="46.54833" lon="5.85045">
        <ele>1031</ele>
        <time>2022-06-06T14:11:42Z</time>
      </trkpt>
      <trkpt lat="46.54845" lon="5.85038">
        <ele>1031</ele>
        <time>2022-06-06T14:11:44Z</time>
      </trkpt>
      <trkpt lat="46.54875" lon="5.85029">
        <ele>1030</ele>
        <time>2022-06-06T14:11:50Z</time>
      </trkpt>
      <trkpt lat="46.54913" lon="5.85019">
        <ele>1027</ele>
        <time>2022-06-06T14:11:57Z</time>
      </trkpt>
      <trkpt lat="46.54924" lon="5.85015">
        <ele>1027</ele>
        <time>2022-06-06T14:11:59Z</time>
      </trkpt>
      <trkpt lat="46.54956" lon="5.84997">
        <ele>1028</ele>
        <time>2022-06-06T14:12:05Z</time>
      </trkpt>
      <trkpt lat="46.54969" lon="5.84994">
        <ele>1028</ele>
        <time>2022-06-06T14:12:07Z</time>
      </trkpt>
      <trkpt lat="46.54983" lon="5.84995">
        <ele>1028</ele>
        <time>2022-06-06T14:12:10Z</time>
      </trkpt>
      <trkpt lat="46.55021" lon="5.85005">
        <ele>1031</ele>
        <time>2022-06-06T14:12:17Z</time>
      </trkpt>
      <trkpt lat="46.55048" lon="5.85026">
        <ele>1036</ele>
        <time>2022-06-06T14:12:22Z</time>
      </trkpt>
      <trkpt lat="46.55055" lon="5.85027">
        <ele>1036</ele>
        <time>2022-06-06T14:12:23Z</time>
      </trkpt>
      <trkpt lat="46.5506" lon="5.85026">
        <ele>1037</ele>
        <time>2022-06-06T14:12:24Z</time>
      </trkpt>
      <trkpt lat="46.55066" lon="5.85014">
        <ele>1036</ele>
        <time>2022-06-06T14:12:26Z</time>
      </trkpt>
      <trkpt lat="46.55067" lon="5.85006">
        <ele>1036</ele>
        <time>2022-06-06T14:12:27Z</time>
      </trkpt>
      <trkpt lat="46.55066" lon="5.84999">
        <ele>1035</ele>
        <time>2022-06-06T14:12:28Z</time>
      </trkpt>
      <trkpt lat="46.55058" lon="5.84984">
        <ele>1033</ele>
        <time>2022-06-06T14:12:30Z</time>
      </trkpt>
      <trkpt lat="46.55046" lon="5.84977">
        <ele>1031</ele>
        <time>2022-06-06T14:12:32Z</time>
      </trkpt>
      <trkpt lat="46.54987" lon="5.84954">
        <ele>1024</ele>
        <time>2022-06-06T14:12:43Z</time>
      </trkpt>
      <trkpt lat="46.54965" lon="5.84943">
        <ele>1023</ele>
        <time>2022-06-06T14:12:47Z</time>
      </trkpt>
      <trkpt lat="46.54935" lon="5.8492">
        <ele>1022</ele>
        <time>2022-06-06T14:12:53Z</time>
      </trkpt>
      <trkpt lat="46.5492" lon="5.84894">
        <ele>1020</ele>
        <time>2022-06-06T14:12:58Z</time>
      </trkpt>
      <trkpt lat="46.54906" lon="5.84863">
        <ele>1021</ele>
        <time>2022-06-06T14:13:02Z</time>
      </trkpt>
      <trkpt lat="46.54898" lon="5.8485">
        <ele>1022</ele>
        <time>2022-06-06T14:13:04Z</time>
      </trkpt>
      <trkpt lat="46.54875" lon="5.84824">
        <ele>1028</ele>
        <time>2022-06-06T14:13:09Z</time>
      </trkpt>
      <trkpt lat="46.54874" lon="5.84814">
        <ele>1028</ele>
        <time>2022-06-06T14:13:11Z</time>
      </trkpt>
      <trkpt lat="46.54876" lon="5.84806">
        <ele>1028</ele>
        <time>2022-06-06T14:13:12Z</time>
      </trkpt>
      <trkpt lat="46.54883" lon="5.84798">
        <ele>1027</ele>
        <time>2022-06-06T14:13:13Z</time>
      </trkpt>
      <trkpt lat="46.54889" lon="5.84796">
        <ele>1025</ele>
        <time>2022-06-06T14:13:14Z</time>
      </trkpt>
      <trkpt lat="46.54968" lon="5.84815">
        <ele>1012</ele>
        <time>2022-06-06T14:13:29Z</time>
      </trkpt>
      <trkpt lat="46.5498" lon="5.84814">
        <ele>1011</ele>
        <time>2022-06-06T14:13:31Z</time>
      </trkpt>
      <trkpt lat="46.54992" lon="5.84803">
        <ele>1009</ele>
        <time>2022-06-06T14:13:33Z</time>
      </trkpt>
      <trkpt lat="46.55007" lon="5.84783">
        <ele>1007</ele>
        <time>2022-06-06T14:13:37Z</time>
      </trkpt>
      <trkpt lat="46.55032" lon="5.8476">
        <ele>1003</ele>
        <time>2022-06-06T14:13:42Z</time>
      </trkpt>
      <trkpt lat="46.55056" lon="5.84733">
        <ele>997</ele>
        <time>2022-06-06T14:13:48Z</time>
      </trkpt>
      <trkpt lat="46.55088" lon="5.84687">
        <ele>985</ele>
        <time>2022-06-06T14:13:56Z</time>
      </trkpt>
      <trkpt lat="46.55102" lon="5.84672">
        <ele>982</ele>
        <time>2022-06-06T14:13:59Z</time>
      </trkpt>
      <trkpt lat="46.55109" lon="5.84668">
        <ele>981</ele>
        <time>2022-06-06T14:14:00Z</time>
      </trkpt>
      <trkpt lat="46.55128" lon="5.84664">
        <ele>980</ele>
        <time>2022-06-06T14:14:04Z</time>
      </trkpt>
      <trkpt lat="46.55166" lon="5.84665">
        <ele>980</ele>
        <time>2022-06-06T14:14:10Z</time>
      </trkpt>
      <trkpt lat="46.55201" lon="5.84669">
        <ele>979</ele>
        <time>2022-06-06T14:14:17Z</time>
      </trkpt>
      <trkpt lat="46.55245" lon="5.84668">
        <ele>977</ele>
        <time>2022-06-06T14:14:24Z</time>
      </trkpt>
      <trkpt lat="46.55252" lon="5.84665">
        <ele>977</ele>
        <time>2022-06-06T14:14:26Z</time>
      </trkpt>
      <trkpt lat="46.55259" lon="5.8466">
        <ele>976</ele>
        <time>2022-06-06T14:14:27Z</time>
      </trkpt>
      <trkpt lat="46.55265" lon="5.8465">
        <ele>975</ele>
        <time>2022-06-06T14:14:29Z</time>
      </trkpt>
      <trkpt lat="46.5529" lon="5.84583">
        <ele>968</ele>
        <time>2022-06-06T14:14:38Z</time>
      </trkpt>
      <trkpt lat="46.55306" lon="5.84546">
        <ele>965</ele>
        <time>2022-06-06T14:14:43Z</time>
      </trkpt>
      <trkpt lat="46.55315" lon="5.8453">
        <ele>964</ele>
        <time>2022-06-06T14:14:46Z</time>
      </trkpt>
      <trkpt lat="46.55333" lon="5.84509">
        <ele>962</ele>
        <time>2022-06-06T14:14:50Z</time>
      </trkpt>
      <trkpt lat="46.55346" lon="5.845">
        <ele>960</ele>
        <time>2022-06-06T14:14:53Z</time>
      </trkpt>
      <trkpt lat="46.55361" lon="5.84498">
        <ele>958</ele>
        <time>2022-06-06T14:14:55Z</time>
      </trkpt>
      <trkpt lat="46.5538" lon="5.845">
        <ele>957</ele>
        <time>2022-06-06T14:14:59Z</time>
      </trkpt>
      <trkpt lat="46.55408" lon="5.84513">
        <ele>956</ele>
        <time>2022-06-06T14:15:04Z</time>
      </trkpt>
      <trkpt lat="46.55498" lon="5.84567">
        <ele>960</ele>
        <time>2022-06-06T14:15:21Z</time>
      </trkpt>
      <trkpt lat="46.55534" lon="5.84577">
        <ele>958</ele>
        <time>2022-06-06T14:15:28Z</time>
      </trkpt>
      <trkpt lat="46.55541" lon="5.84571">
        <ele>956</ele>
        <time>2022-06-06T14:15:29Z</time>
      </trkpt>
      <trkpt lat="46.55544" lon="5.84561">
        <ele>954</ele>
        <time>2022-06-06T14:15:30Z</time>
      </trkpt>
      <trkpt lat="46.55544" lon="5.84555">
        <ele>953</ele>
        <time>2022-06-06T14:15:31Z</time>
      </trkpt>
      <trkpt lat="46.55543" lon="5.8455">
        <ele>953</ele>
        <time>2022-06-06T14:15:32Z</time>
      </trkpt>
      <trkpt lat="46.55539" lon="5.84545">
        <ele>953</ele>
        <time>2022-06-06T14:15:33Z</time>
      </trkpt>
      <trkpt lat="46.55516" lon="5.84526">
        <ele>952</ele>
        <time>2022-06-06T14:15:37Z</time>
      </trkpt>
      <trkpt lat="46.55454" lon="5.8444">
        <ele>945</ele>
        <time>2022-06-06T14:15:53Z</time>
      </trkpt>
      <trkpt lat="46.55415" lon="5.84406">
        <ele>943</ele>
        <time>2022-06-06T14:16:01Z</time>
      </trkpt>
      <trkpt lat="46.55409" lon="5.84397">
        <ele>943</ele>
        <time>2022-06-06T14:16:02Z</time>
      </trkpt>
      <trkpt lat="46.55404" lon="5.84381">
        <ele>942</ele>
        <time>2022-06-06T14:16:04Z</time>
      </trkpt>
      <trkpt lat="46.55402" lon="5.84367">
        <ele>941</ele>
        <time>2022-06-06T14:16:06Z</time>
      </trkpt>
      <trkpt lat="46.55402" lon="5.84338">
        <ele>940</ele>
        <time>2022-06-06T14:16:10Z</time>
      </trkpt>
      <trkpt lat="46.55406" lon="5.84319">
        <ele>938</ele>
        <time>2022-06-06T14:16:12Z</time>
      </trkpt>
      <trkpt lat="46.55417" lon="5.84301">
        <ele>937</ele>
        <time>2022-06-06T14:16:15Z</time>
      </trkpt>
      <trkpt lat="46.55423" lon="5.84293">
        <ele>936</ele>
        <time>2022-06-06T14:16:17Z</time>
      </trkpt>
      <trkpt lat="46.55451" lon="5.84276">
        <ele>935</ele>
        <time>2022-06-06T14:16:22Z</time>
      </trkpt>
      <trkpt lat="46.55487" lon="5.8425">
        <ele>932</ele>
        <time>2022-06-06T14:16:29Z</time>
      </trkpt>
      <trkpt lat="46.55574" lon="5.84177">
        <ele>925</ele>
        <time>2022-06-06T14:16:47Z</time>
      </trkpt>
      <trkpt lat="46.55607" lon="5.84162">
        <ele>920</ele>
        <time>2022-06-06T14:16:53Z</time>
      </trkpt>
      <trkpt lat="46.55634" lon="5.84158">
        <ele>916</ele>
        <time>2022-06-06T14:16:58Z</time>
      </trkpt>
      <trkpt lat="46.55648" lon="5.84163">
        <ele>914</ele>
        <time>2022-06-06T14:17:01Z</time>
      </trkpt>
      <trkpt lat="46.55672" lon="5.84174">
        <ele>912</ele>
        <time>2022-06-06T14:17:05Z</time>
      </trkpt>
      <trkpt lat="46.55729" lon="5.84209">
        <ele>907</ele>
        <time>2022-06-06T14:17:16Z</time>
      </trkpt>
      <trkpt lat="46.55755" lon="5.84221">
        <ele>906</ele>
        <time>2022-06-06T14:17:21Z</time>
      </trkpt>
      <trkpt lat="46.55818" lon="5.8424">
        <ele>899</ele>
        <time>2022-06-06T14:17:32Z</time>
      </trkpt>
      <trkpt lat="46.55842" lon="5.84254">
        <ele>898</ele>
        <time>2022-06-06T14:17:37Z</time>
      </trkpt>
      <trkpt lat="46.55877" lon="5.84296">
        <ele>904</ele>
        <time>2022-06-06T14:17:45Z</time>
      </trkpt>
      <trkpt lat="46.55891" lon="5.84309">
        <ele>905</ele>
        <time>2022-06-06T14:17:48Z</time>
      </trkpt>
      <trkpt lat="46.5591" lon="5.84313">
        <ele>901</ele>
        <time>2022-06-06T14:17:51Z</time>
      </trkpt>
      <trkpt lat="46.5596" lon="5.8433">
        <ele>899</ele>
        <time>2022-06-06T14:18:01Z</time>
      </trkpt>
      <trkpt lat="46.55985" lon="5.84329">
        <ele>896</ele>
        <time>2022-06-06T14:18:05Z</time>
      </trkpt>
      <trkpt lat="46.56056" lon="5.8431">
        <ele>889</ele>
        <time>2022-06-06T14:18:18Z</time>
      </trkpt>
      <trkpt lat="46.5609" lon="5.84283">
        <ele>883</ele>
        <time>2022-06-06T14:18:25Z</time>
      </trkpt>
      <trkpt lat="46.56124" lon="5.84272">
        <ele>883</ele>
        <time>2022-06-06T14:18:31Z</time>
      </trkpt>
      <trkpt lat="46.56133" lon="5.84264">
        <ele>882</ele>
        <time>2022-06-06T14:18:33Z</time>
      </trkpt>
      <trkpt lat="46.56146" lon="5.84243">
        <ele>879</ele>
        <time>2022-06-06T14:18:36Z</time>
      </trkpt>
      <trkpt lat="46.56148" lon="5.84229">
        <ele>879</ele>
        <time>2022-06-06T14:18:38Z</time>
      </trkpt>
      <trkpt lat="46.56146" lon="5.84212">
        <ele>878</ele>
        <time>2022-06-06T14:18:40Z</time>
      </trkpt>
      <trkpt lat="46.56142" lon="5.84194">
        <ele>877</ele>
        <time>2022-06-06T14:18:42Z</time>
      </trkpt>
      <trkpt lat="46.56128" lon="5.84176">
        <ele>875</ele>
        <time>2022-06-06T14:18:46Z</time>
      </trkpt>
      <trkpt lat="46.5606" lon="5.84098">
        <ele>868</ele>
        <time>2022-06-06T14:19:01Z</time>
      </trkpt>
      <trkpt lat="46.55952" lon="5.83985">
        <ele>862</ele>
        <time>2022-06-06T14:19:25Z</time>
      </trkpt>
      <trkpt lat="46.55934" lon="5.83976">
        <ele>859</ele>
        <time>2022-06-06T14:19:28Z</time>
      </trkpt>
      <trkpt lat="46.55924" lon="5.83974">
        <ele>858</ele>
        <time>2022-06-06T14:19:30Z</time>
      </trkpt>
      <trkpt lat="46.55876" lon="5.83973">
        <ele>856</ele>
        <time>2022-06-06T14:19:39Z</time>
      </trkpt>
      <trkpt lat="46.55799" lon="5.83977">
        <ele>855</ele>
        <time>2022-06-06T14:19:52Z</time>
      </trkpt>
      <trkpt lat="46.55763" lon="5.83977">
        <ele>855</ele>
        <time>2022-06-06T14:19:59Z</time>
      </trkpt>
      <trkpt lat="46.55752" lon="5.83975">
        <ele>855</ele>
        <time>2022-06-06T14:20:01Z</time>
      </trkpt>
      <trkpt lat="46.55727" lon="5.8396">
        <ele>858</ele>
        <time>2022-06-06T14:20:05Z</time>
      </trkpt>
      <trkpt lat="46.55715" lon="5.83949">
        <ele>859</ele>
        <time>2022-06-06T14:20:08Z</time>
      </trkpt>
      <trkpt lat="46.55708" lon="5.83939">
        <ele>859</ele>
        <time>2022-06-06T14:20:10Z</time>
      </trkpt>
      <trkpt lat="46.55697" lon="5.83916">
        <ele>857</ele>
        <time>2022-06-06T14:20:13Z</time>
      </trkpt>
      <trkpt lat="46.55691" lon="5.83892">
        <ele>856</ele>
        <time>2022-06-06T14:20:16Z</time>
      </trkpt>
      <trkpt lat="46.55692" lon="5.8387">
        <ele>855</ele>
        <time>2022-06-06T14:20:19Z</time>
      </trkpt>
      <trkpt lat="46.55696" lon="5.83857">
        <ele>854</ele>
        <time>2022-06-06T14:20:21Z</time>
      </trkpt>
      <trkpt lat="46.5571" lon="5.8383">
        <ele>852</ele>
        <time>2022-06-06T14:20:25Z</time>
      </trkpt>
      <trkpt lat="46.55796" lon="5.83734">
        <ele>853</ele>
        <time>2022-06-06T14:20:44Z</time>
      </trkpt>
      <trkpt lat="46.55819" lon="5.83711">
        <ele>853</ele>
        <time>2022-06-06T14:20:49Z</time>
      </trkpt>
      <trkpt lat="46.55837" lon="5.83697">
        <ele>854</ele>
        <time>2022-06-06T14:20:53Z</time>
      </trkpt>
      <trkpt lat="46.55857" lon="5.8369">
        <ele>853</ele>
        <time>2022-06-06T14:20:56Z</time>
      </trkpt>
      <trkpt lat="46.55868" lon="5.83688">
        <ele>853</ele>
        <time>2022-06-06T14:20:58Z</time>
      </trkpt>
      <trkpt lat="46.55983" lon="5.8369">
        <ele>852</ele>
        <time>2022-06-06T14:21:19Z</time>
      </trkpt>
      <trkpt lat="46.55998" lon="5.83684">
        <ele>850</ele>
        <time>2022-06-06T14:21:22Z</time>
      </trkpt>
      <trkpt lat="46.56017" lon="5.83672">
        <ele>847</ele>
        <time>2022-06-06T14:21:25Z</time>
      </trkpt>
      <trkpt lat="46.56073" lon="5.83619">
        <ele>840</ele>
        <time>2022-06-06T14:21:37Z</time>
      </trkpt>
      <trkpt lat="46.56087" lon="5.83615">
        <ele>840</ele>
        <time>2022-06-06T14:21:40Z</time>
      </trkpt>
      <trkpt lat="46.56108" lon="5.83618">
        <ele>840</ele>
        <time>2022-06-06T14:21:43Z</time>
      </trkpt>
      <trkpt lat="46.5619" lon="5.83657">
        <ele>838</ele>
        <time>2022-06-06T14:21:59Z</time>
      </trkpt>
      <trkpt lat="46.56205" lon="5.83661">
        <ele>835</ele>
        <time>2022-06-06T14:22:02Z</time>
      </trkpt>
      <trkpt lat="46.56226" lon="5.8366">
        <ele>833</ele>
        <time>2022-06-06T14:22:05Z</time>
      </trkpt>
      <trkpt lat="46.56352" lon="5.83599">
        <ele>822</ele>
        <time>2022-06-06T14:22:29Z</time>
      </trkpt>
      <trkpt lat="46.56419" lon="5.83556">
        <ele>813</ele>
        <time>2022-06-06T14:22:42Z</time>
      </trkpt>
      <trkpt lat="46.56466" lon="5.83522">
        <ele>811</ele>
        <time>2022-06-06T14:22:51Z</time>
      </trkpt>
      <trkpt lat="46.56552" lon="5.83423">
        <ele>809</ele>
        <time>2022-06-06T14:23:11Z</time>
      </trkpt>
      <trkpt lat="46.56641" lon="5.83348">
        <ele>806</ele>
        <time>2022-06-06T14:23:29Z</time>
      </trkpt>
      <trkpt lat="46.56692" lon="5.83311">
        <ele>803</ele>
        <time>2022-06-06T14:23:39Z</time>
      </trkpt>
      <trkpt lat="46.56731" lon="5.83287">
        <ele>800</ele>
        <time>2022-06-06T14:23:47Z</time>
      </trkpt>
      <trkpt lat="46.56746" lon="5.83279">
        <ele>799</ele>
        <time>2022-06-06T14:23:50Z</time>
      </trkpt>
      <trkpt lat="46.56771" lon="5.83272">
        <ele>799</ele>
        <time>2022-06-06T14:23:54Z</time>
      </trkpt>
      <trkpt lat="46.56883" lon="5.83252">
        <ele>795</ele>
        <time>2022-06-06T14:24:14Z</time>
      </trkpt>
      <trkpt lat="46.56933" lon="5.83223">
        <ele>791</ele>
        <time>2022-06-06T14:24:24Z</time>
      </trkpt>
      <trkpt lat="46.56967" lon="5.83208">
        <ele>789</ele>
        <time>2022-06-06T14:24:30Z</time>
      </trkpt>
      <trkpt lat="46.56978" lon="5.83201">
        <ele>788</ele>
        <time>2022-06-06T14:24:32Z</time>
      </trkpt>
      <trkpt lat="46.56997" lon="5.83178">
        <ele>785</ele>
        <time>2022-06-06T14:24:37Z</time>
      </trkpt>
      <trkpt lat="46.5702" lon="5.83146">
        <ele>782</ele>
        <time>2022-06-06T14:24:42Z</time>
      </trkpt>
      <trkpt lat="46.57033" lon="5.83123">
        <ele>781</ele>
        <time>2022-06-06T14:24:46Z</time>
      </trkpt>
      <trkpt lat="46.57048" lon="5.83106">
        <ele>779</ele>
        <time>2022-06-06T14:24:49Z</time>
      </trkpt>
      <trkpt lat="46.57056" lon="5.83103">
        <ele>779</ele>
        <time>2022-06-06T14:24:51Z</time>
      </trkpt>
      <trkpt lat="46.57087" lon="5.83107">
        <ele>779</ele>
        <time>2022-06-06T14:24:56Z</time>
      </trkpt>
      <trkpt lat="46.57102" lon="5.83103">
        <ele>780</ele>
        <time>2022-06-06T14:24:59Z</time>
      </trkpt>
      <trkpt lat="46.57113" lon="5.83098">
        <ele>779</ele>
        <time>2022-06-06T14:25:01Z</time>
      </trkpt>
      <trkpt lat="46.5715" lon="5.83075">
        <ele>779</ele>
        <time>2022-06-06T14:25:08Z</time>
      </trkpt>
      <trkpt lat="46.57172" lon="5.83051">
        <ele>777</ele>
        <time>2022-06-06T14:25:13Z</time>
      </trkpt>
      <trkpt lat="46.57188" lon="5.83027">
        <ele>776</ele>
        <time>2022-06-06T14:25:17Z</time>
      </trkpt>
      <trkpt lat="46.57196" lon="5.83002">
        <ele>774</ele>
        <time>2022-06-06T14:25:21Z</time>
      </trkpt>
      <trkpt lat="46.57202" lon="5.82959">
        <ele>770</ele>
        <time>2022-06-06T14:25:26Z</time>
      </trkpt>
      <trkpt lat="46.57205" lon="5.82904">
        <ele>766</ele>
        <time>2022-06-06T14:25:33Z</time>
      </trkpt>
      <trkpt lat="46.57199" lon="5.8286">
        <ele>764</ele>
        <time>2022-06-06T14:25:38Z</time>
      </trkpt>
      <trkpt lat="46.57281" lon="5.8286">
        <ele>764</ele>
        <time>2022-06-06T14:25:53Z</time>
      </trkpt>
      <trkpt lat="46.57297" lon="5.82846">
        <ele>763</ele>
        <time>2022-06-06T14:25:56Z</time>
      </trkpt>
      <trkpt lat="46.57317" lon="5.82816">
        <ele>762</ele>
        <time>2022-06-06T14:26:01Z</time>
      </trkpt>
      <trkpt lat="46.57355" lon="5.82749">
        <ele>760</ele>
        <time>2022-06-06T14:26:12Z</time>
      </trkpt>
      <trkpt lat="46.57378" lon="5.82707">
        <ele>759</ele>
        <time>2022-06-06T14:26:18Z</time>
      </trkpt>
      <trkpt lat="46.57437" lon="5.82558">
        <ele>756</ele>
        <time>2022-06-06T14:26:39Z</time>
      </trkpt>
      <trkpt lat="46.57456" lon="5.82533">
        <ele>757</ele>
        <time>2022-06-06T14:26:44Z</time>
      </trkpt>
      <trkpt lat="46.57499" lon="5.82499">
        <ele>757</ele>
        <time>2022-06-06T14:26:53Z</time>
      </trkpt>
      <trkpt lat="46.57543" lon="5.8246">
        <ele>757</ele>
        <time>2022-06-06T14:27:02Z</time>
      </trkpt>
      <trkpt lat="46.57551" lon="5.82448">
        <ele>757</ele>
        <time>2022-06-06T14:27:04Z</time>
      </trkpt>
      <trkpt lat="46.57563" lon="5.82424">
        <ele>757</ele>
        <time>2022-06-06T14:27:08Z</time>
      </trkpt>
      <trkpt lat="46.57574" lon="5.82406">
        <ele>757</ele>
        <time>2022-06-06T14:27:11Z</time>
      </trkpt>
      <trkpt lat="46.57582" lon="5.82398">
        <ele>757</ele>
        <time>2022-06-06T14:27:12Z</time>
      </trkpt>
      <trkpt lat="46.57591" lon="5.82391">
        <ele>757</ele>
        <time>2022-06-06T14:27:14Z</time>
      </trkpt>
      <trkpt lat="46.57618" lon="5.82384">
        <ele>758</ele>
        <time>2022-06-06T14:27:19Z</time>
      </trkpt>
      <trkpt lat="46.57631" lon="5.82377">
        <ele>759</ele>
        <time>2022-06-06T14:27:21Z</time>
      </trkpt>
      <trkpt lat="46.57673" lon="5.82348">
        <ele>762</ele>
        <time>2022-06-06T14:27:30Z</time>
      </trkpt>
      <trkpt lat="46.57687" lon="5.82336">
        <ele>763</ele>
        <time>2022-06-06T14:27:33Z</time>
      </trkpt>
      <trkpt lat="46.57712" lon="5.82301">
        <ele>764</ele>
        <time>2022-06-06T14:27:39Z</time>
      </trkpt>
      <trkpt lat="46.57734" lon="5.8225">
        <ele>764</ele>
        <time>2022-06-06T14:27:46Z</time>
      </trkpt>
      <trkpt lat="46.5774" lon="5.82243">
        <ele>764</ele>
        <time>2022-06-06T14:27:48Z</time>
      </trkpt>
      <trkpt lat="46.57764" lon="5.82224">
        <ele>765</ele>
        <time>2022-06-06T14:27:52Z</time>
      </trkpt>
      <trkpt lat="46.57786" lon="5.82199">
        <ele>765</ele>
        <time>2022-06-06T14:27:57Z</time>
      </trkpt>
      <trkpt lat="46.57793" lon="5.82193">
        <ele>765</ele>
        <time>2022-06-06T14:27:59Z</time>
      </trkpt>
      <trkpt lat="46.57806" lon="5.82192">
        <ele>766</ele>
        <time>2022-06-06T14:28:01Z</time>
      </trkpt>
      <trkpt lat="46.57813" lon="5.82196">
        <ele>767</ele>
        <time>2022-06-06T14:28:02Z</time>
      </trkpt>
      <trkpt lat="46.57819" lon="5.82202">
        <ele>767</ele>
        <time>2022-06-06T14:28:04Z</time>
      </trkpt>
      <trkpt lat="46.57837" lon="5.82236">
        <ele>770</ele>
        <time>2022-06-06T14:28:09Z</time>
      </trkpt>
      <trkpt lat="46.57847" lon="5.82248">
        <ele>772</ele>
        <time>2022-06-06T14:28:11Z</time>
      </trkpt>
      <trkpt lat="46.5786" lon="5.82254">
        <ele>772</ele>
        <time>2022-06-06T14:28:14Z</time>
      </trkpt>
      <trkpt lat="46.57868" lon="5.82255">
        <ele>773</ele>
        <time>2022-06-06T14:28:15Z</time>
      </trkpt>
      <trkpt lat="46.57942" lon="5.82239">
        <ele>773</ele>
        <time>2022-06-06T14:28:28Z</time>
      </trkpt>
      <trkpt lat="46.57963" lon="5.82238">
        <ele>771</ele>
        <time>2022-06-06T14:28:32Z</time>
      </trkpt>
      <trkpt lat="46.57969" lon="5.82242">
        <ele>770</ele>
        <time>2022-06-06T14:28:33Z</time>
      </trkpt>
      <trkpt lat="46.57981" lon="5.82254">
        <ele>768</ele>
        <time>2022-06-06T14:28:36Z</time>
      </trkpt>
      <trkpt lat="46.57986" lon="5.82273">
        <ele>767</ele>
        <time>2022-06-06T14:28:38Z</time>
      </trkpt>
      <trkpt lat="46.57988" lon="5.82287">
        <ele>766</ele>
        <time>2022-06-06T14:28:40Z</time>
      </trkpt>
      <trkpt lat="46.57988" lon="5.82323">
        <ele>765</ele>
        <time>2022-06-06T14:28:45Z</time>
      </trkpt>
      <trkpt lat="46.57984" lon="5.82352">
        <ele>764</ele>
        <time>2022-06-06T14:28:48Z</time>
      </trkpt>
      <trkpt lat="46.57979" lon="5.82371">
        <ele>764</ele>
        <time>2022-06-06T14:28:51Z</time>
      </trkpt>
      <trkpt lat="46.57957" lon="5.82424">
        <ele>767</ele>
        <time>2022-06-06T14:28:58Z</time>
      </trkpt>
      <trkpt lat="46.57946" lon="5.82468">
        <ele>767</ele>
        <time>2022-06-06T14:29:04Z</time>
      </trkpt>
      <trkpt lat="46.57927" lon="5.82576">
        <ele>765</ele>
        <time>2022-06-06T14:29:18Z</time>
      </trkpt>
      <trkpt lat="46.57927" lon="5.82606">
        <ele>764</ele>
        <time>2022-06-06T14:29:21Z</time>
      </trkpt>
      <trkpt lat="46.57931" lon="5.82627">
        <ele>763</ele>
        <time>2022-06-06T14:29:24Z</time>
      </trkpt>
      <trkpt lat="46.57962" lon="5.82725">
        <ele>757</ele>
        <time>2022-06-06T14:29:37Z</time>
      </trkpt>
      <trkpt lat="46.57969" lon="5.82741">
        <ele>756</ele>
        <time>2022-06-06T14:29:39Z</time>
      </trkpt>
      <trkpt lat="46.58011" lon="5.82801">
        <ele>756</ele>
        <time>2022-06-06T14:29:50Z</time>
      </trkpt>
      <trkpt lat="46.58017" lon="5.8282">
        <ele>757</ele>
        <time>2022-06-06T14:29:53Z</time>
      </trkpt>
      <trkpt lat="46.58017" lon="5.8284">
        <ele>757</ele>
        <time>2022-06-06T14:29:55Z</time>
      </trkpt>
      <trkpt lat="46.58015" lon="5.8285">
        <ele>757</ele>
        <time>2022-06-06T14:29:56Z</time>
      </trkpt>
      <trkpt lat="46.58" lon="5.82883">
        <ele>759</ele>
        <time>2022-06-06T14:30:01Z</time>
      </trkpt>
      <trkpt lat="46.5799" lon="5.82908">
        <ele>760</ele>
        <time>2022-06-06T14:30:05Z</time>
      </trkpt>
      <trkpt lat="46.57987" lon="5.82933">
        <ele>760</ele>
        <time>2022-06-06T14:30:08Z</time>
      </trkpt>
      <trkpt lat="46.5799" lon="5.82963">
        <ele>759</ele>
        <time>2022-06-06T14:30:11Z</time>
      </trkpt>
      <trkpt lat="46.58002" lon="5.83014">
        <ele>757</ele>
        <time>2022-06-06T14:30:18Z</time>
      </trkpt>
      <trkpt lat="46.58004" lon="5.83027">
        <ele>757</ele>
        <time>2022-06-06T14:30:20Z</time>
      </trkpt>
      <trkpt lat="46.57999" lon="5.83162">
        <ele>759</ele>
        <time>2022-06-06T14:30:36Z</time>
      </trkpt>
      <trkpt lat="46.58006" lon="5.83226">
        <ele>760</ele>
        <time>2022-06-06T14:30:44Z</time>
      </trkpt>
      <trkpt lat="46.58053" lon="5.83259">
        <ele>759</ele>
        <time>2022-06-06T14:30:53Z</time>
      </trkpt>
      <trkpt lat="46.58068" lon="5.83267">
        <ele>759</ele>
        <time>2022-06-06T14:30:56Z</time>
      </trkpt>
      <trkpt lat="46.58081" lon="5.8328">
        <ele>760</ele>
        <time>2022-06-06T14:30:59Z</time>
      </trkpt>
      <trkpt lat="46.58088" lon="5.83291">
        <ele>760</ele>
        <time>2022-06-06T14:31:01Z</time>
      </trkpt>
      <trkpt lat="46.58097" lon="5.8332">
        <ele>760</ele>
        <time>2022-06-06T14:31:05Z</time>
      </trkpt>
      <trkpt lat="46.58103" lon="5.83367">
        <ele>760</ele>
        <time>2022-06-06T14:31:11Z</time>
      </trkpt>
      <trkpt lat="46.58102" lon="5.83387">
        <ele>760</ele>
        <time>2022-06-06T14:31:13Z</time>
      </trkpt>
      <trkpt lat="46.58097" lon="5.83416">
        <ele>760</ele>
        <time>2022-06-06T14:31:17Z</time>
      </trkpt>
      <trkpt lat="46.58092" lon="5.83459">
        <ele>763</ele>
        <time>2022-06-06T14:31:22Z</time>
      </trkpt>
      <trkpt lat="46.58095" lon="5.83477">
        <ele>763</ele>
        <time>2022-06-06T14:31:24Z</time>
      </trkpt>
      <trkpt lat="46.58102" lon="5.83494">
        <ele>762</ele>
        <time>2022-06-06T14:31:27Z</time>
      </trkpt>
      <trkpt lat="46.58107" lon="5.835">
        <ele>762</ele>
        <time>2022-06-06T14:31:28Z</time>
      </trkpt>
      <trkpt lat="46.58119" lon="5.83511">
        <ele>760</ele>
        <time>2022-06-06T14:31:30Z</time>
      </trkpt>
      <trkpt lat="46.58125" lon="5.83514">
        <ele>759</ele>
        <time>2022-06-06T14:31:32Z</time>
      </trkpt>
      <trkpt lat="46.58145" lon="5.83518">
        <ele>756</ele>
        <time>2022-06-06T14:31:35Z</time>
      </trkpt>
      <trkpt lat="46.58159" lon="5.83527">
        <ele>753</ele>
        <time>2022-06-06T14:31:38Z</time>
      </trkpt>
      <trkpt lat="46.5817" lon="5.83539">
        <ele>752</ele>
        <time>2022-06-06T14:31:40Z</time>
      </trkpt>
      <trkpt lat="46.58178" lon="5.83552">
        <ele>753</ele>
        <time>2022-06-06T14:31:42Z</time>
      </trkpt>
      <trkpt lat="46.58181" lon="5.83568">
        <ele>753</ele>
        <time>2022-06-06T14:31:44Z</time>
      </trkpt>
      <trkpt lat="46.58181" lon="5.83597">
        <ele>754</ele>
        <time>2022-06-06T14:31:48Z</time>
      </trkpt>
      <trkpt lat="46.58171" lon="5.83652">
        <ele>756</ele>
        <time>2022-06-06T14:31:55Z</time>
      </trkpt>
      <trkpt lat="46.58169" lon="5.83697">
        <ele>757</ele>
        <time>2022-06-06T14:32:00Z</time>
      </trkpt>
      <trkpt lat="46.58173" lon="5.83746">
        <ele>756</ele>
        <time>2022-06-06T14:32:07Z</time>
      </trkpt>
      <trkpt lat="46.58181" lon="5.83804">
        <ele>755</ele>
        <time>2022-06-06T14:32:14Z</time>
      </trkpt>
      <trkpt lat="46.58198" lon="5.83976">
        <ele>755</ele>
        <time>2022-06-06T14:32:35Z</time>
      </trkpt>
      <trkpt lat="46.58198" lon="5.84005">
        <ele>756</ele>
        <time>2022-06-06T14:32:39Z</time>
      </trkpt>
      <trkpt lat="46.5819" lon="5.84076">
        <ele>759</ele>
        <time>2022-06-06T14:32:47Z</time>
      </trkpt>
      <trkpt lat="46.58191" lon="5.84099">
        <ele>760</ele>
        <time>2022-06-06T14:32:50Z</time>
      </trkpt>
      <trkpt lat="46.58193" lon="5.84107">
        <ele>760</ele>
        <time>2022-06-06T14:32:51Z</time>
      </trkpt>
      <trkpt lat="46.58204" lon="5.84132">
        <ele>760</ele>
        <time>2022-06-06T14:32:55Z</time>
      </trkpt>
      <trkpt lat="46.58251" lon="5.84195">
        <ele>758</ele>
        <time>2022-06-06T14:33:06Z</time>
      </trkpt>
      <trkpt lat="46.58267" lon="5.84261">
        <ele>759</ele>
        <time>2022-06-06T14:33:15Z</time>
      </trkpt>
      <trkpt lat="46.58273" lon="5.8434">
        <ele>762</ele>
        <time>2022-06-06T14:33:24Z</time>
      </trkpt>
      <trkpt lat="46.58278" lon="5.84355">
        <ele>762</ele>
        <time>2022-06-06T14:33:27Z</time>
      </trkpt>
      <trkpt lat="46.58288" lon="5.84373">
        <ele>762</ele>
        <time>2022-06-06T14:33:29Z</time>
      </trkpt>
      <trkpt lat="46.5834" lon="5.84439">
        <ele>758</ele>
        <time>2022-06-06T14:33:42Z</time>
      </trkpt>
      <trkpt lat="46.58352" lon="5.84457">
        <ele>759</ele>
        <time>2022-06-06T14:33:45Z</time>
      </trkpt>
      <trkpt lat="46.58362" lon="5.84482">
        <ele>759</ele>
        <time>2022-06-06T14:33:48Z</time>
      </trkpt>
      <trkpt lat="46.58364" lon="5.84509">
        <ele>760</ele>
        <time>2022-06-06T14:33:52Z</time>
      </trkpt>
      <trkpt lat="46.58361" lon="5.84565">
        <ele>760</ele>
        <time>2022-06-06T14:33:58Z</time>
      </trkpt>
      <trkpt lat="46.58365" lon="5.84588">
        <ele>760</ele>
        <time>2022-06-06T14:34:01Z</time>
      </trkpt>
      <trkpt lat="46.58375" lon="5.8461">
        <ele>760</ele>
        <time>2022-06-06T14:34:05Z</time>
      </trkpt>
      <trkpt lat="46.5839" lon="5.84625">
        <ele>758</ele>
        <time>2022-06-06T14:34:08Z</time>
      </trkpt>
      <trkpt lat="46.58402" lon="5.84633">
        <ele>757</ele>
        <time>2022-06-06T14:34:10Z</time>
      </trkpt>
      <trkpt lat="46.5841" lon="5.84636">
        <ele>756</ele>
        <time>2022-06-06T14:34:12Z</time>
      </trkpt>
      <trkpt lat="46.58424" lon="5.84636">
        <ele>755</ele>
        <time>2022-06-06T14:34:14Z</time>
      </trkpt>
      <trkpt lat="46.58437" lon="5.84632">
        <ele>754</ele>
        <time>2022-06-06T14:34:16Z</time>
      </trkpt>
      <trkpt lat="46.58466" lon="5.84607">
        <ele>753</ele>
        <time>2022-06-06T14:34:22Z</time>
      </trkpt>
      <trkpt lat="46.58525" lon="5.84548">
        <ele>751</ele>
        <time>2022-06-06T14:34:35Z</time>
      </trkpt>
      <trkpt lat="46.58537" lon="5.84529">
        <ele>751</ele>
        <time>2022-06-06T14:34:38Z</time>
      </trkpt>
      <trkpt lat="46.58548" lon="5.84481">
        <ele>749</ele>
        <time>2022-06-06T14:34:45Z</time>
      </trkpt>
      <trkpt lat="46.58558" lon="5.84473">
        <ele>748</ele>
        <time>2022-06-06T14:34:47Z</time>
      </trkpt>
      <trkpt lat="46.58599" lon="5.8447">
        <ele>747</ele>
        <time>2022-06-06T14:34:54Z</time>
      </trkpt>
      <trkpt lat="46.58644" lon="5.84453">
        <ele>748</ele>
        <time>2022-06-06T14:35:02Z</time>
      </trkpt>
      <trkpt lat="46.58656" lon="5.84424">
        <ele>745</ele>
        <time>2022-06-06T14:35:06Z</time>
      </trkpt>
      <trkpt lat="46.58678" lon="5.84336">
        <ele>745</ele>
        <time>2022-06-06T14:35:18Z</time>
      </trkpt>
      <trkpt lat="46.58678" lon="5.84302">
        <ele>744</ele>
        <time>2022-06-06T14:35:22Z</time>
      </trkpt>
      <trkpt lat="46.58672" lon="5.8428">
        <ele>744</ele>
        <time>2022-06-06T14:35:25Z</time>
      </trkpt>
      <trkpt lat="46.5867" lon="5.84237">
        <ele>743</ele>
        <time>2022-06-06T14:35:30Z</time>
      </trkpt>
      <trkpt lat="46.58682" lon="5.84163">
        <ele>745</ele>
        <time>2022-06-06T14:35:39Z</time>
      </trkpt>
      <trkpt lat="46.58698" lon="5.84109">
        <ele>745</ele>
        <time>2022-06-06T14:35:47Z</time>
      </trkpt>
      <trkpt lat="46.58708" lon="5.84091">
        <ele>746</ele>
        <time>2022-06-06T14:35:49Z</time>
      </trkpt>
      <trkpt lat="46.58731" lon="5.84084">
        <ele>747</ele>
        <time>2022-06-06T14:35:54Z</time>
      </trkpt>
      <trkpt lat="46.58746" lon="5.84084">
        <ele>749</ele>
        <time>2022-06-06T14:35:56Z</time>
      </trkpt>
      <trkpt lat="46.58762" lon="5.84074">
        <ele>750</ele>
        <time>2022-06-06T14:35:59Z</time>
      </trkpt>
      <trkpt lat="46.58779" lon="5.84045">
        <ele>751</ele>
        <time>2022-06-06T14:36:04Z</time>
      </trkpt>
      <trkpt lat="46.58804" lon="5.83997">
        <ele>754</ele>
        <time>2022-06-06T14:36:11Z</time>
      </trkpt>
      <trkpt lat="46.58808" lon="5.83969">
        <ele>753</ele>
        <time>2022-06-06T14:36:15Z</time>
      </trkpt>
      <trkpt lat="46.58801" lon="5.83946">
        <ele>751</ele>
        <time>2022-06-06T14:36:18Z</time>
      </trkpt>
      <trkpt lat="46.588" lon="5.83908">
        <ele>750</ele>
        <time>2022-06-06T14:36:23Z</time>
      </trkpt>
      <trkpt lat="46.58811" lon="5.83883">
        <ele>750</ele>
        <time>2022-06-06T14:36:26Z</time>
      </trkpt>
      <trkpt lat="46.58835" lon="5.83871">
        <ele>752</ele>
        <time>2022-06-06T14:36:31Z</time>
      </trkpt>
      <trkpt lat="46.58918" lon="5.83925">
        <ele>751</ele>
        <time>2022-06-06T14:36:47Z</time>
      </trkpt>
      <trkpt lat="46.58954" lon="5.83929">
        <ele>748</ele>
        <time>2022-06-06T14:36:53Z</time>
      </trkpt>
      <trkpt lat="46.59019" lon="5.83892">
        <ele>741</ele>
        <time>2022-06-06T14:37:06Z</time>
      </trkpt>
      <trkpt lat="46.59049" lon="5.83893">
        <ele>738</ele>
        <time>2022-06-06T14:37:11Z</time>
      </trkpt>
      <trkpt lat="46.59063" lon="5.83897">
        <ele>737</ele>
        <time>2022-06-06T14:37:14Z</time>
      </trkpt>
      <trkpt lat="46.59071" lon="5.83908">
        <ele>737</ele>
        <time>2022-06-06T14:37:16Z</time>
      </trkpt>
      <trkpt lat="46.59088" lon="5.83963">
        <ele>736</ele>
        <time>2022-06-06T14:37:23Z</time>
      </trkpt>
      <trkpt lat="46.5911" lon="5.83981">
        <ele>736</ele>
        <time>2022-06-06T14:37:27Z</time>
      </trkpt>
      <trkpt lat="46.5913" lon="5.83983">
        <ele>735</ele>
        <time>2022-06-06T14:37:31Z</time>
      </trkpt>
      <trkpt lat="46.59146" lon="5.83974">
        <ele>734</ele>
        <time>2022-06-06T14:37:34Z</time>
      </trkpt>
      <trkpt lat="46.59182" lon="5.83931">
        <ele>731</ele>
        <time>2022-06-06T14:37:42Z</time>
      </trkpt>
      <trkpt lat="46.59158" lon="5.839">
        <ele>731</ele>
        <time>2022-06-06T14:37:48Z</time>
      </trkpt>
      <trkpt lat="46.59201" lon="5.83854">
        <ele>726</ele>
        <time>2022-06-06T14:37:58Z</time>
      </trkpt>
      <trkpt lat="46.59248" lon="5.83814">
        <ele>724</ele>
        <time>2022-06-06T14:38:07Z</time>
      </trkpt>
      <trkpt lat="46.59267" lon="5.83805">
        <ele>724</ele>
        <time>2022-06-06T14:38:11Z</time>
      </trkpt>
      <trkpt lat="46.59289" lon="5.83803">
        <ele>725</ele>
        <time>2022-06-06T14:38:15Z</time>
      </trkpt>
      <trkpt lat="46.59349" lon="5.83808">
        <ele>725</ele>
        <time>2022-06-06T14:38:25Z</time>
      </trkpt>
      <trkpt lat="46.59384" lon="5.83809">
        <ele>724</ele>
        <time>2022-06-06T14:38:32Z</time>
      </trkpt>
      <trkpt lat="46.59403" lon="5.83795">
        <ele>724</ele>
        <time>2022-06-06T14:38:35Z</time>
      </trkpt>
      <trkpt lat="46.59437" lon="5.83757">
        <ele>723</ele>
        <time>2022-06-06T14:38:43Z</time>
      </trkpt>
      <trkpt lat="46.59479" lon="5.83695">
        <ele>721</ele>
        <time>2022-06-06T14:38:54Z</time>
      </trkpt>
      <trkpt lat="46.59506" lon="5.8366">
        <ele>719</ele>
        <time>2022-06-06T14:39:00Z</time>
      </trkpt>
      <trkpt lat="46.59527" lon="5.83643">
        <ele>718</ele>
        <time>2022-06-06T14:39:04Z</time>
      </trkpt>
      <trkpt lat="46.5955" lon="5.83639">
        <ele>716</ele>
        <time>2022-06-06T14:39:09Z</time>
      </trkpt>
      <trkpt lat="46.59581" lon="5.83656">
        <ele>714</ele>
        <time>2022-06-06T14:39:14Z</time>
      </trkpt>
      <trkpt lat="46.59606" lon="5.83675">
        <ele>711</ele>
        <time>2022-06-06T14:39:19Z</time>
      </trkpt>
      <trkpt lat="46.59628" lon="5.83682">
        <ele>707</ele>
        <time>2022-06-06T14:39:23Z</time>
      </trkpt>
      <trkpt lat="46.59655" lon="5.83671">
        <ele>703</ele>
        <time>2022-06-06T14:39:28Z</time>
      </trkpt>
      <trkpt lat="46.59711" lon="5.83609">
        <ele>691</ele>
        <time>2022-06-06T14:39:41Z</time>
      </trkpt>
      <trkpt lat="46.59739" lon="5.83581">
        <ele>686</ele>
        <time>2022-06-06T14:39:47Z</time>
      </trkpt>
      <trkpt lat="46.59748" lon="5.83573">
        <ele>684</ele>
        <time>2022-06-06T14:39:49Z</time>
      </trkpt>
      <trkpt lat="46.59764" lon="5.83562">
        <ele>683</ele>
        <time>2022-06-06T14:39:52Z</time>
      </trkpt>
      <trkpt lat="46.59802" lon="5.8354">
        <ele>683</ele>
        <time>2022-06-06T14:39:59Z</time>
      </trkpt>
      <trkpt lat="46.59832" lon="5.83519">
        <ele>683</ele>
        <time>2022-06-06T14:40:05Z</time>
      </trkpt>
      <trkpt lat="46.59863" lon="5.83487">
        <ele>684</ele>
        <time>2022-06-06T14:40:12Z</time>
      </trkpt>
      <trkpt lat="46.59916" lon="5.83443">
        <ele>685</ele>
        <time>2022-06-06T14:40:23Z</time>
      </trkpt>
      <trkpt lat="46.59956" lon="5.83404">
        <ele>688</ele>
        <time>2022-06-06T14:40:31Z</time>
      </trkpt>
      <trkpt lat="46.59979" lon="5.83373">
        <ele>688</ele>
        <time>2022-06-06T14:40:37Z</time>
      </trkpt>
      <trkpt lat="46.60024" lon="5.83298">
        <ele>687</ele>
        <time>2022-06-06T14:40:49Z</time>
      </trkpt>
      <trkpt lat="46.60069" lon="5.83214">
        <ele>688</ele>
        <time>2022-06-06T14:41:02Z</time>
      </trkpt>
      <trkpt lat="46.60107" lon="5.83118">
        <ele>687</ele>
        <time>2022-06-06T14:41:16Z</time>
      </trkpt>
      <trkpt lat="46.60117" lon="5.83077">
        <ele>685</ele>
        <time>2022-06-06T14:41:21Z</time>
      </trkpt>
      <trkpt lat="46.60122" lon="5.83035">
        <ele>681</ele>
        <time>2022-06-06T14:41:26Z</time>
      </trkpt>
      <trkpt lat="46.60137" lon="5.82988">
        <ele>679</ele>
        <time>2022-06-06T14:41:33Z</time>
      </trkpt>
      <trkpt lat="46.60162" lon="5.82933">
        <ele>678</ele>
        <time>2022-06-06T14:41:41Z</time>
      </trkpt>
      <trkpt lat="46.60173" lon="5.82913">
        <ele>678</ele>
        <time>2022-06-06T14:41:44Z</time>
      </trkpt>
      <trkpt lat="46.60181" lon="5.82904">
        <ele>679</ele>
        <time>2022-06-06T14:41:46Z</time>
      </trkpt>
      <trkpt lat="46.60198" lon="5.82895">
        <ele>682</ele>
        <time>2022-06-06T14:41:49Z</time>
      </trkpt>
      <trkpt lat="46.60205" lon="5.82886">
        <ele>683</ele>
        <time>2022-06-06T14:41:50Z</time>
      </trkpt>
      <trkpt lat="46.60221" lon="5.82861">
        <ele>684</ele>
        <time>2022-06-06T14:41:55Z</time>
      </trkpt>
      <trkpt lat="46.60238" lon="5.82823">
        <ele>684</ele>
        <time>2022-06-06T14:42:00Z</time>
      </trkpt>
      <trkpt lat="46.60268" lon="5.82778">
        <ele>685</ele>
        <time>2022-06-06T14:42:08Z</time>
      </trkpt>
      <trkpt lat="46.60304" lon="5.82743">
        <ele>685</ele>
        <time>2022-06-06T14:42:16Z</time>
      </trkpt>
      <trkpt lat="46.60354" lon="5.82713">
        <ele>688</ele>
        <time>2022-06-06T14:42:25Z</time>
      </trkpt>
      <trkpt lat="46.60395" lon="5.82675">
        <ele>685</ele>
        <time>2022-06-06T14:42:34Z</time>
      </trkpt>
      <trkpt lat="46.60422" lon="5.82625">
        <ele>681</ele>
        <time>2022-06-06T14:42:42Z</time>
      </trkpt>
      <trkpt lat="46.60448" lon="5.82566">
        <ele>676</ele>
        <time>2022-06-06T14:42:50Z</time>
      </trkpt>
      <trkpt lat="46.6047" lon="5.82478">
        <ele>673</ele>
        <time>2022-06-06T14:43:02Z</time>
      </trkpt>
      <trkpt lat="46.60485" lon="5.8239">
        <ele>672</ele>
        <time>2022-06-06T14:43:13Z</time>
      </trkpt>
      <trkpt lat="46.60495" lon="5.82306">
        <ele>672</ele>
        <time>2022-06-06T14:43:23Z</time>
      </trkpt>
      <trkpt lat="46.60495" lon="5.82285">
        <ele>671</ele>
        <time>2022-06-06T14:43:26Z</time>
      </trkpt>
      <trkpt lat="46.60493" lon="5.82265">
        <ele>671</ele>
        <time>2022-06-06T14:43:28Z</time>
      </trkpt>
      <trkpt lat="46.60487" lon="5.82247">
        <ele>671</ele>
        <time>2022-06-06T14:43:31Z</time>
      </trkpt>
      <trkpt lat="46.60468" lon="5.82204">
        <ele>668</ele>
        <time>2022-06-06T14:43:37Z</time>
      </trkpt>
      <trkpt lat="46.60462" lon="5.82186">
        <ele>667</ele>
        <time>2022-06-06T14:43:39Z</time>
      </trkpt>
      <trkpt lat="46.60458" lon="5.82167">
        <ele>666</ele>
        <time>2022-06-06T14:43:42Z</time>
      </trkpt>
      <trkpt lat="46.60457" lon="5.82136">
        <ele>665</ele>
        <time>2022-06-06T14:43:46Z</time>
      </trkpt>
      <trkpt lat="46.60467" lon="5.82057">
        <ele>663</ele>
        <time>2022-06-06T14:43:55Z</time>
      </trkpt>
      <trkpt lat="46.60466" lon="5.82016">
        <ele>663</ele>
        <time>2022-06-06T14:44:00Z</time>
      </trkpt>
      <trkpt lat="46.60459" lon="5.81977">
        <ele>662</ele>
        <time>2022-06-06T14:44:05Z</time>
      </trkpt>
      <trkpt lat="46.6044" lon="5.81901">
        <ele>659</ele>
        <time>2022-06-06T14:44:15Z</time>
      </trkpt>
      <trkpt lat="46.60434" lon="5.81867">
        <ele>659</ele>
        <time>2022-06-06T14:44:19Z</time>
      </trkpt>
      <trkpt lat="46.60436" lon="5.81831">
        <ele>659</ele>
        <time>2022-06-06T14:44:24Z</time>
      </trkpt>
      <trkpt lat="46.60456" lon="5.81712">
        <ele>659</ele>
        <time>2022-06-06T14:44:39Z</time>
      </trkpt>
      <trkpt lat="46.60462" lon="5.81688">
        <ele>659</ele>
        <time>2022-06-06T14:44:42Z</time>
      </trkpt>
      <trkpt lat="46.60468" lon="5.81673">
        <ele>659</ele>
        <time>2022-06-06T14:44:44Z</time>
      </trkpt>
      <trkpt lat="46.60486" lon="5.81653">
        <ele>661</ele>
        <time>2022-06-06T14:44:48Z</time>
      </trkpt>
      <trkpt lat="46.60527" lon="5.81618">
        <ele>661</ele>
        <time>2022-06-06T14:44:57Z</time>
      </trkpt>
      <trkpt lat="46.60578" lon="5.81579">
        <ele>661</ele>
        <time>2022-06-06T14:45:07Z</time>
      </trkpt>
      <trkpt lat="46.60594" lon="5.81561">
        <ele>660</ele>
        <time>2022-06-06T14:45:10Z</time>
      </trkpt>
      <trkpt lat="46.60609" lon="5.81539">
        <ele>659</ele>
        <time>2022-06-06T14:45:14Z</time>
      </trkpt>
      <trkpt lat="46.60619" lon="5.81512">
        <ele>658</ele>
        <time>2022-06-06T14:45:18Z</time>
      </trkpt>
      <trkpt lat="46.60665" lon="5.81342">
        <ele>657</ele>
        <time>2022-06-06T14:45:40Z</time>
      </trkpt>
      <trkpt lat="46.6068" lon="5.81264">
        <ele>654</ele>
        <time>2022-06-06T14:45:50Z</time>
      </trkpt>
      <trkpt lat="46.6069" lon="5.81243">
        <ele>653</ele>
        <time>2022-06-06T14:45:53Z</time>
      </trkpt>
      <trkpt lat="46.60698" lon="5.81233">
        <ele>653</ele>
        <time>2022-06-06T14:45:55Z</time>
      </trkpt>
      <trkpt lat="46.60875" lon="5.81109">
        <ele>649</ele>
        <time>2022-06-06T14:46:30Z</time>
      </trkpt>
      <trkpt lat="46.60888" lon="5.81102">
        <ele>649</ele>
        <time>2022-06-06T14:46:33Z</time>
      </trkpt>
      <trkpt lat="46.60902" lon="5.811">
        <ele>648</ele>
        <time>2022-06-06T14:46:35Z</time>
      </trkpt>
      <trkpt lat="46.60944" lon="5.81098">
        <ele>646</ele>
        <time>2022-06-06T14:46:43Z</time>
      </trkpt>
      <trkpt lat="46.60958" lon="5.81096">
        <ele>645</ele>
        <time>2022-06-06T14:46:45Z</time>
      </trkpt>
      <trkpt lat="46.60971" lon="5.81091">
        <ele>645</ele>
        <time>2022-06-06T14:46:48Z</time>
      </trkpt>
      <trkpt lat="46.6099" lon="5.81081">
        <ele>645</ele>
        <time>2022-06-06T14:46:51Z</time>
      </trkpt>
      <trkpt lat="46.61014" lon="5.8106">
        <ele>643</ele>
        <time>2022-06-06T14:46:56Z</time>
      </trkpt>
      <trkpt lat="46.6103" lon="5.81042">
        <ele>641</ele>
        <time>2022-06-06T14:47:00Z</time>
      </trkpt>
      <trkpt lat="46.6104" lon="5.81027">
        <ele>641</ele>
        <time>2022-06-06T14:47:02Z</time>
      </trkpt>
      <trkpt lat="46.61056" lon="5.80994">
        <ele>640</ele>
        <time>2022-06-06T14:47:07Z</time>
      </trkpt>
      <trkpt lat="46.61062" lon="5.80976">
        <ele>639</ele>
        <time>2022-06-06T14:47:10Z</time>
      </trkpt>
      <trkpt lat="46.61064" lon="5.80956">
        <ele>639</ele>
        <time>2022-06-06T14:47:12Z</time>
      </trkpt>
      <trkpt lat="46.61062" lon="5.80937">
        <ele>640</ele>
        <time>2022-06-06T14:47:14Z</time>
      </trkpt>
      <trkpt lat="46.61056" lon="5.80918">
        <ele>640</ele>
        <time>2022-06-06T14:47:17Z</time>
      </trkpt>
      <trkpt lat="46.61048" lon="5.80902">
        <ele>640</ele>
        <time>2022-06-06T14:47:19Z</time>
      </trkpt>
      <trkpt lat="46.60975" lon="5.80781">
        <ele>636</ele>
        <time>2022-06-06T14:47:39Z</time>
      </trkpt>
      <trkpt lat="46.60978" lon="5.80764">
        <ele>635</ele>
        <time>2022-06-06T14:47:41Z</time>
      </trkpt>
      <trkpt lat="46.6098" lon="5.8076">
        <ele>634</ele>
        <time>2022-06-06T14:47:42Z</time>
      </trkpt>
      <trkpt lat="46.60987" lon="5.80754">
        <ele>634</ele>
        <time>2022-06-06T14:47:43Z</time>
      </trkpt>
      <trkpt lat="46.61055" lon="5.80782">
        <ele>631</ele>
        <time>2022-06-06T14:47:56Z</time>
      </trkpt>
      <trkpt lat="46.61084" lon="5.80789">
        <ele>630</ele>
        <time>2022-06-06T14:48:01Z</time>
      </trkpt>
      <trkpt lat="46.61135" lon="5.80794">
        <ele>629</ele>
        <time>2022-06-06T14:48:10Z</time>
      </trkpt>
      <trkpt lat="46.61144" lon="5.80793">
        <ele>628</ele>
        <time>2022-06-06T14:48:12Z</time>
      </trkpt>
      <trkpt lat="46.61155" lon="5.80787">
        <ele>628</ele>
        <time>2022-06-06T14:48:14Z</time>
      </trkpt>
      <trkpt lat="46.61169" lon="5.8077">
        <ele>626</ele>
        <time>2022-06-06T14:48:17Z</time>
      </trkpt>
      <trkpt lat="46.61176" lon="5.80765">
        <ele>626</ele>
        <time>2022-06-06T14:48:19Z</time>
      </trkpt>
      <trkpt lat="46.61186" lon="5.80763">
        <ele>626</ele>
        <time>2022-06-06T14:48:20Z</time>
      </trkpt>
      <trkpt lat="46.61201" lon="5.80767">
        <ele>627</ele>
        <time>2022-06-06T14:48:23Z</time>
      </trkpt>
      <trkpt lat="46.61218" lon="5.80778">
        <ele>627</ele>
        <time>2022-06-06T14:48:26Z</time>
      </trkpt>
      <trkpt lat="46.61274" lon="5.80831">
        <ele>629</ele>
        <time>2022-06-06T14:48:38Z</time>
      </trkpt>
      <trkpt lat="46.61294" lon="5.80845">
        <ele>630</ele>
        <time>2022-06-06T14:48:42Z</time>
      </trkpt>
      <trkpt lat="46.61328" lon="5.8086">
        <ele>632</ele>
        <time>2022-06-06T14:48:48Z</time>
      </trkpt>
      <trkpt lat="46.61405" lon="5.80879">
        <ele>634</ele>
        <time>2022-06-06T14:49:02Z</time>
      </trkpt>
      <trkpt lat="46.6145" lon="5.809">
        <ele>636</ele>
        <time>2022-06-06T14:49:11Z</time>
      </trkpt>
      <trkpt lat="46.61468" lon="5.80909">
        <ele>636</ele>
        <time>2022-06-06T14:49:14Z</time>
      </trkpt>
      <trkpt lat="46.61485" lon="5.80912">
        <ele>637</ele>
        <time>2022-06-06T14:49:17Z</time>
      </trkpt>
      <trkpt lat="46.61492" lon="5.8091">
        <ele>637</ele>
        <time>2022-06-06T14:49:18Z</time>
      </trkpt>
      <trkpt lat="46.61528" lon="5.80879">
        <ele>636</ele>
        <time>2022-06-06T14:49:26Z</time>
      </trkpt>
      <trkpt lat="46.61541" lon="5.80871">
        <ele>636</ele>
        <time>2022-06-06T14:49:28Z</time>
      </trkpt>
      <trkpt lat="46.61554" lon="5.80869">
        <ele>636</ele>
        <time>2022-06-06T14:49:31Z</time>
      </trkpt>
      <trkpt lat="46.61589" lon="5.80872">
        <ele>636</ele>
        <time>2022-06-06T14:49:37Z</time>
      </trkpt>
      <trkpt lat="46.61603" lon="5.80868">
        <ele>636</ele>
        <time>2022-06-06T14:49:40Z</time>
      </trkpt>
      <trkpt lat="46.61609" lon="5.80863">
        <ele>637</ele>
        <time>2022-06-06T14:49:41Z</time>
      </trkpt>
      <trkpt lat="46.61619" lon="5.80851">
        <ele>637</ele>
        <time>2022-06-06T14:49:43Z</time>
      </trkpt>
      <trkpt lat="46.61629" lon="5.8083">
        <ele>636</ele>
        <time>2022-06-06T14:49:46Z</time>
      </trkpt>
      <trkpt lat="46.61656" lon="5.80746">
        <ele>634</ele>
        <time>2022-06-06T14:49:58Z</time>
      </trkpt>
      <trkpt lat="46.61664" lon="5.80714">
        <ele>635</ele>
        <time>2022-06-06T14:50:02Z</time>
      </trkpt>
      <trkpt lat="46.61688" lon="5.80601">
        <ele>639</ele>
        <time>2022-06-06T14:50:16Z</time>
      </trkpt>
      <trkpt lat="46.61703" lon="5.80552">
        <ele>640</ele>
        <time>2022-06-06T14:50:23Z</time>
      </trkpt>
      <trkpt lat="46.61728" lon="5.80492">
        <ele>642</ele>
        <time>2022-06-06T14:50:31Z</time>
      </trkpt>
      <trkpt lat="46.61766" lon="5.80361">
        <ele>642</ele>
        <time>2022-06-06T14:50:49Z</time>
      </trkpt>
      <trkpt lat="46.61776" lon="5.8033">
        <ele>642</ele>
        <time>2022-06-06T14:50:53Z</time>
      </trkpt>
      <trkpt lat="46.6178" lon="5.80309">
        <ele>641</ele>
        <time>2022-06-06T14:50:56Z</time>
      </trkpt>
      <trkpt lat="46.6178" lon="5.80237">
        <ele>640</ele>
        <time>2022-06-06T14:51:04Z</time>
      </trkpt>
      <trkpt lat="46.6179" lon="5.80161">
        <ele>639</ele>
        <time>2022-06-06T14:51:14Z</time>
      </trkpt>
      <trkpt lat="46.61817" lon="5.80097">
        <ele>636</ele>
        <time>2022-06-06T14:51:23Z</time>
      </trkpt>
      <trkpt lat="46.61884" lon="5.79976">
        <ele>628</ele>
        <time>2022-06-06T14:51:42Z</time>
      </trkpt>
      <trkpt lat="46.61974" lon="5.79896">
        <ele>620</ele>
        <time>2022-06-06T14:52:01Z</time>
      </trkpt>
      <trkpt lat="46.62071" lon="5.79834">
        <ele>616</ele>
        <time>2022-06-06T14:52:20Z</time>
      </trkpt>
      <trkpt lat="46.62266" lon="5.79731">
        <ele>610</ele>
        <time>2022-06-06T14:52:56Z</time>
      </trkpt>
      <trkpt lat="46.62297" lon="5.79694">
        <ele>609</ele>
        <time>2022-06-06T14:53:04Z</time>
      </trkpt>
      <trkpt lat="46.62382" lon="5.79567">
        <ele>604</ele>
        <time>2022-06-06T14:53:25Z</time>
      </trkpt>
      <trkpt lat="46.62396" lon="5.79525">
        <ele>604</ele>
        <time>2022-06-06T14:53:31Z</time>
      </trkpt>
      <trkpt lat="46.62407" lon="5.79464">
        <ele>603</ele>
        <time>2022-06-06T14:53:39Z</time>
      </trkpt>
      <trkpt lat="46.6244" lon="5.79375">
        <ele>602</ele>
        <time>2022-06-06T14:53:51Z</time>
      </trkpt>
      <trkpt lat="46.625" lon="5.79239">
        <ele>604</ele>
        <time>2022-06-06T14:54:11Z</time>
      </trkpt>
      <trkpt lat="46.62515" lon="5.79189">
        <ele>605</ele>
        <time>2022-06-06T14:54:17Z</time>
      </trkpt>
      <trkpt lat="46.62521" lon="5.7916">
        <ele>606</ele>
        <time>2022-06-06T14:54:21Z</time>
      </trkpt>
      <trkpt lat="46.62532" lon="5.79126">
        <ele>607</ele>
        <time>2022-06-06T14:54:26Z</time>
      </trkpt>
      <trkpt lat="46.6254" lon="5.79107">
        <ele>607</ele>
        <time>2022-06-06T14:54:28Z</time>
      </trkpt>
      <trkpt lat="46.6262" lon="5.78974">
        <ele>609</ele>
        <time>2022-06-06T14:54:50Z</time>
      </trkpt>
      <trkpt lat="46.6273" lon="5.78749">
        <ele>614</ele>
        <time>2022-06-06T14:55:24Z</time>
      </trkpt>
      <trkpt lat="46.62747" lon="5.78707">
        <ele>613</ele>
        <time>2022-06-06T14:55:30Z</time>
      </trkpt>
      <trkpt lat="46.62782" lon="5.78597">
        <ele>615</ele>
        <time>2022-06-06T14:55:45Z</time>
      </trkpt>
      <trkpt lat="46.62807" lon="5.78499">
        <ele>614</ele>
        <time>2022-06-06T14:55:57Z</time>
      </trkpt>
      <trkpt lat="46.62819" lon="5.78468">
        <ele>610</ele>
        <time>2022-06-06T14:56:02Z</time>
      </trkpt>
      <trkpt lat="46.6284" lon="5.78424">
        <ele>606</ele>
        <time>2022-06-06T14:56:08Z</time>
      </trkpt>
      <trkpt lat="46.6285" lon="5.78396">
        <ele>607</ele>
        <time>2022-06-06T14:56:12Z</time>
      </trkpt>
      <trkpt lat="46.62859" lon="5.78349">
        <ele>608</ele>
        <time>2022-06-06T14:56:18Z</time>
      </trkpt>
      <trkpt lat="46.62863" lon="5.78314">
        <ele>607</ele>
        <time>2022-06-06T14:56:22Z</time>
      </trkpt>
      <trkpt lat="46.62863" lon="5.78297">
        <ele>607</ele>
        <time>2022-06-06T14:56:25Z</time>
      </trkpt>
      <trkpt lat="46.62858" lon="5.7826">
        <ele>606</ele>
        <time>2022-06-06T14:56:29Z</time>
      </trkpt>
      <trkpt lat="46.62845" lon="5.78193">
        <ele>603</ele>
        <time>2022-06-06T14:56:38Z</time>
      </trkpt>
      <trkpt lat="46.62833" lon="5.78157">
        <ele>601</ele>
        <time>2022-06-06T14:56:43Z</time>
      </trkpt>
      <trkpt lat="46.62816" lon="5.78123">
        <ele>601</ele>
        <time>2022-06-06T14:56:48Z</time>
      </trkpt>
      <trkpt lat="46.62792" lon="5.78083">
        <ele>601</ele>
        <time>2022-06-06T14:56:54Z</time>
      </trkpt>
      <trkpt lat="46.62778" lon="5.78068">
        <ele>601</ele>
        <time>2022-06-06T14:56:57Z</time>
      </trkpt>
      <trkpt lat="46.62756" lon="5.78056">
        <ele>602</ele>
        <time>2022-06-06T14:57:01Z</time>
      </trkpt>
      <trkpt lat="46.62733" lon="5.78036">
        <ele>602</ele>
        <time>2022-06-06T14:57:06Z</time>
      </trkpt>
      <trkpt lat="46.62724" lon="5.78026">
        <ele>602</ele>
        <time>2022-06-06T14:57:08Z</time>
      </trkpt>
      <trkpt lat="46.62705" lon="5.77995">
        <ele>600</ele>
        <time>2022-06-06T14:57:13Z</time>
      </trkpt>
      <trkpt lat="46.62696" lon="5.77971">
        <ele>600</ele>
        <time>2022-06-06T14:57:17Z</time>
      </trkpt>
      <trkpt lat="46.62672" lon="5.7788">
        <ele>597</ele>
        <time>2022-06-06T14:57:29Z</time>
      </trkpt>
      <trkpt lat="46.6266" lon="5.77845">
        <ele>597</ele>
        <time>2022-06-06T14:57:33Z</time>
      </trkpt>
      <trkpt lat="46.62608" lon="5.77729">
        <ele>596</ele>
        <time>2022-06-06T14:57:50Z</time>
      </trkpt>
      <trkpt lat="46.62602" lon="5.77705">
        <ele>597</ele>
        <time>2022-06-06T14:57:53Z</time>
      </trkpt>
      <trkpt lat="46.62602" lon="5.77679">
        <ele>597</ele>
        <time>2022-06-06T14:57:57Z</time>
      </trkpt>
      <trkpt lat="46.62605" lon="5.77665">
        <ele>597</ele>
        <time>2022-06-06T14:57:58Z</time>
      </trkpt>
      <trkpt lat="46.62624" lon="5.77595">
        <ele>596</ele>
        <time>2022-06-06T14:58:08Z</time>
      </trkpt>
      <trkpt lat="46.62627" lon="5.7758">
        <ele>597</ele>
        <time>2022-06-06T14:58:09Z</time>
      </trkpt>
      <trkpt lat="46.62628" lon="5.77553">
        <ele>597</ele>
        <time>2022-06-06T14:58:13Z</time>
      </trkpt>
      <trkpt lat="46.62627" lon="5.77534">
        <ele>597</ele>
        <time>2022-06-06T14:58:15Z</time>
      </trkpt>
      <trkpt lat="46.62625" lon="5.77522">
        <ele>596</ele>
        <time>2022-06-06T14:58:17Z</time>
      </trkpt>
      <trkpt lat="46.62563" lon="5.77335">
        <ele>595</ele>
        <time>2022-06-06T14:58:42Z</time>
      </trkpt>
      <trkpt lat="46.62549" lon="5.77274">
        <ele>595</ele>
        <time>2022-06-06T14:58:50Z</time>
      </trkpt>
      <trkpt lat="46.62538" lon="5.77244">
        <ele>595</ele>
        <time>2022-06-06T14:58:54Z</time>
      </trkpt>
      <trkpt lat="46.62485" lon="5.77152">
        <ele>595</ele>
        <time>2022-06-06T14:59:09Z</time>
      </trkpt>
      <trkpt lat="46.62461" lon="5.77118">
        <ele>595</ele>
        <time>2022-06-06T14:59:15Z</time>
      </trkpt>
      <trkpt lat="46.6245" lon="5.77099">
        <ele>595</ele>
        <time>2022-06-06T14:59:18Z</time>
      </trkpt>
      <trkpt lat="46.62446" lon="5.77085">
        <ele>595</ele>
        <time>2022-06-06T14:59:19Z</time>
      </trkpt>
      <trkpt lat="46.62432" lon="5.77013">
        <ele>595</ele>
        <time>2022-06-06T14:59:29Z</time>
      </trkpt>
      <trkpt lat="46.62426" lon="5.76973">
        <ele>597</ele>
        <time>2022-06-06T14:59:34Z</time>
      </trkpt>
      <trkpt lat="46.62417" lon="5.76934">
        <ele>598</ele>
        <time>2022-06-06T14:59:39Z</time>
      </trkpt>
      <trkpt lat="46.62389" lon="5.76857">
        <ele>600</ele>
        <time>2022-06-06T14:59:49Z</time>
      </trkpt>
      <trkpt lat="46.62375" lon="5.76838">
        <ele>600</ele>
        <time>2022-06-06T14:59:53Z</time>
      </trkpt>
      <trkpt lat="46.62368" lon="5.76823">
        <ele>600</ele>
        <time>2022-06-06T14:59:55Z</time>
      </trkpt>
      <trkpt lat="46.62366" lon="5.76812">
        <ele>600</ele>
        <time>2022-06-06T14:59:56Z</time>
      </trkpt>
      <trkpt lat="46.62365" lon="5.76786">
        <ele>600</ele>
        <time>2022-06-06T14:59:59Z</time>
      </trkpt>
      <trkpt lat="46.62367" lon="5.76685">
        <ele>602</ele>
        <time>2022-06-06T15:00:12Z</time>
      </trkpt>
      <trkpt lat="46.62365" lon="5.76673">
        <ele>602</ele>
        <time>2022-06-06T15:00:13Z</time>
      </trkpt>
      <trkpt lat="46.62359" lon="5.76654">
        <ele>603</ele>
        <time>2022-06-06T15:00:16Z</time>
      </trkpt>
      <trkpt lat="46.62344" lon="5.76641">
        <ele>604</ele>
        <time>2022-06-06T15:00:19Z</time>
      </trkpt>
      <trkpt lat="46.62289" lon="5.76619">
        <ele>603</ele>
        <time>2022-06-06T15:00:29Z</time>
      </trkpt>
      <trkpt lat="46.62274" lon="5.76606">
        <ele>603</ele>
        <time>2022-06-06T15:00:32Z</time>
      </trkpt>
      <trkpt lat="46.62267" lon="5.76594">
        <ele>603</ele>
        <time>2022-06-06T15:00:34Z</time>
      </trkpt>
      <trkpt lat="46.62262" lon="5.76583">
        <ele>603</ele>
        <time>2022-06-06T15:00:36Z</time>
      </trkpt>
      <trkpt lat="46.62239" lon="5.76503">
        <ele>606</ele>
        <time>2022-06-06T15:00:46Z</time>
      </trkpt>
      <trkpt lat="46.62218" lon="5.76439">
        <ele>604</ele>
        <time>2022-06-06T15:00:55Z</time>
      </trkpt>
      <trkpt lat="46.62209" lon="5.76401">
        <ele>603</ele>
        <time>2022-06-06T15:01:00Z</time>
      </trkpt>
      <trkpt lat="46.62199" lon="5.76346">
        <ele>602</ele>
        <time>2022-06-06T15:01:07Z</time>
      </trkpt>
      <trkpt lat="46.62191" lon="5.76317">
        <ele>602</ele>
        <time>2022-06-06T15:01:11Z</time>
      </trkpt>
      <trkpt lat="46.6218" lon="5.76295">
        <ele>601</ele>
        <time>2022-06-06T15:01:14Z</time>
      </trkpt>
      <trkpt lat="46.62149" lon="5.76242">
        <ele>597</ele>
        <time>2022-06-06T15:01:23Z</time>
      </trkpt>
      <trkpt lat="46.62138" lon="5.76219">
        <ele>597</ele>
        <time>2022-06-06T15:01:26Z</time>
      </trkpt>
      <trkpt lat="46.62123" lon="5.76168">
        <ele>596</ele>
        <time>2022-06-06T15:01:33Z</time>
      </trkpt>
      <trkpt lat="46.62098" lon="5.76111">
        <ele>592</ele>
        <time>2022-06-06T15:01:41Z</time>
      </trkpt>
      <trkpt lat="46.62083" lon="5.76063">
        <ele>589</ele>
        <time>2022-06-06T15:01:47Z</time>
      </trkpt>
      <trkpt lat="46.62078" lon="5.76023">
        <ele>586</ele>
        <time>2022-06-06T15:01:52Z</time>
      </trkpt>
      <trkpt lat="46.62069" lon="5.75917">
        <ele>580</ele>
        <time>2022-06-06T15:02:06Z</time>
      </trkpt>
      <trkpt lat="46.62051" lon="5.75842">
        <ele>567</ele>
        <time>2022-06-06T15:02:15Z</time>
      </trkpt>
      <trkpt lat="46.62047" lon="5.75808">
        <ele>564</ele>
        <time>2022-06-06T15:02:19Z</time>
      </trkpt>
      <trkpt lat="46.62046" lon="5.75761">
        <ele>563</ele>
        <time>2022-06-06T15:02:25Z</time>
      </trkpt>
      <trkpt lat="46.62048" lon="5.75742">
        <ele>563</ele>
        <time>2022-06-06T15:02:28Z</time>
      </trkpt>
      <trkpt lat="46.62061" lon="5.75667">
        <ele>561</ele>
        <time>2022-06-06T15:02:37Z</time>
      </trkpt>
      <trkpt lat="46.62065" lon="5.7562">
        <ele>557</ele>
        <time>2022-06-06T15:02:43Z</time>
      </trkpt>
      <trkpt lat="46.62067" lon="5.75608">
        <ele>556</ele>
        <time>2022-06-06T15:02:44Z</time>
      </trkpt>
      <trkpt lat="46.62071" lon="5.75595">
        <ele>556</ele>
        <time>2022-06-06T15:02:46Z</time>
      </trkpt>
      <trkpt lat="46.62078" lon="5.75584">
        <ele>558</ele>
        <time>2022-06-06T15:02:48Z</time>
      </trkpt>
      <trkpt lat="46.62087" lon="5.75575">
        <ele>558</ele>
        <time>2022-06-06T15:02:50Z</time>
      </trkpt>
      <trkpt lat="46.62096" lon="5.75569">
        <ele>558</ele>
        <time>2022-06-06T15:02:52Z</time>
      </trkpt>
      <trkpt lat="46.62121" lon="5.7556">
        <ele>560</ele>
        <time>2022-06-06T15:02:56Z</time>
      </trkpt>
      <trkpt lat="46.6219" lon="5.75553">
        <ele>566</ele>
        <time>2022-06-06T15:03:08Z</time>
      </trkpt>
      <trkpt lat="46.62211" lon="5.75549">
        <ele>567</ele>
        <time>2022-06-06T15:03:12Z</time>
      </trkpt>
      <trkpt lat="46.62256" lon="5.75525">
        <ele>561</ele>
        <time>2022-06-06T15:03:21Z</time>
      </trkpt>
      <trkpt lat="46.62422" lon="5.75426">
        <ele>546</ele>
        <time>2022-06-06T15:03:53Z</time>
      </trkpt>
      <trkpt lat="46.62442" lon="5.75419">
        <ele>545</ele>
        <time>2022-06-06T15:03:56Z</time>
      </trkpt>
      <trkpt lat="46.6247" lon="5.75418">
        <ele>547</ele>
        <time>2022-06-06T15:04:01Z</time>
      </trkpt>
      <trkpt lat="46.62478" lon="5.75411">
        <ele>546</ele>
        <time>2022-06-06T15:04:03Z</time>
      </trkpt>
      <trkpt lat="46.62488" lon="5.75396">
        <ele>544</ele>
        <time>2022-06-06T15:04:06Z</time>
      </trkpt>
      <trkpt lat="46.62495" lon="5.75379">
        <ele>541</ele>
        <time>2022-06-06T15:04:08Z</time>
      </trkpt>
      <trkpt lat="46.62506" lon="5.75359">
        <ele>539</ele>
        <time>2022-06-06T15:04:11Z</time>
      </trkpt>
      <trkpt lat="46.62542" lon="5.7531">
        <ele>537</ele>
        <time>2022-06-06T15:04:20Z</time>
      </trkpt>
      <trkpt lat="46.62555" lon="5.75297">
        <ele>536</ele>
        <time>2022-06-06T15:04:23Z</time>
      </trkpt>
      <trkpt lat="46.6259" lon="5.75271">
        <ele>535</ele>
        <time>2022-06-06T15:04:30Z</time>
      </trkpt>
      <trkpt lat="46.62595" lon="5.75264">
        <ele>535</ele>
        <time>2022-06-06T15:04:31Z</time>
      </trkpt>
      <trkpt lat="46.62599" lon="5.75257">
        <ele>534</ele>
        <time>2022-06-06T15:04:32Z</time>
      </trkpt>
      <trkpt lat="46.62601" lon="5.75241">
        <ele>531</ele>
        <time>2022-06-06T15:04:34Z</time>
      </trkpt>
      <trkpt lat="46.626" lon="5.75232">
        <ele>530</ele>
        <time>2022-06-06T15:04:35Z</time>
      </trkpt>
      <trkpt lat="46.62596" lon="5.75223">
        <ele>528</ele>
        <time>2022-06-06T15:04:36Z</time>
      </trkpt>
      <trkpt lat="46.62621" lon="5.7519">
        <ele>528</ele>
        <time>2022-06-06T15:04:42Z</time>
      </trkpt>
      <trkpt lat="46.62637" lon="5.75167">
        <ele>525</ele>
        <time>2022-06-06T15:04:46Z</time>
      </trkpt>
      <trkpt lat="46.62676" lon="5.75126">
        <ele>525</ele>
        <time>2022-06-06T15:04:55Z</time>
      </trkpt>
      <trkpt lat="46.62721" lon="5.75087">
        <ele>524</ele>
        <time>2022-06-06T15:05:04Z</time>
      </trkpt>
      <trkpt lat="46.62771" lon="5.75038">
        <ele>525</ele>
        <time>2022-06-06T15:05:15Z</time>
      </trkpt>
      <trkpt lat="46.62791" lon="5.75022">
        <ele>525</ele>
        <time>2022-06-06T15:05:19Z</time>
      </trkpt>
      <trkpt lat="46.62829" lon="5.74998">
        <ele>522</ele>
        <time>2022-06-06T15:05:26Z</time>
      </trkpt>
      <trkpt lat="46.62914" lon="5.74969">
        <ele>519</ele>
        <time>2022-06-06T15:05:42Z</time>
      </trkpt>
      <trkpt lat="46.62983" lon="5.74955">
        <ele>521</ele>
        <time>2022-06-06T15:05:54Z</time>
      </trkpt>
      <trkpt lat="46.63003" lon="5.74948">
        <ele>521</ele>
        <time>2022-06-06T15:05:58Z</time>
      </trkpt>
      <trkpt lat="46.63056" lon="5.74916">
        <ele>519</ele>
        <time>2022-06-06T15:06:08Z</time>
      </trkpt>
      <trkpt lat="46.63103" lon="5.74893">
        <ele>519</ele>
        <time>2022-06-06T15:06:17Z</time>
      </trkpt>
      <trkpt lat="46.63238" lon="5.74856">
        <ele>520</ele>
        <time>2022-06-06T15:06:41Z</time>
      </trkpt>
      <trkpt lat="46.63302" lon="5.74843">
        <ele>514</ele>
        <time>2022-06-06T15:06:53Z</time>
      </trkpt>
      <trkpt lat="46.63361" lon="5.74841">
        <ele>507</ele>
        <time>2022-06-06T15:07:03Z</time>
      </trkpt>
      <trkpt lat="46.63384" lon="5.74847">
        <ele>505</ele>
        <time>2022-06-06T15:07:08Z</time>
      </trkpt>
      <trkpt lat="46.63401" lon="5.7486">
        <ele>505</ele>
        <time>2022-06-06T15:07:11Z</time>
      </trkpt>
      <trkpt lat="46.63413" lon="5.74875">
        <ele>505</ele>
        <time>2022-06-06T15:07:14Z</time>
      </trkpt>
      <trkpt lat="46.63425" lon="5.74903">
        <ele>508</ele>
        <time>2022-06-06T15:07:18Z</time>
      </trkpt>
      <trkpt lat="46.63431" lon="5.74931">
        <ele>511</ele>
        <time>2022-06-06T15:07:22Z</time>
      </trkpt>
      <trkpt lat="46.63458" lon="5.75152">
        <ele>526</ele>
        <time>2022-06-06T15:07:49Z</time>
      </trkpt>
      <trkpt lat="46.63462" lon="5.75172">
        <ele>528</ele>
        <time>2022-06-06T15:07:51Z</time>
      </trkpt>
      <trkpt lat="46.63465" lon="5.75181">
        <ele>528</ele>
        <time>2022-06-06T15:07:53Z</time>
      </trkpt>
      <trkpt lat="46.63514" lon="5.75246">
        <ele>520</ele>
        <time>2022-06-06T15:08:04Z</time>
      </trkpt>
      <trkpt lat="46.6355" lon="5.75286">
        <ele>529</ele>
        <time>2022-06-06T15:08:13Z</time>
      </trkpt>
      <trkpt lat="46.63565" lon="5.75299">
        <ele>530</ele>
        <time>2022-06-06T15:08:16Z</time>
      </trkpt>
      <trkpt lat="46.63575" lon="5.75302">
        <ele>528</ele>
        <time>2022-06-06T15:08:17Z</time>
      </trkpt>
      <trkpt lat="46.63584" lon="5.75303">
        <ele>526</ele>
        <time>2022-06-06T15:08:19Z</time>
      </trkpt>
      <trkpt lat="46.636" lon="5.75298">
        <ele>526</ele>
        <time>2022-06-06T15:08:22Z</time>
      </trkpt>
      <trkpt lat="46.63613" lon="5.75288">
        <ele>524</ele>
        <time>2022-06-06T15:08:25Z</time>
      </trkpt>
      <trkpt lat="46.6371" lon="5.75201">
        <ele>512</ele>
        <time>2022-06-06T15:08:45Z</time>
      </trkpt>
      <trkpt lat="46.63743" lon="5.75183">
        <ele>511</ele>
        <time>2022-06-06T15:08:51Z</time>
      </trkpt>
      <trkpt lat="46.63768" lon="5.75176">
        <ele>510</ele>
        <time>2022-06-06T15:08:56Z</time>
      </trkpt>
      <trkpt lat="46.6382" lon="5.75173">
        <ele>513</ele>
        <time>2022-06-06T15:09:05Z</time>
      </trkpt>
      <trkpt lat="46.63847" lon="5.75176">
        <ele>514</ele>
        <time>2022-06-06T15:09:10Z</time>
      </trkpt>
      <trkpt lat="46.63865" lon="5.75182">
        <ele>515</ele>
        <time>2022-06-06T15:09:13Z</time>
      </trkpt>
      <trkpt lat="46.63966" lon="5.75224">
        <ele>520</ele>
        <time>2022-06-06T15:09:32Z</time>
      </trkpt>
      <trkpt lat="46.64007" lon="5.75242">
        <ele>518</ele>
        <time>2022-06-06T15:09:39Z</time>
      </trkpt>
      <trkpt lat="46.64029" lon="5.75256">
        <ele>518</ele>
        <time>2022-06-06T15:09:44Z</time>
      </trkpt>
      <trkpt lat="46.64049" lon="5.75273">
        <ele>519</ele>
        <time>2022-06-06T15:09:48Z</time>
      </trkpt>
      <trkpt lat="46.64141" lon="5.75357">
        <ele>524</ele>
        <time>2022-06-06T15:10:07Z</time>
      </trkpt>
      <trkpt lat="46.64312" lon="5.75471">
        <ele>523</ele>
        <time>2022-06-06T15:10:41Z</time>
      </trkpt>
      <trkpt lat="46.64351" lon="5.75508">
        <ele>523</ele>
        <time>2022-06-06T15:10:49Z</time>
      </trkpt>
      <trkpt lat="46.64445" lon="5.7561">
        <ele>525</ele>
        <time>2022-06-06T15:11:10Z</time>
      </trkpt>
      <trkpt lat="46.64465" lon="5.75627">
        <ele>525</ele>
        <time>2022-06-06T15:11:14Z</time>
      </trkpt>
      <trkpt lat="46.64476" lon="5.75634">
        <ele>524</ele>
        <time>2022-06-06T15:11:16Z</time>
      </trkpt>
      <trkpt lat="46.64496" lon="5.75642">
        <ele>521</ele>
        <time>2022-06-06T15:11:20Z</time>
      </trkpt>
      <trkpt lat="46.64537" lon="5.75648">
        <ele>517</ele>
        <time>2022-06-06T15:11:27Z</time>
      </trkpt>
      <trkpt lat="46.6455" lon="5.75653">
        <ele>516</ele>
        <time>2022-06-06T15:11:29Z</time>
      </trkpt>
      <trkpt lat="46.64557" lon="5.75659">
        <ele>516</ele>
        <time>2022-06-06T15:11:31Z</time>
      </trkpt>
      <trkpt lat="46.64564" lon="5.75667">
        <ele>516</ele>
        <time>2022-06-06T15:11:32Z</time>
      </trkpt>
      <trkpt lat="46.64572" lon="5.75685">
        <ele>517</ele>
        <time>2022-06-06T15:11:35Z</time>
      </trkpt>
      <trkpt lat="46.64593" lon="5.75746">
        <ele>520</ele>
        <time>2022-06-06T15:11:43Z</time>
      </trkpt>
      <trkpt lat="46.64607" lon="5.75771">
        <ele>521</ele>
        <time>2022-06-06T15:11:47Z</time>
      </trkpt>
      <trkpt lat="46.64639" lon="5.75816">
        <ele>522</ele>
        <time>2022-06-06T15:11:55Z</time>
      </trkpt>
      <trkpt lat="46.64674" lon="5.75876">
        <ele>521</ele>
        <time>2022-06-06T15:12:05Z</time>
      </trkpt>
      <trkpt lat="46.64696" lon="5.75905">
        <ele>521</ele>
        <time>2022-06-06T15:12:10Z</time>
      </trkpt>
      <trkpt lat="46.64715" lon="5.75937">
        <ele>521</ele>
        <time>2022-06-06T15:12:15Z</time>
      </trkpt>
      <trkpt lat="46.64746" lon="5.76">
        <ele>521</ele>
        <time>2022-06-06T15:12:25Z</time>
      </trkpt>
      <trkpt lat="46.64763" lon="5.76044">
        <ele>522</ele>
        <time>2022-06-06T15:12:31Z</time>
      </trkpt>
      <trkpt lat="46.64773" lon="5.7608">
        <ele>523</ele>
        <time>2022-06-06T15:12:36Z</time>
      </trkpt>
      <trkpt lat="46.64776" lon="5.76097">
        <ele>523</ele>
        <time>2022-06-06T15:12:38Z</time>
      </trkpt>
      <trkpt lat="46.64778" lon="5.76115">
        <ele>523</ele>
        <time>2022-06-06T15:12:40Z</time>
      </trkpt>
      <trkpt lat="46.64777" lon="5.7613">
        <ele>523</ele>
        <time>2022-06-06T15:12:42Z</time>
      </trkpt>
      <trkpt lat="46.64774" lon="5.7616">
        <ele>523</ele>
        <time>2022-06-06T15:12:46Z</time>
      </trkpt>
      <trkpt lat="46.64728" lon="5.76393">
        <ele>539</ele>
        <time>2022-06-06T15:13:15Z</time>
      </trkpt>
      <trkpt lat="46.64724" lon="5.76419">
        <ele>541</ele>
        <time>2022-06-06T15:13:18Z</time>
      </trkpt>
      <trkpt lat="46.64721" lon="5.76481">
        <ele>542</ele>
        <time>2022-06-06T15:13:26Z</time>
      </trkpt>
      <trkpt lat="46.64721" lon="5.76513">
        <ele>542</ele>
        <time>2022-06-06T15:13:30Z</time>
      </trkpt>
      <trkpt lat="46.64724" lon="5.76547">
        <ele>541</ele>
        <time>2022-06-06T15:13:34Z</time>
      </trkpt>
      <trkpt lat="46.64733" lon="5.766">
        <ele>539</ele>
        <time>2022-06-06T15:13:41Z</time>
      </trkpt>
      <trkpt lat="46.64755" lon="5.76673">
        <ele>537</ele>
        <time>2022-06-06T15:13:50Z</time>
      </trkpt>
      <trkpt lat="46.64781" lon="5.76748">
        <ele>540</ele>
        <time>2022-06-06T15:14:01Z</time>
      </trkpt>
      <trkpt lat="46.64788" lon="5.76784">
        <ele>541</ele>
        <time>2022-06-06T15:14:05Z</time>
      </trkpt>
      <trkpt lat="46.64805" lon="5.7692">
        <ele>542</ele>
        <time>2022-06-06T15:14:22Z</time>
      </trkpt>
      <trkpt lat="46.6481" lon="5.76939">
        <ele>542</ele>
        <time>2022-06-06T15:14:25Z</time>
      </trkpt>
      <trkpt lat="46.64874" lon="5.77032">
        <ele>532</ele>
        <time>2022-06-06T15:14:41Z</time>
      </trkpt>
      <trkpt lat="46.64885" lon="5.7706">
        <ele>530</ele>
        <time>2022-06-06T15:14:45Z</time>
      </trkpt>
      <trkpt lat="46.64883" lon="5.77087">
        <ele>529</ele>
        <time>2022-06-06T15:14:48Z</time>
      </trkpt>
      <trkpt lat="46.64875" lon="5.77112">
        <ele>529</ele>
        <time>2022-06-06T15:14:51Z</time>
      </trkpt>
      <trkpt lat="46.64756" lon="5.77456">
        <ele>528</ele>
        <time>2022-06-06T15:15:38Z</time>
      </trkpt>
      <trkpt lat="46.64754" lon="5.77467">
        <ele>526</ele>
        <time>2022-06-06T15:15:40Z</time>
      </trkpt>
      <trkpt lat="46.64752" lon="5.7749">
        <ele>521</ele>
        <time>2022-06-06T15:15:43Z</time>
      </trkpt>
      <trkpt lat="46.64755" lon="5.77504">
        <ele>518</ele>
        <time>2022-06-06T15:15:44Z</time>
      </trkpt>
      <trkpt lat="46.64761" lon="5.77518">
        <ele>515</ele>
        <time>2022-06-06T15:15:46Z</time>
      </trkpt>
      <trkpt lat="46.64769" lon="5.77528">
        <ele>513</ele>
        <time>2022-06-06T15:15:48Z</time>
      </trkpt>
      <trkpt lat="46.64774" lon="5.77532">
        <ele>511</ele>
        <time>2022-06-06T15:15:49Z</time>
      </trkpt>
      <trkpt lat="46.64783" lon="5.77536">
        <ele>510</ele>
        <time>2022-06-06T15:15:51Z</time>
      </trkpt>
      <trkpt lat="46.64799" lon="5.77536">
        <ele>507</ele>
        <time>2022-06-06T15:15:54Z</time>
      </trkpt>
      <trkpt lat="46.6482" lon="5.77531">
        <ele>504</ele>
        <time>2022-06-06T15:15:58Z</time>
      </trkpt>
      <trkpt lat="46.65007" lon="5.77484">
        <ele>509</ele>
        <time>2022-06-06T15:16:31Z</time>
      </trkpt>
      <trkpt lat="46.65057" lon="5.77476">
        <ele>511</ele>
        <time>2022-06-06T15:16:40Z</time>
      </trkpt>
      <trkpt lat="46.65082" lon="5.77479">
        <ele>513</ele>
        <time>2022-06-06T15:16:45Z</time>
      </trkpt>
      <trkpt lat="46.65174" lon="5.77509">
        <ele>514</ele>
        <time>2022-06-06T15:17:02Z</time>
      </trkpt>
      <trkpt lat="46.65204" lon="5.77531">
        <ele>514</ele>
        <time>2022-06-06T15:17:08Z</time>
      </trkpt>
      <trkpt lat="46.65308" lon="5.77643">
        <ele>516</ele>
        <time>2022-06-06T15:17:31Z</time>
      </trkpt>
      <trkpt lat="46.65463" lon="5.77829">
        <ele>515</ele>
        <time>2022-06-06T15:18:06Z</time>
      </trkpt>
      <trkpt lat="46.65477" lon="5.77845">
        <ele>517</ele>
        <time>2022-06-06T15:18:10Z</time>
      </trkpt>
      <trkpt lat="46.65496" lon="5.77863">
        <ele>520</ele>
        <time>2022-06-06T15:18:14Z</time>
      </trkpt>
      <trkpt lat="46.65506" lon="5.77869">
        <ele>521</ele>
        <time>2022-06-06T15:18:15Z</time>
      </trkpt>
      <trkpt lat="46.65516" lon="5.77872">
        <ele>521</ele>
        <time>2022-06-06T15:18:17Z</time>
      </trkpt>
      <trkpt lat="46.65538" lon="5.77872">
        <ele>521</ele>
        <time>2022-06-06T15:18:21Z</time>
      </trkpt>
      <trkpt lat="46.65597" lon="5.77853">
        <ele>522</ele>
        <time>2022-06-06T15:18:32Z</time>
      </trkpt>
      <trkpt lat="46.65688" lon="5.77819">
        <ele>523</ele>
        <time>2022-06-06T15:18:49Z</time>
      </trkpt>
      <trkpt lat="46.65718" lon="5.77795">
        <ele>523</ele>
        <time>2022-06-06T15:18:55Z</time>
      </trkpt>
      <trkpt lat="46.65785" lon="5.77726">
        <ele>523</ele>
        <time>2022-06-06T15:19:09Z</time>
      </trkpt>
      <trkpt lat="46.65798" lon="5.77719">
        <ele>523</ele>
        <time>2022-06-06T15:19:12Z</time>
      </trkpt>
      <trkpt lat="46.6581" lon="5.77716">
        <ele>523</ele>
        <time>2022-06-06T15:19:14Z</time>
      </trkpt>
      <trkpt lat="46.65847" lon="5.7772">
        <ele>524</ele>
        <time>2022-06-06T15:19:21Z</time>
      </trkpt>
      <trkpt lat="46.65861" lon="5.77713">
        <ele>524</ele>
        <time>2022-06-06T15:19:23Z</time>
      </trkpt>
      <trkpt lat="46.66102" lon="5.77555">
        <ele>523</ele>
        <time>2022-06-06T15:20:10Z</time>
      </trkpt>
      <trkpt lat="46.6616" lon="5.77503">
        <ele>523</ele>
        <time>2022-06-06T15:20:22Z</time>
      </trkpt>
      <trkpt lat="46.66216" lon="5.7745">
        <ele>522</ele>
        <time>2022-06-06T15:20:34Z</time>
      </trkpt>
      <trkpt lat="46.66451" lon="5.77238">
        <ele>523</ele>
        <time>2022-06-06T15:21:23Z</time>
      </trkpt>
      <trkpt lat="46.66483" lon="5.77207">
        <ele>522</ele>
        <time>2022-06-06T15:21:30Z</time>
      </trkpt>
      <trkpt lat="46.665" lon="5.7718">
        <ele>521</ele>
        <time>2022-06-06T15:21:35Z</time>
      </trkpt>
      <trkpt lat="46.66514" lon="5.77143">
        <ele>519</ele>
        <time>2022-06-06T15:21:40Z</time>
      </trkpt>
      <trkpt lat="46.66548" lon="5.7702">
        <ele>516</ele>
        <time>2022-06-06T15:21:56Z</time>
      </trkpt>
      <trkpt lat="46.66556" lon="5.76996">
        <ele>515</ele>
        <time>2022-06-06T15:21:59Z</time>
      </trkpt>
      <trkpt lat="46.66646" lon="5.76781">
        <ele>509</ele>
        <time>2022-06-06T15:22:30Z</time>
      </trkpt>
      <trkpt lat="46.66665" lon="5.76756">
        <ele>506</ele>
        <time>2022-06-06T15:22:35Z</time>
      </trkpt>
      <trkpt lat="46.66679" lon="5.76742">
        <ele>505</ele>
        <time>2022-06-06T15:22:38Z</time>
      </trkpt>
      <trkpt lat="46.6669" lon="5.76736">
        <ele>505</ele>
        <time>2022-06-06T15:22:40Z</time>
      </trkpt>
      <trkpt lat="46.66706" lon="5.76731">
        <ele>504</ele>
        <time>2022-06-06T15:22:43Z</time>
      </trkpt>
      <trkpt lat="46.66728" lon="5.76731">
        <ele>502</ele>
        <time>2022-06-06T15:22:47Z</time>
      </trkpt>
      <trkpt lat="46.66751" lon="5.76737">
        <ele>500</ele>
        <time>2022-06-06T15:22:51Z</time>
      </trkpt>
      <trkpt lat="46.67218" lon="5.76922">
        <ele>491</ele>
        <time>2022-06-06T15:24:17Z</time>
      </trkpt>
      <trkpt lat="46.67251" lon="5.76937">
        <ele>492</ele>
        <time>2022-06-06T15:24:23Z</time>
      </trkpt>
      <trkpt lat="46.67276" lon="5.76954">
        <ele>492</ele>
        <time>2022-06-06T15:24:28Z</time>
      </trkpt>
      <trkpt lat="46.67297" lon="5.76976">
        <ele>491</ele>
        <time>2022-06-06T15:24:33Z</time>
      </trkpt>
      <trkpt lat="46.67605" lon="5.7738">
        <ele>491</ele>
        <time>2022-06-06T15:25:46Z</time>
      </trkpt>
      <trkpt lat="46.67623" lon="5.77405">
        <ele>491</ele>
        <time>2022-06-06T15:25:51Z</time>
      </trkpt>
      <trkpt lat="46.67631" lon="5.7742">
        <ele>491</ele>
        <time>2022-06-06T15:25:53Z</time>
      </trkpt>
      <trkpt lat="46.67638" lon="5.77434">
        <ele>491</ele>
        <time>2022-06-06T15:25:55Z</time>
      </trkpt>
      <trkpt lat="46.67645" lon="5.77452">
        <ele>491</ele>
        <time>2022-06-06T15:25:58Z</time>
      </trkpt>
      <trkpt lat="46.67656" lon="5.77494">
        <ele>491</ele>
        <time>2022-06-06T15:26:03Z</time>
      </trkpt>
      <trkpt lat="46.67719" lon="5.7791">
        <ele>492</ele>
        <time>2022-06-06T15:26:55Z</time>
      </trkpt>
      <trkpt lat="46.67725" lon="5.77932">
        <ele>492</ele>
        <time>2022-06-06T15:26:58Z</time>
      </trkpt>
      <trkpt lat="46.67735" lon="5.77957">
        <ele>492</ele>
        <time>2022-06-06T15:27:02Z</time>
      </trkpt>
      <trkpt lat="46.67749" lon="5.77978">
        <ele>492</ele>
        <time>2022-06-06T15:27:05Z</time>
      </trkpt>
      <trkpt lat="46.67775" lon="5.77997">
        <ele>492</ele>
        <time>2022-06-06T15:27:10Z</time>
      </trkpt>
      <trkpt lat="46.6779" lon="5.78003">
        <ele>492</ele>
        <time>2022-06-06T15:27:13Z</time>
      </trkpt>
      <trkpt lat="46.67805" lon="5.78004">
        <ele>492</ele>
        <time>2022-06-06T15:27:16Z</time>
      </trkpt>
      <trkpt lat="46.67963" lon="5.77969">
        <ele>488</ele>
        <time>2022-06-06T15:27:44Z</time>
      </trkpt>
      <trkpt lat="46.67993" lon="5.77951">
        <ele>487</ele>
        <time>2022-06-06T15:27:50Z</time>
      </trkpt>
      <trkpt lat="46.68076" lon="5.77878">
        <ele>490</ele>
        <time>2022-06-06T15:28:07Z</time>
      </trkpt>
      <trkpt lat="46.6809" lon="5.77868">
        <ele>490</ele>
        <time>2022-06-06T15:28:10Z</time>
      </trkpt>
      <trkpt lat="46.68104" lon="5.77861">
        <ele>490</ele>
        <time>2022-06-06T15:28:13Z</time>
      </trkpt>
      <trkpt lat="46.68117" lon="5.77857">
        <ele>490</ele>
        <time>2022-06-06T15:28:15Z</time>
      </trkpt>
      <trkpt lat="46.68156" lon="5.77855">
        <ele>492</ele>
        <time>2022-06-06T15:28:22Z</time>
      </trkpt>
      <trkpt lat="46.68317" lon="5.77857">
        <ele>496</ele>
        <time>2022-06-06T15:28:51Z</time>
      </trkpt>
      <trkpt lat="46.68432" lon="5.77859">
        <ele>499</ele>
        <time>2022-06-06T15:29:11Z</time>
      </trkpt>
      <trkpt lat="46.68479" lon="5.7787">
        <ele>500</ele>
        <time>2022-06-06T15:29:19Z</time>
      </trkpt>
      <trkpt lat="46.69008" lon="5.78105">
        <ele>498</ele>
        <time>2022-06-06T15:30:58Z</time>
      </trkpt>
      <trkpt lat="46.69036" lon="5.78122">
        <ele>497</ele>
        <time>2022-06-06T15:31:03Z</time>
      </trkpt>
      <trkpt lat="46.69017" lon="5.78138">
        <ele>498</ele>
        <time>2022-06-06T15:31:07Z</time>
      </trkpt>
      <trkpt lat="46.69019" lon="5.78145">
        <ele>498</ele>
        <time>2022-06-06T15:31:08Z</time>
      </trkpt>
      <trkpt lat="46.69025" lon="5.78151">
        <ele>497</ele>
        <time>2022-06-06T15:31:09Z</time>
      </trkpt>
      <trkpt lat="46.69039" lon="5.78153">
        <ele>497</ele>
        <time>2022-06-06T15:31:12Z</time>
      </trkpt>
      <trkpt lat="46.69056" lon="5.78165">
        <ele>497</ele>
        <time>2022-06-06T15:31:15Z</time>
      </trkpt>
      <trkpt lat="46.69096" lon="5.78211">
        <ele>495</ele>
        <time>2022-06-06T15:31:24Z</time>
      </trkpt>
      <trkpt lat="46.69337" lon="5.78504">
        <ele>485</ele>
        <time>2022-06-06T15:32:20Z</time>
      </trkpt>
      <trkpt lat="46.69338" lon="5.7851">
        <ele>485</ele>
        <time>2022-06-06T15:32:21Z</time>
      </trkpt>
      <trkpt lat="46.69339" lon="5.78519">
        <ele>486</ele>
        <time>2022-06-06T15:32:22Z</time>
      </trkpt>
      <trkpt lat="46.6934" lon="5.78524">
        <ele>486</ele>
        <time>2022-06-06T15:32:23Z</time>
      </trkpt>
      <trkpt lat="46.69344" lon="5.78529">
        <ele>486</ele>
        <time>2022-06-06T15:32:24Z</time>
      </trkpt>
      <trkpt lat="46.69394" lon="5.78556">
        <ele>485</ele>
        <time>2022-06-06T15:32:33Z</time>
      </trkpt>
      <trkpt lat="46.69482" lon="5.78574">
        <ele>484</ele>
        <time>2022-06-06T15:32:49Z</time>
      </trkpt>
      <trkpt lat="46.69539" lon="5.78594">
        <ele>484</ele>
        <time>2022-06-06T15:32:59Z</time>
      </trkpt>
      <trkpt lat="46.69575" lon="5.78612">
        <ele>485</ele>
        <time>2022-06-06T15:33:06Z</time>
      </trkpt>
      <trkpt lat="46.69621" lon="5.78627">
        <ele>486</ele>
        <time>2022-06-06T15:33:14Z</time>
      </trkpt>
      <trkpt lat="46.69661" lon="5.78638">
        <ele>485</ele>
        <time>2022-06-06T15:33:22Z</time>
      </trkpt>
      <trkpt lat="46.69699" lon="5.78658">
        <ele>485</ele>
        <time>2022-06-06T15:33:29Z</time>
      </trkpt>
      <trkpt lat="46.6971" lon="5.78655">
        <ele>486</ele>
        <time>2022-06-06T15:33:31Z</time>
      </trkpt>
      <trkpt lat="46.69792" lon="5.78682">
        <ele>488</ele>
        <time>2022-06-06T15:33:46Z</time>
      </trkpt>
      <trkpt lat="46.69826" lon="5.7869">
        <ele>489</ele>
        <time>2022-06-06T15:33:52Z</time>
      </trkpt>
      <trkpt lat="46.69856" lon="5.78693">
        <ele>490</ele>
        <time>2022-06-06T15:33:57Z</time>
      </trkpt>
      <trkpt lat="46.70716" lon="5.78664">
        <ele>493</ele>
        <time>2022-06-06T15:36:30Z</time>
      </trkpt>
      <trkpt lat="46.70778" lon="5.78653">
        <ele>493</ele>
        <time>2022-06-06T15:36:42Z</time>
      </trkpt>
      <trkpt lat="46.70811" lon="5.7865">
        <ele>493</ele>
        <time>2022-06-06T15:36:47Z</time>
      </trkpt>
      <trkpt lat="46.7087" lon="5.78651">
        <ele>493</ele>
        <time>2022-06-06T15:36:58Z</time>
      </trkpt>
      <trkpt lat="46.70929" lon="5.78656">
        <ele>493</ele>
        <time>2022-06-06T15:37:08Z</time>
      </trkpt>
      <trkpt lat="46.71073" lon="5.78652">
        <ele>493</ele>
        <time>2022-06-06T15:37:34Z</time>
      </trkpt>
      <trkpt lat="46.71073" lon="5.78645">
        <ele>493</ele>
        <time>2022-06-06T15:37:35Z</time>
      </trkpt>
      <trkpt lat="46.71118" lon="5.78643">
        <ele>493</ele>
        <time>2022-06-06T15:37:43Z</time>
      </trkpt>
      <trkpt lat="46.7113" lon="5.78638">
        <ele>493</ele>
        <time>2022-06-06T15:37:45Z</time>
      </trkpt>
      <trkpt lat="46.71229" lon="5.78563">
        <ele>492</ele>
        <time>2022-06-06T15:38:05Z</time>
      </trkpt>
      <trkpt lat="46.71304" lon="5.78501">
        <ele>490</ele>
        <time>2022-06-06T15:38:20Z</time>
      </trkpt>
      <trkpt lat="46.71321" lon="5.7849">
        <ele>490</ele>
        <time>2022-06-06T15:38:24Z</time>
      </trkpt>
      <trkpt lat="46.71336" lon="5.78486">
        <ele>489</ele>
        <time>2022-06-06T15:38:26Z</time>
      </trkpt>
      <trkpt lat="46.7135" lon="5.78487">
        <ele>488</ele>
        <time>2022-06-06T15:38:29Z</time>
      </trkpt>
      <trkpt lat="46.71366" lon="5.78493">
        <ele>487</ele>
        <time>2022-06-06T15:38:32Z</time>
      </trkpt>
      <trkpt lat="46.714" lon="5.78519">
        <ele>485</ele>
        <time>2022-06-06T15:38:39Z</time>
      </trkpt>
      <trkpt lat="46.71476" lon="5.7858">
        <ele>481</ele>
        <time>2022-06-06T15:38:54Z</time>
      </trkpt>
      <trkpt lat="46.71493" lon="5.78591">
        <ele>480</ele>
        <time>2022-06-06T15:38:57Z</time>
      </trkpt>
      <trkpt lat="46.71514" lon="5.78597">
        <ele>480</ele>
        <time>2022-06-06T15:39:01Z</time>
      </trkpt>
      <trkpt lat="46.71532" lon="5.78596">
        <ele>480</ele>
        <time>2022-06-06T15:39:04Z</time>
      </trkpt>
      <trkpt lat="46.72038" lon="5.78533">
        <ele>465</ele>
        <time>2022-06-06T15:40:35Z</time>
      </trkpt>
      <trkpt lat="46.72632" lon="5.78456">
        <ele>467</ele>
        <time>2022-06-06T15:42:21Z</time>
      </trkpt>
      <trkpt lat="46.72649" lon="5.78457">
        <ele>467</ele>
        <time>2022-06-06T15:42:24Z</time>
      </trkpt>
      <trkpt lat="46.72671" lon="5.78469">
        <ele>468</ele>
        <time>2022-06-06T15:42:28Z</time>
      </trkpt>
      <trkpt lat="46.72639" lon="5.78601">
        <ele>471</ele>
        <time>2022-06-06T15:42:45Z</time>
      </trkpt>
      <trkpt lat="46.72631" lon="5.78623">
        <ele>471</ele>
        <time>2022-06-06T15:42:48Z</time>
      </trkpt>
      <trkpt lat="46.7261" lon="5.78665">
        <ele>472</ele>
        <time>2022-06-06T15:42:54Z</time>
      </trkpt>
      <trkpt lat="46.72474" lon="5.78936">
        <ele>479</ele>
        <time>2022-06-06T15:43:35Z</time>
      </trkpt>
      <trkpt lat="46.7246" lon="5.78972">
        <ele>481</ele>
        <time>2022-06-06T15:43:40Z</time>
      </trkpt>
      <trkpt lat="46.72452" lon="5.78999">
        <ele>484</ele>
        <time>2022-06-06T15:43:44Z</time>
      </trkpt>
      <trkpt lat="46.72445" lon="5.79035">
        <ele>486</ele>
        <time>2022-06-06T15:43:49Z</time>
      </trkpt>
      <trkpt lat="46.72442" lon="5.79071">
        <ele>487</ele>
        <time>2022-06-06T15:43:53Z</time>
      </trkpt>
      <trkpt lat="46.72443" lon="5.79109">
        <ele>488</ele>
        <time>2022-06-06T15:43:58Z</time>
      </trkpt>
      <trkpt lat="46.72446" lon="5.79137">
        <ele>490</ele>
        <time>2022-06-06T15:44:01Z</time>
      </trkpt>
      <trkpt lat="46.72453" lon="5.79165">
        <ele>490</ele>
        <time>2022-06-06T15:44:05Z</time>
      </trkpt>
      <trkpt lat="46.72486" lon="5.79266">
        <ele>491</ele>
        <time>2022-06-06T15:44:18Z</time>
      </trkpt>
      <trkpt lat="46.72668" lon="5.79775">
        <ele>513</ele>
        <time>2022-06-06T15:45:28Z</time>
      </trkpt>
      <trkpt lat="46.72683" lon="5.79829">
        <ele>514</ele>
        <time>2022-06-06T15:45:36Z</time>
      </trkpt>
      <trkpt lat="46.72704" lon="5.79958">
        <ele>516</ele>
        <time>2022-06-06T15:45:52Z</time>
      </trkpt>
      <trkpt lat="46.72745" lon="5.80527">
        <ele>524</ele>
        <time>2022-06-06T15:47:02Z</time>
      </trkpt>
      <trkpt lat="46.7277" lon="5.80891">
        <ele>526</ele>
        <time>2022-06-06T15:47:46Z</time>
      </trkpt>
      <trkpt lat="46.72809" lon="5.81517">
        <ele>528</ele>
        <time>2022-06-06T15:49:03Z</time>
      </trkpt>
      <trkpt lat="46.72837" lon="5.8189">
        <ele>536</ele>
        <time>2022-06-06T15:49:49Z</time>
      </trkpt>
      <trkpt lat="46.72845" lon="5.82056">
        <ele>541</ele>
        <time>2022-06-06T15:50:09Z</time>
      </trkpt>
      <trkpt lat="46.72844" lon="5.82144">
        <ele>545</ele>
        <time>2022-06-06T15:50:20Z</time>
      </trkpt>
      <trkpt lat="46.72834" lon="5.82378">
        <ele>541</ele>
        <time>2022-06-06T15:50:48Z</time>
      </trkpt>
      <trkpt lat="46.72834" lon="5.82425">
        <ele>541</ele>
        <time>2022-06-06T15:50:54Z</time>
      </trkpt>
      <trkpt lat="46.72852" lon="5.82651">
        <ele>545</ele>
        <time>2022-06-06T15:51:22Z</time>
      </trkpt>
      <trkpt lat="46.72858" lon="5.82853">
        <ele>547</ele>
        <time>2022-06-06T15:51:46Z</time>
      </trkpt>
      <trkpt lat="46.72876" lon="5.83068">
        <ele>554</ele>
        <time>2022-06-06T15:52:13Z</time>
      </trkpt>
      <trkpt lat="46.72881" lon="5.83246">
        <ele>555</ele>
        <time>2022-06-06T15:52:34Z</time>
      </trkpt>
      <trkpt lat="46.72886" lon="5.83314">
        <ele>556</ele>
        <time>2022-06-06T15:52:43Z</time>
      </trkpt>
      <trkpt lat="46.72893" lon="5.83365">
        <ele>557</ele>
        <time>2022-06-06T15:52:49Z</time>
      </trkpt>
      <trkpt lat="46.7294" lon="5.83671">
        <ele>566</ele>
        <time>2022-06-06T15:53:27Z</time>
      </trkpt>
      <trkpt lat="46.72943" lon="5.83704">
        <ele>565</ele>
        <time>2022-06-06T15:53:31Z</time>
      </trkpt>
      <trkpt lat="46.72946" lon="5.83773">
        <ele>562</ele>
        <time>2022-06-06T15:53:40Z</time>
      </trkpt>
      <trkpt lat="46.72957" lon="5.83885">
        <ele>552</ele>
        <time>2022-06-06T15:53:54Z</time>
      </trkpt>
      <trkpt lat="46.72958" lon="5.83906">
        <ele>551</ele>
        <time>2022-06-06T15:53:56Z</time>
      </trkpt>
      <trkpt lat="46.72956" lon="5.83937">
        <ele>550</ele>
        <time>2022-06-06T15:54:00Z</time>
      </trkpt>
      <trkpt lat="46.72942" lon="5.84001">
        <ele>551</ele>
        <time>2022-06-06T15:54:08Z</time>
      </trkpt>
      <trkpt lat="46.72942" lon="5.84029">
        <ele>551</ele>
        <time>2022-06-06T15:54:12Z</time>
      </trkpt>
      <trkpt lat="46.72945" lon="5.84043">
        <ele>550</ele>
        <time>2022-06-06T15:54:13Z</time>
      </trkpt>
      <trkpt lat="46.72959" lon="5.84077">
        <ele>545</ele>
        <time>2022-06-06T15:54:18Z</time>
      </trkpt>
      <trkpt lat="46.72967" lon="5.8411">
        <ele>543</ele>
        <time>2022-06-06T15:54:23Z</time>
      </trkpt>
      <trkpt lat="46.72969" lon="5.84129">
        <ele>542</ele>
        <time>2022-06-06T15:54:25Z</time>
      </trkpt>
      <trkpt lat="46.72972" lon="5.84202">
        <ele>544</ele>
        <time>2022-06-06T15:54:34Z</time>
      </trkpt>
      <trkpt lat="46.72975" lon="5.84224">
        <ele>544</ele>
        <time>2022-06-06T15:54:37Z</time>
      </trkpt>
      <trkpt lat="46.73001" lon="5.84327">
        <ele>543</ele>
        <time>2022-06-06T15:54:50Z</time>
      </trkpt>
      <trkpt lat="46.73006" lon="5.84356">
        <ele>544</ele>
        <time>2022-06-06T15:54:54Z</time>
      </trkpt>
      <trkpt lat="46.73008" lon="5.84376">
        <ele>544</ele>
        <time>2022-06-06T15:54:56Z</time>
      </trkpt>
      <trkpt lat="46.73012" lon="5.84482">
        <ele>548</ele>
        <time>2022-06-06T15:55:09Z</time>
      </trkpt>
      <trkpt lat="46.73016" lon="5.84533">
        <ele>549</ele>
        <time>2022-06-06T15:55:15Z</time>
      </trkpt>
      <trkpt lat="46.73022" lon="5.8456">
        <ele>549</ele>
        <time>2022-06-06T15:55:19Z</time>
      </trkpt>
      <trkpt lat="46.73038" lon="5.84612">
        <ele>550</ele>
        <time>2022-06-06T15:55:26Z</time>
      </trkpt>
      <trkpt lat="46.7306" lon="5.84668">
        <ele>548</ele>
        <time>2022-06-06T15:55:34Z</time>
      </trkpt>
      <trkpt lat="46.7308" lon="5.8471">
        <ele>547</ele>
        <time>2022-06-06T15:55:40Z</time>
      </trkpt>
      <trkpt lat="46.73124" lon="5.84766">
        <ele>542</ele>
        <time>2022-06-06T15:55:50Z</time>
      </trkpt>
      <trkpt lat="46.73208" lon="5.84903">
        <ele>537</ele>
        <time>2022-06-06T15:56:13Z</time>
      </trkpt>
      <trkpt lat="46.7323" lon="5.84933">
        <ele>534</ele>
        <time>2022-06-06T15:56:18Z</time>
      </trkpt>
      <trkpt lat="46.73265" lon="5.84976">
        <ele>532</ele>
        <time>2022-06-06T15:56:26Z</time>
      </trkpt>
      <trkpt lat="46.73289" lon="5.85016">
        <ele>531</ele>
        <time>2022-06-06T15:56:33Z</time>
      </trkpt>
      <trkpt lat="46.73368" lon="5.85155">
        <ele>533</ele>
        <time>2022-06-06T15:56:55Z</time>
      </trkpt>
      <trkpt lat="46.73381" lon="5.8518">
        <ele>532</ele>
        <time>2022-06-06T15:56:58Z</time>
      </trkpt>
      <trkpt lat="46.73394" lon="5.85214">
        <ele>531</ele>
        <time>2022-06-06T15:57:03Z</time>
      </trkpt>
      <trkpt lat="46.734" lon="5.8524">
        <ele>531</ele>
        <time>2022-06-06T15:57:07Z</time>
      </trkpt>
      <trkpt lat="46.73404" lon="5.85266">
        <ele>532</ele>
        <time>2022-06-06T15:57:10Z</time>
      </trkpt>
      <trkpt lat="46.73413" lon="5.85335">
        <ele>536</ele>
        <time>2022-06-06T15:57:18Z</time>
      </trkpt>
      <trkpt lat="46.73429" lon="5.85416">
        <ele>542</ele>
        <time>2022-06-06T15:57:29Z</time>
      </trkpt>
      <trkpt lat="46.73437" lon="5.85449">
        <ele>542</ele>
        <time>2022-06-06T15:57:33Z</time>
      </trkpt>
      <trkpt lat="46.73447" lon="5.85477">
        <ele>540</ele>
        <time>2022-06-06T15:57:37Z</time>
      </trkpt>
      <trkpt lat="46.73463" lon="5.85507">
        <ele>534</ele>
        <time>2022-06-06T15:57:41Z</time>
      </trkpt>
      <trkpt lat="46.73471" lon="5.85528">
        <ele>531</ele>
        <time>2022-06-06T15:57:44Z</time>
      </trkpt>
      <trkpt lat="46.73475" lon="5.85549">
        <ele>531</ele>
        <time>2022-06-06T15:57:47Z</time>
      </trkpt>
      <trkpt lat="46.73474" lon="5.85575">
        <ele>534</ele>
        <time>2022-06-06T15:57:50Z</time>
      </trkpt>
      <trkpt lat="46.73465" lon="5.8563">
        <ele>534</ele>
        <time>2022-06-06T15:57:57Z</time>
      </trkpt>
      <trkpt lat="46.73452" lon="5.8569">
        <ele>532</ele>
        <time>2022-06-06T15:58:05Z</time>
      </trkpt>
      <trkpt lat="46.73448" lon="5.85773">
        <ele>526</ele>
        <time>2022-06-06T15:58:15Z</time>
      </trkpt>
      <trkpt lat="46.7344" lon="5.85866">
        <ele>524</ele>
        <time>2022-06-06T15:58:26Z</time>
      </trkpt>
      <trkpt lat="46.73441" lon="5.85885">
        <ele>523</ele>
        <time>2022-06-06T15:58:29Z</time>
      </trkpt>
      <trkpt lat="46.73444" lon="5.85902">
        <ele>521</ele>
        <time>2022-06-06T15:58:31Z</time>
      </trkpt>
      <trkpt lat="46.73449" lon="5.85919">
        <ele>519</ele>
        <time>2022-06-06T15:58:33Z</time>
      </trkpt>
      <trkpt lat="46.73465" lon="5.85945">
        <ele>514</ele>
        <time>2022-06-06T15:58:37Z</time>
      </trkpt>
      <trkpt lat="46.73487" lon="5.85972">
        <ele>511</ele>
        <time>2022-06-06T15:58:42Z</time>
      </trkpt>
      <trkpt lat="46.73509" lon="5.85996">
        <ele>512</ele>
        <time>2022-06-06T15:58:47Z</time>
      </trkpt>
      <trkpt lat="46.73522" lon="5.86016">
        <ele>513</ele>
        <time>2022-06-06T15:58:51Z</time>
      </trkpt>
      <trkpt lat="46.7353" lon="5.86034">
        <ele>514</ele>
        <time>2022-06-06T15:58:53Z</time>
      </trkpt>
      <trkpt lat="46.73537" lon="5.86054">
        <ele>515</ele>
        <time>2022-06-06T15:58:56Z</time>
      </trkpt>
      <trkpt lat="46.73609" lon="5.86485">
        <ele>523</ele>
        <time>2022-06-06T15:59:50Z</time>
      </trkpt>
      <trkpt lat="46.73613" lon="5.8651">
        <ele>523</ele>
        <time>2022-06-06T15:59:53Z</time>
      </trkpt>
      <trkpt lat="46.73614" lon="5.86539">
        <ele>522</ele>
        <time>2022-06-06T15:59:57Z</time>
      </trkpt>
      <trkpt lat="46.73617" lon="5.88082">
        <ele>528</ele>
        <time>2022-06-06T16:03:05Z</time>
      </trkpt>
      <trkpt lat="46.73618" lon="5.88568">
        <ele>535</ele>
        <time>2022-06-06T16:04:04Z</time>
      </trkpt>
      <trkpt lat="46.73623" lon="5.8864">
        <ele>537</ele>
        <time>2022-06-06T16:04:13Z</time>
      </trkpt>
      <trkpt lat="46.73617" lon="5.88698">
        <ele>537</ele>
        <time>2022-06-06T16:04:20Z</time>
      </trkpt>
      <trkpt lat="46.73617" lon="5.88712">
        <ele>537</ele>
        <time>2022-06-06T16:04:22Z</time>
      </trkpt>
      <trkpt lat="46.73608" lon="5.88711">
        <ele>537</ele>
        <time>2022-06-06T16:04:23Z</time>
      </trkpt>
      <trkpt lat="46.73531" lon="5.88657">
        <ele>537</ele>
        <time>2022-06-06T16:04:39Z</time>
      </trkpt>
      <trkpt lat="46.73521" lon="5.88654">
        <ele>537</ele>
        <time>2022-06-06T16:04:40Z</time>
      </trkpt>
      <trkpt lat="46.73515" lon="5.88656">
        <ele>537</ele>
        <time>2022-06-06T16:04:42Z</time>
      </trkpt>
      <trkpt lat="46.73462" lon="5.88692">
        <ele>539</ele>
        <time>2022-06-06T16:04:52Z</time>
      </trkpt>
      <trkpt lat="46.73286" lon="5.88812">
        <ele>561</ele>
        <time>2022-06-06T16:05:27Z</time>
      </trkpt>
      <trkpt lat="46.73262" lon="5.88815">
        <ele>561</ele>
        <time>2022-06-06T16:05:31Z</time>
      </trkpt>
      <trkpt lat="46.7323" lon="5.88835">
        <ele>564</ele>
        <time>2022-06-06T16:05:37Z</time>
      </trkpt>
      <trkpt lat="46.73194" lon="5.88842">
        <ele>560</ele>
        <time>2022-06-06T16:05:43Z</time>
      </trkpt>
      <trkpt lat="46.72963" lon="5.89009">
        <ele>574</ele>
        <time>2022-06-06T16:06:29Z</time>
      </trkpt>
      <trkpt lat="46.72934" lon="5.89035">
        <ele>577</ele>
        <time>2022-06-06T16:06:35Z</time>
      </trkpt>
      <trkpt lat="46.72899" lon="5.89072">
        <ele>583</ele>
        <time>2022-06-06T16:06:43Z</time>
      </trkpt>
      <trkpt lat="46.72853" lon="5.89125">
        <ele>588</ele>
        <time>2022-06-06T16:06:54Z</time>
      </trkpt>
      <trkpt lat="46.72837" lon="5.89149">
        <ele>593</ele>
        <time>2022-06-06T16:06:58Z</time>
      </trkpt>
      <trkpt lat="46.7281" lon="5.89179">
        <ele>596</ele>
        <time>2022-06-06T16:07:04Z</time>
      </trkpt>
      <trkpt lat="46.72767" lon="5.89223">
        <ele>598</ele>
        <time>2022-06-06T16:07:13Z</time>
      </trkpt>
      <trkpt lat="46.72679" lon="5.89296">
        <ele>594</ele>
        <time>2022-06-06T16:07:31Z</time>
      </trkpt>
      <trkpt lat="46.72645" lon="5.89331">
        <ele>593</ele>
        <time>2022-06-06T16:07:38Z</time>
      </trkpt>
      <trkpt lat="46.72582" lon="5.8943">
        <ele>603</ele>
        <time>2022-06-06T16:07:55Z</time>
      </trkpt>
      <trkpt lat="46.72538" lon="5.89505">
        <ele>610</ele>
        <time>2022-06-06T16:08:07Z</time>
      </trkpt>
      <trkpt lat="46.7248" lon="5.89587">
        <ele>610</ele>
        <time>2022-06-06T16:08:21Z</time>
      </trkpt>
      <trkpt lat="46.72444" lon="5.89645">
        <ele>618</ele>
        <time>2022-06-06T16:08:31Z</time>
      </trkpt>
      <trkpt lat="46.72363" lon="5.89752">
        <ele>628</ele>
        <time>2022-06-06T16:08:50Z</time>
      </trkpt>
      <trkpt lat="46.72313" lon="5.89824">
        <ele>633</ele>
        <time>2022-06-06T16:09:03Z</time>
      </trkpt>
      <trkpt lat="46.72265" lon="5.89887">
        <ele>637</ele>
        <time>2022-06-06T16:09:14Z</time>
      </trkpt>
      <trkpt lat="46.72227" lon="5.89925">
        <ele>640</ele>
        <time>2022-06-06T16:09:22Z</time>
      </trkpt>
      <trkpt lat="46.72174" lon="5.89967">
        <ele>648</ele>
        <time>2022-06-06T16:09:33Z</time>
      </trkpt>
      <trkpt lat="46.72154" lon="5.89982">
        <ele>654</ele>
        <time>2022-06-06T16:09:37Z</time>
      </trkpt>
      <trkpt lat="46.72139" lon="5.89985">
        <ele>656</ele>
        <time>2022-06-06T16:09:40Z</time>
      </trkpt>
      <trkpt lat="46.72122" lon="5.89982">
        <ele>657</ele>
        <time>2022-06-06T16:09:43Z</time>
      </trkpt>
      <trkpt lat="46.72097" lon="5.8996">
        <ele>650</ele>
        <time>2022-06-06T16:09:48Z</time>
      </trkpt>
      <trkpt lat="46.72083" lon="5.89952">
        <ele>648</ele>
        <time>2022-06-06T16:09:51Z</time>
      </trkpt>
      <trkpt lat="46.72038" lon="5.89952">
        <ele>657</ele>
        <time>2022-06-06T16:09:59Z</time>
      </trkpt>
      <trkpt lat="46.72007" lon="5.8995">
        <ele>662</ele>
        <time>2022-06-06T16:10:04Z</time>
      </trkpt>
      <trkpt lat="46.71991" lon="5.89944">
        <ele>662</ele>
        <time>2022-06-06T16:10:07Z</time>
      </trkpt>
      <trkpt lat="46.71982" lon="5.89938">
        <ele>662</ele>
        <time>2022-06-06T16:10:09Z</time>
      </trkpt>
      <trkpt lat="46.71967" lon="5.8992">
        <ele>659</ele>
        <time>2022-06-06T16:10:13Z</time>
      </trkpt>
      <trkpt lat="46.7194" lon="5.89878">
        <ele>656</ele>
        <time>2022-06-06T16:10:20Z</time>
      </trkpt>
      <trkpt lat="46.71921" lon="5.89859">
        <ele>657</ele>
        <time>2022-06-06T16:10:24Z</time>
      </trkpt>
      <trkpt lat="46.71889" lon="5.89808">
        <ele>655</ele>
        <time>2022-06-06T16:10:32Z</time>
      </trkpt>
      <trkpt lat="46.71851" lon="5.89737">
        <ele>658</ele>
        <time>2022-06-06T16:10:43Z</time>
      </trkpt>
      <trkpt lat="46.71807" lon="5.89624">
        <ele>652</ele>
        <time>2022-06-06T16:10:59Z</time>
      </trkpt>
      <trkpt lat="46.71762" lon="5.89495">
        <ele>653</ele>
        <time>2022-06-06T16:11:17Z</time>
      </trkpt>
      <trkpt lat="46.71696" lon="5.89268">
        <ele>643</ele>
        <time>2022-06-06T16:11:47Z</time>
      </trkpt>
      <trkpt lat="46.71683" lon="5.89215">
        <ele>638</ele>
        <time>2022-06-06T16:11:54Z</time>
      </trkpt>
      <trkpt lat="46.71678" lon="5.89204">
        <ele>638</ele>
        <time>2022-06-06T16:11:55Z</time>
      </trkpt>
      <trkpt lat="46.71672" lon="5.89197">
        <ele>639</ele>
        <time>2022-06-06T16:11:56Z</time>
      </trkpt>
      <trkpt lat="46.71662" lon="5.89191">
        <ele>642</ele>
        <time>2022-06-06T16:11:58Z</time>
      </trkpt>
      <trkpt lat="46.71644" lon="5.89185">
        <ele>645</ele>
        <time>2022-06-06T16:12:02Z</time>
      </trkpt>
      <trkpt lat="46.71631" lon="5.89178">
        <ele>647</ele>
        <time>2022-06-06T16:12:04Z</time>
      </trkpt>
      <trkpt lat="46.71622" lon="5.8917">
        <ele>648</ele>
        <time>2022-06-06T16:12:06Z</time>
      </trkpt>
      <trkpt lat="46.71602" lon="5.89135">
        <ele>652</ele>
        <time>2022-06-06T16:12:12Z</time>
      </trkpt>
      <trkpt lat="46.71591" lon="5.89122">
        <ele>656</ele>
        <time>2022-06-06T16:12:14Z</time>
      </trkpt>
      <trkpt lat="46.71581" lon="5.89115">
        <ele>659</ele>
        <time>2022-06-06T16:12:16Z</time>
      </trkpt>
      <trkpt lat="46.71571" lon="5.89112">
        <ele>660</ele>
        <time>2022-06-06T16:12:18Z</time>
      </trkpt>
      <trkpt lat="46.71556" lon="5.89114">
        <ele>661</ele>
        <time>2022-06-06T16:12:21Z</time>
      </trkpt>
      <trkpt lat="46.71486" lon="5.89141">
        <ele>663</ele>
        <time>2022-06-06T16:12:33Z</time>
      </trkpt>
      <trkpt lat="46.71472" lon="5.89142">
        <ele>664</ele>
        <time>2022-06-06T16:12:36Z</time>
      </trkpt>
      <trkpt lat="46.7146" lon="5.89135">
        <ele>665</ele>
        <time>2022-06-06T16:12:38Z</time>
      </trkpt>
      <trkpt lat="46.71451" lon="5.89116">
        <ele>666</ele>
        <time>2022-06-06T16:12:41Z</time>
      </trkpt>
      <trkpt lat="46.71451" lon="5.891">
        <ele>666</ele>
        <time>2022-06-06T16:12:43Z</time>
      </trkpt>
      <trkpt lat="46.71454" lon="5.89079">
        <ele>666</ele>
        <time>2022-06-06T16:12:46Z</time>
      </trkpt>
      <trkpt lat="46.71463" lon="5.89058">
        <ele>667</ele>
        <time>2022-06-06T16:12:49Z</time>
      </trkpt>
      <trkpt lat="46.7148" lon="5.89038">
        <ele>668</ele>
        <time>2022-06-06T16:12:53Z</time>
      </trkpt>
      <trkpt lat="46.71553" lon="5.88993">
        <ele>668</ele>
        <time>2022-06-06T16:13:07Z</time>
      </trkpt>
      <trkpt lat="46.71603" lon="5.88967">
        <ele>656</ele>
        <time>2022-06-06T16:13:16Z</time>
      </trkpt>
      <trkpt lat="46.71611" lon="5.88951">
        <ele>651</ele>
        <time>2022-06-06T16:13:19Z</time>
      </trkpt>
      <trkpt lat="46.71615" lon="5.88934">
        <ele>650</ele>
        <time>2022-06-06T16:13:21Z</time>
      </trkpt>
      <trkpt lat="46.71614" lon="5.88914">
        <ele>651</ele>
        <time>2022-06-06T16:13:23Z</time>
      </trkpt>
      <trkpt lat="46.71607" lon="5.8889">
        <ele>653</ele>
        <time>2022-06-06T16:13:26Z</time>
      </trkpt>
      <trkpt lat="46.71599" lon="5.88875">
        <ele>656</ele>
        <time>2022-06-06T16:13:29Z</time>
      </trkpt>
      <trkpt lat="46.71548" lon="5.88814">
        <ele>660</ele>
        <time>2022-06-06T16:13:40Z</time>
      </trkpt>
      <trkpt lat="46.71502" lon="5.88764">
        <ele>659</ele>
        <time>2022-06-06T16:13:51Z</time>
      </trkpt>
      <trkpt lat="46.71476" lon="5.8874">
        <ele>659</ele>
        <time>2022-06-06T16:13:56Z</time>
      </trkpt>
      <trkpt lat="46.71447" lon="5.88717">
        <ele>660</ele>
        <time>2022-06-06T16:14:02Z</time>
      </trkpt>
      <trkpt lat="46.71431" lon="5.88711">
        <ele>660</ele>
        <time>2022-06-06T16:14:05Z</time>
      </trkpt>
      <trkpt lat="46.71412" lon="5.88711">
        <ele>660</ele>
        <time>2022-06-06T16:14:08Z</time>
      </trkpt>
      <trkpt lat="46.71315" lon="5.88722">
        <ele>661</ele>
        <time>2022-06-06T16:14:26Z</time>
      </trkpt>
      <trkpt lat="46.71298" lon="5.8872">
        <ele>662</ele>
        <time>2022-06-06T16:14:29Z</time>
      </trkpt>
      <trkpt lat="46.7127" lon="5.8871">
        <ele>664</ele>
        <time>2022-06-06T16:14:34Z</time>
      </trkpt>
      <trkpt lat="46.71248" lon="5.88699">
        <ele>665</ele>
        <time>2022-06-06T16:14:38Z</time>
      </trkpt>
      <trkpt lat="46.7123" lon="5.88683">
        <ele>667</ele>
        <time>2022-06-06T16:14:42Z</time>
      </trkpt>
      <trkpt lat="46.71215" lon="5.88659">
        <ele>668</ele>
        <time>2022-06-06T16:14:46Z</time>
      </trkpt>
      <trkpt lat="46.71186" lon="5.88599">
        <ele>672</ele>
        <time>2022-06-06T16:14:55Z</time>
      </trkpt>
      <trkpt lat="46.71176" lon="5.88568">
        <ele>673</ele>
        <time>2022-06-06T16:14:59Z</time>
      </trkpt>
      <trkpt lat="46.71134" lon="5.88407">
        <ele>682</ele>
        <time>2022-06-06T16:15:20Z</time>
      </trkpt>
      <trkpt lat="46.71117" lon="5.88375">
        <ele>684</ele>
        <time>2022-06-06T16:15:25Z</time>
      </trkpt>
      <trkpt lat="46.71099" lon="5.88349">
        <ele>685</ele>
        <time>2022-06-06T16:15:29Z</time>
      </trkpt>
      <trkpt lat="46.71065" lon="5.88309">
        <ele>685</ele>
        <time>2022-06-06T16:15:37Z</time>
      </trkpt>
      <trkpt lat="46.71056" lon="5.88302">
        <ele>685</ele>
        <time>2022-06-06T16:15:39Z</time>
      </trkpt>
      <trkpt lat="46.71038" lon="5.88297">
        <ele>685</ele>
        <time>2022-06-06T16:15:42Z</time>
      </trkpt>
      <trkpt lat="46.70943" lon="5.88292">
        <ele>684</ele>
        <time>2022-06-06T16:15:59Z</time>
      </trkpt>
      <trkpt lat="46.70911" lon="5.88285">
        <ele>684</ele>
        <time>2022-06-06T16:16:05Z</time>
      </trkpt>
      <trkpt lat="46.70846" lon="5.88258">
        <ele>683</ele>
        <time>2022-06-06T16:16:17Z</time>
      </trkpt>
      <trkpt lat="46.70837" lon="5.88249">
        <ele>683</ele>
        <time>2022-06-06T16:16:19Z</time>
      </trkpt>
      <trkpt lat="46.70835" lon="5.88244">
        <ele>683</ele>
        <time>2022-06-06T16:16:19Z</time>
      </trkpt>
      <trkpt lat="46.70823" lon="5.88254">
        <ele>683</ele>
        <time>2022-06-06T16:16:22Z</time>
      </trkpt>
      <trkpt lat="46.70813" lon="5.88272">
        <ele>684</ele>
        <time>2022-06-06T16:16:25Z</time>
      </trkpt>
      <trkpt lat="46.70764" lon="5.8837">
        <ele>687</ele>
        <time>2022-06-06T16:16:39Z</time>
      </trkpt>
      <trkpt lat="46.70759" lon="5.88384">
        <ele>687</ele>
        <time>2022-06-06T16:16:41Z</time>
      </trkpt>
      <trkpt lat="46.70753" lon="5.88409">
        <ele>687</ele>
        <time>2022-06-06T16:16:45Z</time>
      </trkpt>
      <trkpt lat="46.70752" lon="5.88447">
        <ele>688</ele>
        <time>2022-06-06T16:16:49Z</time>
      </trkpt>
      <trkpt lat="46.70753" lon="5.88459">
        <ele>689</ele>
        <time>2022-06-06T16:16:51Z</time>
      </trkpt>
      <trkpt lat="46.70778" lon="5.88534">
        <ele>693</ele>
        <time>2022-06-06T16:17:01Z</time>
      </trkpt>
      <trkpt lat="46.70791" lon="5.88632">
        <ele>696</ele>
        <time>2022-06-06T16:17:13Z</time>
      </trkpt>
      <trkpt lat="46.70794" lon="5.88683">
        <ele>696</ele>
        <time>2022-06-06T16:17:19Z</time>
      </trkpt>
      <trkpt lat="46.70791" lon="5.8871">
        <ele>696</ele>
        <time>2022-06-06T16:17:23Z</time>
      </trkpt>
      <trkpt lat="46.70785" lon="5.8873">
        <ele>696</ele>
        <time>2022-06-06T16:17:25Z</time>
      </trkpt>
      <trkpt lat="46.70763" lon="5.88772">
        <ele>695</ele>
        <time>2022-06-06T16:17:32Z</time>
      </trkpt>
      <trkpt lat="46.70758" lon="5.88794">
        <ele>694</ele>
        <time>2022-06-06T16:17:35Z</time>
      </trkpt>
      <trkpt lat="46.70756" lon="5.88833">
        <ele>693</ele>
        <time>2022-06-06T16:17:39Z</time>
      </trkpt>
      <trkpt lat="46.70748" lon="5.88862">
        <ele>691</ele>
        <time>2022-06-06T16:17:43Z</time>
      </trkpt>
      <trkpt lat="46.70732" lon="5.88891">
        <ele>690</ele>
        <time>2022-06-06T16:17:48Z</time>
      </trkpt>
      <trkpt lat="46.70709" lon="5.88923">
        <ele>688</ele>
        <time>2022-06-06T16:17:53Z</time>
      </trkpt>
      <trkpt lat="46.70683" lon="5.88964">
        <ele>686</ele>
        <time>2022-06-06T16:18:00Z</time>
      </trkpt>
      <trkpt lat="46.70669" lon="5.88996">
        <ele>685</ele>
        <time>2022-06-06T16:18:05Z</time>
      </trkpt>
      <trkpt lat="46.70647" lon="5.89052">
        <ele>684</ele>
        <time>2022-06-06T16:18:13Z</time>
      </trkpt>
      <trkpt lat="46.70633" lon="5.89075">
        <ele>683</ele>
        <time>2022-06-06T16:18:16Z</time>
      </trkpt>
      <trkpt lat="46.7062" lon="5.89092">
        <ele>683</ele>
        <time>2022-06-06T16:18:20Z</time>
      </trkpt>
      <trkpt lat="46.70606" lon="5.89102">
        <ele>683</ele>
        <time>2022-06-06T16:18:22Z</time>
      </trkpt>
      <trkpt lat="46.70569" lon="5.89117">
        <ele>684</ele>
        <time>2022-06-06T16:18:29Z</time>
      </trkpt>
      <trkpt lat="46.70561" lon="5.89126">
        <ele>684</ele>
        <time>2022-06-06T16:18:31Z</time>
      </trkpt>
      <trkpt lat="46.70555" lon="5.89136">
        <ele>684</ele>
        <time>2022-06-06T16:18:33Z</time>
      </trkpt>
      <trkpt lat="46.70534" lon="5.8923">
        <ele>683</ele>
        <time>2022-06-06T16:18:45Z</time>
      </trkpt>
      <trkpt lat="46.70521" lon="5.89252">
        <ele>683</ele>
        <time>2022-06-06T16:18:48Z</time>
      </trkpt>
      <trkpt lat="46.70497" lon="5.89281">
        <ele>681</ele>
        <time>2022-06-06T16:18:54Z</time>
      </trkpt>
      <trkpt lat="46.70471" lon="5.89331">
        <ele>680</ele>
        <time>2022-06-06T16:19:01Z</time>
      </trkpt>
      <trkpt lat="46.70424" lon="5.89427">
        <ele>681</ele>
        <time>2022-06-06T16:19:16Z</time>
      </trkpt>
      <trkpt lat="46.7042" lon="5.89441">
        <ele>681</ele>
        <time>2022-06-06T16:19:18Z</time>
      </trkpt>
      <trkpt lat="46.70413" lon="5.89461">
        <ele>682</ele>
        <time>2022-06-06T16:19:20Z</time>
      </trkpt>
      <trkpt lat="46.70393" lon="5.89555">
        <ele>684</ele>
        <time>2022-06-06T16:19:32Z</time>
      </trkpt>
      <trkpt lat="46.70391" lon="5.8959">
        <ele>684</ele>
        <time>2022-06-06T16:19:37Z</time>
      </trkpt>
      <trkpt lat="46.70401" lon="5.89642">
        <ele>683</ele>
        <time>2022-06-06T16:19:43Z</time>
      </trkpt>
      <trkpt lat="46.70401" lon="5.89654">
        <ele>683</ele>
        <time>2022-06-06T16:19:45Z</time>
      </trkpt>
      <trkpt lat="46.70397" lon="5.8967">
        <ele>683</ele>
        <time>2022-06-06T16:19:47Z</time>
      </trkpt>
      <trkpt lat="46.70392" lon="5.89678">
        <ele>682</ele>
        <time>2022-06-06T16:19:48Z</time>
      </trkpt>
      <trkpt lat="46.70333" lon="5.89754">
        <ele>681</ele>
        <time>2022-06-06T16:20:02Z</time>
      </trkpt>
      <trkpt lat="46.70326" lon="5.89773">
        <ele>680</ele>
        <time>2022-06-06T16:20:05Z</time>
      </trkpt>
      <trkpt lat="46.70324" lon="5.89792">
        <ele>679</ele>
        <time>2022-06-06T16:20:07Z</time>
      </trkpt>
      <trkpt lat="46.70335" lon="5.90047">
        <ele>682</ele>
        <time>2022-06-06T16:20:38Z</time>
      </trkpt>
      <trkpt lat="46.70338" lon="5.90188">
        <ele>683</ele>
        <time>2022-06-06T16:20:56Z</time>
      </trkpt>
      <trkpt lat="46.7034" lon="5.90207">
        <ele>684</ele>
        <time>2022-06-06T16:20:58Z</time>
      </trkpt>
      <trkpt lat="46.70347" lon="5.90236">
        <ele>684</ele>
        <time>2022-06-06T16:21:02Z</time>
      </trkpt>
      <trkpt lat="46.70353" lon="5.90249">
        <ele>684</ele>
        <time>2022-06-06T16:21:04Z</time>
      </trkpt>
      <trkpt lat="46.70363" lon="5.90262">
        <ele>683</ele>
        <time>2022-06-06T16:21:06Z</time>
      </trkpt>
      <trkpt lat="46.70381" lon="5.90274">
        <ele>682</ele>
        <time>2022-06-06T16:21:09Z</time>
      </trkpt>
      <trkpt lat="46.70401" lon="5.90277">
        <ele>682</ele>
        <time>2022-06-06T16:21:13Z</time>
      </trkpt>
      <trkpt lat="46.70441" lon="5.9027">
        <ele>683</ele>
        <time>2022-06-06T16:21:20Z</time>
      </trkpt>
      <trkpt lat="46.70448" lon="5.90273">
        <ele>682</ele>
        <time>2022-06-06T16:21:21Z</time>
      </trkpt>
      <trkpt lat="46.70454" lon="5.90279">
        <ele>682</ele>
        <time>2022-06-06T16:21:23Z</time>
      </trkpt>
      <trkpt lat="46.70457" lon="5.90288">
        <ele>681</ele>
        <time>2022-06-06T16:21:24Z</time>
      </trkpt>
      <trkpt lat="46.70457" lon="5.90297">
        <ele>680</ele>
        <time>2022-06-06T16:21:25Z</time>
      </trkpt>
      <trkpt lat="46.70453" lon="5.90305">
        <ele>679</ele>
        <time>2022-06-06T16:21:26Z</time>
      </trkpt>
      <trkpt lat="46.70448" lon="5.90309">
        <ele>679</ele>
        <time>2022-06-06T16:21:27Z</time>
      </trkpt>
      <trkpt lat="46.70441" lon="5.90311">
        <ele>679</ele>
        <time>2022-06-06T16:21:29Z</time>
      </trkpt>
      <trkpt lat="46.70412" lon="5.9031">
        <ele>679</ele>
        <time>2022-06-06T16:21:34Z</time>
      </trkpt>
      <trkpt lat="46.70396" lon="5.90306">
        <ele>679</ele>
        <time>2022-06-06T16:21:37Z</time>
      </trkpt>
      <trkpt lat="46.70277" lon="5.90328">
        <ele>674</ele>
        <time>2022-06-06T16:21:58Z</time>
      </trkpt>
      <trkpt lat="46.70215" lon="5.90351">
        <ele>672</ele>
        <time>2022-06-06T16:22:09Z</time>
      </trkpt>
      <trkpt lat="46.70154" lon="5.90381">
        <ele>670</ele>
        <time>2022-06-06T16:22:21Z</time>
      </trkpt>
      <trkpt lat="46.70135" lon="5.90396">
        <ele>669</ele>
        <time>2022-06-06T16:22:25Z</time>
      </trkpt>
      <trkpt lat="46.7013" lon="5.90403">
        <ele>668</ele>
        <time>2022-06-06T16:22:26Z</time>
      </trkpt>
      <trkpt lat="46.70124" lon="5.90414">
        <ele>666</ele>
        <time>2022-06-06T16:22:28Z</time>
      </trkpt>
      <trkpt lat="46.70101" lon="5.90544">
        <ele>662</ele>
        <time>2022-06-06T16:22:44Z</time>
      </trkpt>
      <trkpt lat="46.70079" lon="5.90649">
        <ele>666</ele>
        <time>2022-06-06T16:22:57Z</time>
      </trkpt>
      <trkpt lat="46.70073" lon="5.90672">
        <ele>666</ele>
        <time>2022-06-06T16:23:00Z</time>
      </trkpt>
      <trkpt lat="46.70063" lon="5.90696">
        <ele>666</ele>
        <time>2022-06-06T16:23:04Z</time>
      </trkpt>
      <trkpt lat="46.70058" lon="5.907">
        <ele>666</ele>
        <time>2022-06-06T16:23:05Z</time>
      </trkpt>
      <trkpt lat="46.70036" lon="5.90709">
        <ele>666</ele>
        <time>2022-06-06T16:23:09Z</time>
      </trkpt>
      <trkpt lat="46.70034" lon="5.90707">
        <ele>666</ele>
        <time>2022-06-06T16:23:09Z</time>
      </trkpt>
      <trkpt lat="46.70026" lon="5.90706">
        <ele>666</ele>
        <time>2022-06-06T16:23:11Z</time>
      </trkpt>
      <trkpt lat="46.69988" lon="5.90708">
        <ele>666</ele>
        <time>2022-06-06T16:23:18Z</time>
      </trkpt>
      <trkpt lat="46.6995" lon="5.90714">
        <ele>666</ele>
        <time>2022-06-06T16:23:24Z</time>
      </trkpt>
      <trkpt lat="46.69878" lon="5.9073">
        <ele>667</ele>
        <time>2022-06-06T16:23:37Z</time>
      </trkpt>
      <trkpt lat="46.69826" lon="5.90726">
        <ele>668</ele>
        <time>2022-06-06T16:23:47Z</time>
      </trkpt>
      <trkpt lat="46.69743" lon="5.90708">
        <ele>675</ele>
        <time>2022-06-06T16:24:01Z</time>
      </trkpt>
      <trkpt lat="46.69602" lon="5.90732">
        <ele>682</ele>
        <time>2022-06-06T16:24:27Z</time>
      </trkpt>
      <trkpt lat="46.69506" lon="5.90761">
        <ele>684</ele>
        <time>2022-06-06T16:24:44Z</time>
      </trkpt>
      <trkpt lat="46.69447" lon="5.90775">
        <ele>689</ele>
        <time>2022-06-06T16:24:55Z</time>
      </trkpt>
      <trkpt lat="46.69422" lon="5.9079">
        <ele>688</ele>
        <time>2022-06-06T16:25:00Z</time>
      </trkpt>
      <trkpt lat="46.69394" lon="5.90824">
        <ele>684</ele>
        <time>2022-06-06T16:25:06Z</time>
      </trkpt>
      <trkpt lat="46.69344" lon="5.90851">
        <ele>686</ele>
        <time>2022-06-06T16:25:16Z</time>
      </trkpt>
      <trkpt lat="46.69318" lon="5.90853">
        <ele>690</ele>
        <time>2022-06-06T16:25:20Z</time>
      </trkpt>
      <trkpt lat="46.69287" lon="5.90836">
        <ele>699</ele>
        <time>2022-06-06T16:25:26Z</time>
      </trkpt>
      <trkpt lat="46.69251" lon="5.90826">
        <ele>709</ele>
        <time>2022-06-06T16:25:33Z</time>
      </trkpt>
      <trkpt lat="46.69223" lon="5.90837">
        <ele>710</ele>
        <time>2022-06-06T16:25:38Z</time>
      </trkpt>
      <trkpt lat="46.69204" lon="5.90851">
        <ele>711</ele>
        <time>2022-06-06T16:25:42Z</time>
      </trkpt>
      <trkpt lat="46.69195" lon="5.90865">
        <ele>710</ele>
        <time>2022-06-06T16:25:44Z</time>
      </trkpt>
      <trkpt lat="46.69175" lon="5.90917">
        <ele>703</ele>
        <time>2022-06-06T16:25:51Z</time>
      </trkpt>
      <trkpt lat="46.69162" lon="5.90946">
        <ele>702</ele>
        <time>2022-06-06T16:25:55Z</time>
      </trkpt>
      <trkpt lat="46.69149" lon="5.90962">
        <ele>701</ele>
        <time>2022-06-06T16:25:58Z</time>
      </trkpt>
      <trkpt lat="46.69107" lon="5.91">
        <ele>702</ele>
        <time>2022-06-06T16:26:07Z</time>
      </trkpt>
      <trkpt lat="46.68972" lon="5.91133">
        <ele>715</ele>
        <time>2022-06-06T16:26:36Z</time>
      </trkpt>
      <trkpt lat="46.68966" lon="5.91135">
        <ele>715</ele>
        <time>2022-06-06T16:26:37Z</time>
      </trkpt>
      <trkpt lat="46.68955" lon="5.9115">
        <ele>716</ele>
        <time>2022-06-06T16:26:40Z</time>
      </trkpt>
      <trkpt lat="46.68895" lon="5.91208">
        <ele>723</ele>
        <time>2022-06-06T16:26:53Z</time>
      </trkpt>
      <trkpt lat="46.68879" lon="5.91227">
        <ele>724</ele>
        <time>2022-06-06T16:26:57Z</time>
      </trkpt>
      <trkpt lat="46.68832" lon="5.91294">
        <ele>725</ele>
        <time>2022-06-06T16:27:08Z</time>
      </trkpt>
      <trkpt lat="46.68699" lon="5.91441">
        <ele>729</ele>
        <time>2022-06-06T16:27:38Z</time>
      </trkpt>
      <trkpt lat="46.68685" lon="5.91452">
        <ele>730</ele>
        <time>2022-06-06T16:27:41Z</time>
      </trkpt>
      <trkpt lat="46.68544" lon="5.91503">
        <ele>736</ele>
        <time>2022-06-06T16:28:07Z</time>
      </trkpt>
      <trkpt lat="46.68508" lon="5.91507">
        <ele>735</ele>
        <time>2022-06-06T16:28:13Z</time>
      </trkpt>
      <trkpt lat="46.6844" lon="5.91495">
        <ele>735</ele>
        <time>2022-06-06T16:28:25Z</time>
      </trkpt>
      <trkpt lat="46.68367" lon="5.91467">
        <ele>735</ele>
        <time>2022-06-06T16:28:39Z</time>
      </trkpt>
      <trkpt lat="46.68341" lon="5.91445">
        <ele>736</ele>
        <time>2022-06-06T16:28:44Z</time>
      </trkpt>
      <trkpt lat="46.68303" lon="5.91435">
        <ele>737</ele>
        <time>2022-06-06T16:28:51Z</time>
      </trkpt>
      <trkpt lat="46.6801" lon="5.91483">
        <ele>746</ele>
        <time>2022-06-06T16:29:43Z</time>
      </trkpt>
      <trkpt lat="46.67967" lon="5.91479">
        <ele>747</ele>
        <time>2022-06-06T16:29:51Z</time>
      </trkpt>
      <trkpt lat="46.67934" lon="5.91468">
        <ele>748</ele>
        <time>2022-06-06T16:29:57Z</time>
      </trkpt>
      <trkpt lat="46.67879" lon="5.91467">
        <ele>750</ele>
        <time>2022-06-06T16:30:07Z</time>
      </trkpt>
      <trkpt lat="46.67838" lon="5.91473">
        <ele>751</ele>
        <time>2022-06-06T16:30:14Z</time>
      </trkpt>
      <trkpt lat="46.67825" lon="5.91482">
        <ele>752</ele>
        <time>2022-06-06T16:30:17Z</time>
      </trkpt>
      <trkpt lat="46.67793" lon="5.9152">
        <ele>756</ele>
        <time>2022-06-06T16:30:24Z</time>
      </trkpt>
      <trkpt lat="46.67779" lon="5.9153">
        <ele>758</ele>
        <time>2022-06-06T16:30:27Z</time>
      </trkpt>
      <trkpt lat="46.67749" lon="5.9154">
        <ele>762</ele>
        <time>2022-06-06T16:30:32Z</time>
      </trkpt>
      <trkpt lat="46.67711" lon="5.91559">
        <ele>765</ele>
        <time>2022-06-06T16:30:39Z</time>
      </trkpt>
      <trkpt lat="46.67702" lon="5.91559">
        <ele>766</ele>
        <time>2022-06-06T16:30:41Z</time>
      </trkpt>
      <trkpt lat="46.67693" lon="5.91555">
        <ele>767</ele>
        <time>2022-06-06T16:30:43Z</time>
      </trkpt>
      <trkpt lat="46.67673" lon="5.91586">
        <ele>771</ele>
        <time>2022-06-06T16:30:48Z</time>
      </trkpt>
      <trkpt lat="46.67656" lon="5.91599">
        <ele>774</ele>
        <time>2022-06-06T16:30:51Z</time>
      </trkpt>
      <trkpt lat="46.67621" lon="5.91608">
        <ele>777</ele>
        <time>2022-06-06T16:30:58Z</time>
      </trkpt>
      <trkpt lat="46.67599" lon="5.9161">
        <ele>778</ele>
        <time>2022-06-06T16:31:02Z</time>
      </trkpt>
      <trkpt lat="46.67582" lon="5.91619">
        <ele>780</ele>
        <time>2022-06-06T16:31:05Z</time>
      </trkpt>
      <trkpt lat="46.67569" lon="5.91633">
        <ele>781</ele>
        <time>2022-06-06T16:31:08Z</time>
      </trkpt>
      <trkpt lat="46.67565" lon="5.91641">
        <ele>782</ele>
        <time>2022-06-06T16:31:09Z</time>
      </trkpt>
      <trkpt lat="46.67561" lon="5.91653">
        <ele>784</ele>
        <time>2022-06-06T16:31:10Z</time>
      </trkpt>
      <trkpt lat="46.67554" lon="5.91667">
        <ele>786</ele>
        <time>2022-06-06T16:31:13Z</time>
      </trkpt>
      <trkpt lat="46.67557" lon="5.91674">
        <ele>786</ele>
        <time>2022-06-06T16:31:14Z</time>
      </trkpt>
      <trkpt lat="46.6756" lon="5.91685">
        <ele>787</ele>
        <time>2022-06-06T16:31:15Z</time>
      </trkpt>
      <trkpt lat="46.67559" lon="5.91697">
        <ele>788</ele>
        <time>2022-06-06T16:31:17Z</time>
      </trkpt>
      <trkpt lat="46.67553" lon="5.91709">
        <ele>788</ele>
        <time>2022-06-06T16:31:18Z</time>
      </trkpt>
      <trkpt lat="46.67535" lon="5.91717">
        <ele>789</ele>
        <time>2022-06-06T16:31:22Z</time>
      </trkpt>
      <trkpt lat="46.67487" lon="5.91712">
        <ele>789</ele>
        <time>2022-06-06T16:31:30Z</time>
      </trkpt>
      <trkpt lat="46.67467" lon="5.91705">
        <ele>789</ele>
        <time>2022-06-06T16:31:34Z</time>
      </trkpt>
      <trkpt lat="46.67426" lon="5.91679">
        <ele>790</ele>
        <time>2022-06-06T16:31:42Z</time>
      </trkpt>
      <trkpt lat="46.67405" lon="5.9166">
        <ele>790</ele>
        <time>2022-06-06T16:31:46Z</time>
      </trkpt>
      <trkpt lat="46.67354" lon="5.91582">
        <ele>790</ele>
        <time>2022-06-06T16:31:59Z</time>
      </trkpt>
      <trkpt lat="46.67328" lon="5.91576">
        <ele>791</ele>
        <time>2022-06-06T16:32:04Z</time>
      </trkpt>
      <trkpt lat="46.67287" lon="5.91581">
        <ele>791</ele>
        <time>2022-06-06T16:32:11Z</time>
      </trkpt>
      <trkpt lat="46.67257" lon="5.9158">
        <ele>790</ele>
        <time>2022-06-06T16:32:17Z</time>
      </trkpt>
      <trkpt lat="46.67193" lon="5.91585">
        <ele>796</ele>
        <time>2022-06-06T16:32:28Z</time>
      </trkpt>
      <trkpt lat="46.67143" lon="5.91585">
        <ele>799</ele>
        <time>2022-06-06T16:32:37Z</time>
      </trkpt>
      <trkpt lat="46.67111" lon="5.91591">
        <ele>799</ele>
        <time>2022-06-06T16:32:43Z</time>
      </trkpt>
      <trkpt lat="46.67085" lon="5.91601">
        <ele>799</ele>
        <time>2022-06-06T16:32:48Z</time>
      </trkpt>
      <trkpt lat="46.67069" lon="5.91611">
        <ele>799</ele>
        <time>2022-06-06T16:32:51Z</time>
      </trkpt>
      <trkpt lat="46.67024" lon="5.91647">
        <ele>798</ele>
        <time>2022-06-06T16:33:00Z</time>
      </trkpt>
      <trkpt lat="46.66919" lon="5.91743">
        <ele>796</ele>
        <time>2022-06-06T16:33:22Z</time>
      </trkpt>
      <trkpt lat="46.66908" lon="5.91756">
        <ele>796</ele>
        <time>2022-06-06T16:33:24Z</time>
      </trkpt>
      <trkpt lat="46.66898" lon="5.9177">
        <ele>796</ele>
        <time>2022-06-06T16:33:27Z</time>
      </trkpt>
      <trkpt lat="46.66852" lon="5.9187">
        <ele>794</ele>
        <time>2022-06-06T16:33:42Z</time>
      </trkpt>
      <trkpt lat="46.6685" lon="5.91881">
        <ele>793</ele>
        <time>2022-06-06T16:33:43Z</time>
      </trkpt>
      <trkpt lat="46.66851" lon="5.91896">
        <ele>792</ele>
        <time>2022-06-06T16:33:45Z</time>
      </trkpt>
      <trkpt lat="46.66855" lon="5.91908">
        <ele>792</ele>
        <time>2022-06-06T16:33:46Z</time>
      </trkpt>
      <trkpt lat="46.66866" lon="5.9192">
        <ele>792</ele>
        <time>2022-06-06T16:33:49Z</time>
      </trkpt>
      <trkpt lat="46.66926" lon="5.91962">
        <ele>797</ele>
        <time>2022-06-06T16:34:01Z</time>
      </trkpt>
      <trkpt lat="46.66935" lon="5.91974">
        <ele>797</ele>
        <time>2022-06-06T16:34:03Z</time>
      </trkpt>
      <trkpt lat="46.66939" lon="5.91984">
        <ele>797</ele>
        <time>2022-06-06T16:34:04Z</time>
      </trkpt>
      <trkpt lat="46.66942" lon="5.92006">
        <ele>797</ele>
        <time>2022-06-06T16:34:07Z</time>
      </trkpt>
      <trkpt lat="46.66939" lon="5.92026">
        <ele>798</ele>
        <time>2022-06-06T16:34:10Z</time>
      </trkpt>
      <trkpt lat="46.66935" lon="5.92036">
        <ele>798</ele>
        <time>2022-06-06T16:34:11Z</time>
      </trkpt>
      <trkpt lat="46.66927" lon="5.9205">
        <ele>798</ele>
        <time>2022-06-06T16:34:13Z</time>
      </trkpt>
      <trkpt lat="46.66889" lon="5.92078">
        <ele>793</ele>
        <time>2022-06-06T16:34:21Z</time>
      </trkpt>
      <trkpt lat="46.66882" lon="5.92086">
        <ele>793</ele>
        <time>2022-06-06T16:34:22Z</time>
      </trkpt>
      <trkpt lat="46.66877" lon="5.92094">
        <ele>793</ele>
        <time>2022-06-06T16:34:24Z</time>
      </trkpt>
      <trkpt lat="46.66874" lon="5.92105">
        <ele>793</ele>
        <time>2022-06-06T16:34:25Z</time>
      </trkpt>
      <trkpt lat="46.66866" lon="5.92145">
        <ele>795</ele>
        <time>2022-06-06T16:34:30Z</time>
      </trkpt>
      <trkpt lat="46.66858" lon="5.92164">
        <ele>796</ele>
        <time>2022-06-06T16:34:33Z</time>
      </trkpt>
      <trkpt lat="46.6685" lon="5.92179">
        <ele>796</ele>
        <time>2022-06-06T16:34:35Z</time>
      </trkpt>
      <trkpt lat="46.66824" lon="5.92211">
        <ele>795</ele>
        <time>2022-06-06T16:34:41Z</time>
      </trkpt>
      <trkpt lat="46.66797" lon="5.92249">
        <ele>795</ele>
        <time>2022-06-06T16:34:48Z</time>
      </trkpt>
      <trkpt lat="46.66779" lon="5.92279">
        <ele>795</ele>
        <time>2022-06-06T16:34:53Z</time>
      </trkpt>
      <trkpt lat="46.66733" lon="5.92348">
        <ele>798</ele>
        <time>2022-06-06T16:35:05Z</time>
      </trkpt>
      <trkpt lat="46.66684" lon="5.92369">
        <ele>797</ele>
        <time>2022-06-06T16:35:14Z</time>
      </trkpt>
      <trkpt lat="46.66558" lon="5.92385">
        <ele>800</ele>
        <time>2022-06-06T16:35:36Z</time>
      </trkpt>
      <trkpt lat="46.6639" lon="5.92422">
        <ele>798</ele>
        <time>2022-06-06T16:36:06Z</time>
      </trkpt>
      <trkpt lat="46.66374" lon="5.92423">
        <ele>797</ele>
        <time>2022-06-06T16:36:09Z</time>
      </trkpt>
      <trkpt lat="46.6634" lon="5.92416">
        <ele>797</ele>
        <time>2022-06-06T16:36:15Z</time>
      </trkpt>
      <trkpt lat="46.66316" lon="5.92415">
        <ele>797</ele>
        <time>2022-06-06T16:36:20Z</time>
      </trkpt>
      <trkpt lat="46.6628" lon="5.92418">
        <ele>798</ele>
        <time>2022-06-06T16:36:26Z</time>
      </trkpt>
      <trkpt lat="46.66261" lon="5.92425">
        <ele>798</ele>
        <time>2022-06-06T16:36:30Z</time>
      </trkpt>
      <trkpt lat="46.66249" lon="5.92434">
        <ele>798</ele>
        <time>2022-06-06T16:36:32Z</time>
      </trkpt>
      <trkpt lat="46.66238" lon="5.92449">
        <ele>799</ele>
        <time>2022-06-06T16:36:35Z</time>
      </trkpt>
      <trkpt lat="46.6623" lon="5.92464">
        <ele>799</ele>
        <time>2022-06-06T16:36:37Z</time>
      </trkpt>
      <trkpt lat="46.66219" lon="5.92493">
        <ele>799</ele>
        <time>2022-06-06T16:36:41Z</time>
      </trkpt>
      <trkpt lat="46.66189" lon="5.92582">
        <ele>800</ele>
        <time>2022-06-06T16:36:53Z</time>
      </trkpt>
      <trkpt lat="46.66179" lon="5.92596">
        <ele>801</ele>
        <time>2022-06-06T16:36:56Z</time>
      </trkpt>
      <trkpt lat="46.66125" lon="5.92624">
        <ele>800</ele>
        <time>2022-06-06T16:37:06Z</time>
      </trkpt>
      <trkpt lat="46.66116" lon="5.9263">
        <ele>799</ele>
        <time>2022-06-06T16:37:07Z</time>
      </trkpt>
      <trkpt lat="46.66106" lon="5.92645">
        <ele>798</ele>
        <time>2022-06-06T16:37:10Z</time>
      </trkpt>
      <trkpt lat="46.66099" lon="5.92662">
        <ele>796</ele>
        <time>2022-06-06T16:37:12Z</time>
      </trkpt>
      <trkpt lat="46.66084" lon="5.92751">
        <ele>799</ele>
        <time>2022-06-06T16:37:24Z</time>
      </trkpt>
      <trkpt lat="46.66076" lon="5.92789">
        <ele>800</ele>
        <time>2022-06-06T16:37:29Z</time>
      </trkpt>
      <trkpt lat="46.66071" lon="5.92807">
        <ele>800</ele>
        <time>2022-06-06T16:37:31Z</time>
      </trkpt>
      <trkpt lat="46.66063" lon="5.92825">
        <ele>801</ele>
        <time>2022-06-06T16:37:34Z</time>
      </trkpt>
      <trkpt lat="46.66004" lon="5.92894">
        <ele>804</ele>
        <time>2022-06-06T16:37:47Z</time>
      </trkpt>
      <trkpt lat="46.65983" lon="5.92921">
        <ele>806</ele>
        <time>2022-06-06T16:37:52Z</time>
      </trkpt>
      <trkpt lat="46.65969" lon="5.92947">
        <ele>808</ele>
        <time>2022-06-06T16:37:56Z</time>
      </trkpt>
      <trkpt lat="46.65956" lon="5.92966">
        <ele>810</ele>
        <time>2022-06-06T16:37:59Z</time>
      </trkpt>
      <trkpt lat="46.65944" lon="5.92971">
        <ele>810</ele>
        <time>2022-06-06T16:38:01Z</time>
      </trkpt>
      <trkpt lat="46.65914" lon="5.92966">
        <ele>810</ele>
        <time>2022-06-06T16:38:07Z</time>
      </trkpt>
      <trkpt lat="46.65845" lon="5.92944">
        <ele>810</ele>
        <time>2022-06-06T16:38:19Z</time>
      </trkpt>
      <trkpt lat="46.65766" lon="5.92927">
        <ele>808</ele>
        <time>2022-06-06T16:38:34Z</time>
      </trkpt>
      <trkpt lat="46.65721" lon="5.92925">
        <ele>807</ele>
        <time>2022-06-06T16:38:42Z</time>
      </trkpt>
      <trkpt lat="46.65701" lon="5.92928">
        <ele>807</ele>
        <time>2022-06-06T16:38:45Z</time>
      </trkpt>
      <trkpt lat="46.65681" lon="5.92938">
        <ele>806</ele>
        <time>2022-06-06T16:38:49Z</time>
      </trkpt>
      <trkpt lat="46.65663" lon="5.92949">
        <ele>804</ele>
        <time>2022-06-06T16:38:52Z</time>
      </trkpt>
      <trkpt lat="46.65647" lon="5.92966">
        <ele>801</ele>
        <time>2022-06-06T16:38:56Z</time>
      </trkpt>
      <trkpt lat="46.6564" lon="5.92981">
        <ele>798</ele>
        <time>2022-06-06T16:38:58Z</time>
      </trkpt>
      <trkpt lat="46.65638" lon="5.93007">
        <ele>795</ele>
        <time>2022-06-06T16:39:01Z</time>
      </trkpt>
      <trkpt lat="46.6564" lon="5.93029">
        <ele>792</ele>
        <time>2022-06-06T16:39:04Z</time>
      </trkpt>
      <trkpt lat="46.65646" lon="5.9305">
        <ele>789</ele>
        <time>2022-06-06T16:39:07Z</time>
      </trkpt>
      <trkpt lat="46.65655" lon="5.93067">
        <ele>788</ele>
        <time>2022-06-06T16:39:09Z</time>
      </trkpt>
      <trkpt lat="46.65661" lon="5.93072">
        <ele>788</ele>
        <time>2022-06-06T16:39:11Z</time>
      </trkpt>
      <trkpt lat="46.6567" lon="5.93079">
        <ele>788</ele>
        <time>2022-06-06T16:39:13Z</time>
      </trkpt>
      <trkpt lat="46.65722" lon="5.93106">
        <ele>790</ele>
        <time>2022-06-06T16:39:22Z</time>
      </trkpt>
      <trkpt lat="46.65742" lon="5.93123">
        <ele>788</ele>
        <time>2022-06-06T16:39:26Z</time>
      </trkpt>
      <trkpt lat="46.65781" lon="5.93177">
        <ele>785</ele>
        <time>2022-06-06T16:39:36Z</time>
      </trkpt>
      <trkpt lat="46.65834" lon="5.9323">
        <ele>788</ele>
        <time>2022-06-06T16:39:47Z</time>
      </trkpt>
      <trkpt lat="46.65847" lon="5.93247">
        <ele>788</ele>
        <time>2022-06-06T16:39:51Z</time>
      </trkpt>
      <trkpt lat="46.65859" lon="5.93266">
        <ele>787</ele>
        <time>2022-06-06T16:39:54Z</time>
      </trkpt>
      <trkpt lat="46.65879" lon="5.93327">
        <ele>779</ele>
        <time>2022-06-06T16:40:02Z</time>
      </trkpt>
      <trkpt lat="46.6589" lon="5.93348">
        <ele>778</ele>
        <time>2022-06-06T16:40:05Z</time>
      </trkpt>
      <trkpt lat="46.65907" lon="5.93373">
        <ele>777</ele>
        <time>2022-06-06T16:40:10Z</time>
      </trkpt>
      <trkpt lat="46.65944" lon="5.93421">
        <ele>774</ele>
        <time>2022-06-06T16:40:18Z</time>
      </trkpt>
      <trkpt lat="46.65981" lon="5.93461">
        <ele>775</ele>
        <time>2022-06-06T16:40:27Z</time>
      </trkpt>
      <trkpt lat="46.6599" lon="5.93474">
        <ele>774</ele>
        <time>2022-06-06T16:40:29Z</time>
      </trkpt>
      <trkpt lat="46.65998" lon="5.93492">
        <ele>772</ele>
        <time>2022-06-06T16:40:31Z</time>
      </trkpt>
      <trkpt lat="46.66" lon="5.93505">
        <ele>771</ele>
        <time>2022-06-06T16:40:33Z</time>
      </trkpt>
      <trkpt lat="46.65999" lon="5.93534">
        <ele>768</ele>
        <time>2022-06-06T16:40:37Z</time>
      </trkpt>
      <trkpt lat="46.65998" lon="5.93541">
        <ele>767</ele>
        <time>2022-06-06T16:40:37Z</time>
      </trkpt>
      <trkpt lat="46.65987" lon="5.93553">
        <ele>767</ele>
        <time>2022-06-06T16:40:40Z</time>
      </trkpt>
      <trkpt lat="46.65966" lon="5.93563">
        <ele>768</ele>
        <time>2022-06-06T16:40:44Z</time>
      </trkpt>
      <trkpt lat="46.65907" lon="5.93581">
        <ele>774</ele>
        <time>2022-06-06T16:40:55Z</time>
      </trkpt>
      <trkpt lat="46.65894" lon="5.9358">
        <ele>775</ele>
        <time>2022-06-06T16:40:57Z</time>
      </trkpt>
      <trkpt lat="46.65845" lon="5.93556">
        <ele>776</ele>
        <time>2022-06-06T16:41:06Z</time>
      </trkpt>
      <trkpt lat="46.65785" lon="5.93546">
        <ele>778</ele>
        <time>2022-06-06T16:41:17Z</time>
      </trkpt>
      <trkpt lat="46.65762" lon="5.93536">
        <ele>777</ele>
        <time>2022-06-06T16:41:21Z</time>
      </trkpt>
      <trkpt lat="46.65736" lon="5.93528">
        <ele>777</ele>
        <time>2022-06-06T16:41:26Z</time>
      </trkpt>
      <trkpt lat="46.65725" lon="5.93529">
        <ele>777</ele>
        <time>2022-06-06T16:41:28Z</time>
      </trkpt>
      <trkpt lat="46.65709" lon="5.93538">
        <ele>777</ele>
        <time>2022-06-06T16:41:31Z</time>
      </trkpt>
      <trkpt lat="46.65693" lon="5.93563">
        <ele>779</ele>
        <time>2022-06-06T16:41:35Z</time>
      </trkpt>
      <trkpt lat="46.65678" lon="5.93598">
        <ele>781</ele>
        <time>2022-06-06T16:41:40Z</time>
      </trkpt>
      <trkpt lat="46.65669" lon="5.93631">
        <ele>781</ele>
        <time>2022-06-06T16:41:44Z</time>
      </trkpt>
      <trkpt lat="46.65665" lon="5.93657">
        <ele>780</ele>
        <time>2022-06-06T16:41:48Z</time>
      </trkpt>
      <trkpt lat="46.65663" lon="5.93681">
        <ele>780</ele>
        <time>2022-06-06T16:41:51Z</time>
      </trkpt>
      <trkpt lat="46.65668" lon="5.9372">
        <ele>781</ele>
        <time>2022-06-06T16:41:55Z</time>
      </trkpt>
      <trkpt lat="46.65669" lon="5.93754">
        <ele>782</ele>
        <time>2022-06-06T16:42:00Z</time>
      </trkpt>
      <trkpt lat="46.65668" lon="5.93774">
        <ele>782</ele>
        <time>2022-06-06T16:42:02Z</time>
      </trkpt>
      <trkpt lat="46.65661" lon="5.93809">
        <ele>781</ele>
        <time>2022-06-06T16:42:06Z</time>
      </trkpt>
      <trkpt lat="46.65634" lon="5.93883">
        <ele>771</ele>
        <time>2022-06-06T16:42:17Z</time>
      </trkpt>
      <trkpt lat="46.65631" lon="5.93898">
        <ele>768</ele>
        <time>2022-06-06T16:42:19Z</time>
      </trkpt>
      <trkpt lat="46.65631" lon="5.93912">
        <ele>766</ele>
        <time>2022-06-06T16:42:20Z</time>
      </trkpt>
      <trkpt lat="46.65634" lon="5.93943">
        <ele>761</ele>
        <time>2022-06-06T16:42:24Z</time>
      </trkpt>
      <trkpt lat="46.65641" lon="5.93972">
        <ele>757</ele>
        <time>2022-06-06T16:42:28Z</time>
      </trkpt>
      <trkpt lat="46.65681" lon="5.94051">
        <ele>752</ele>
        <time>2022-06-06T16:42:40Z</time>
      </trkpt>
      <trkpt lat="46.65693" lon="5.9408">
        <ele>750</ele>
        <time>2022-06-06T16:42:44Z</time>
      </trkpt>
      <trkpt lat="46.65698" lon="5.94102">
        <ele>749</ele>
        <time>2022-06-06T16:42:47Z</time>
      </trkpt>
      <trkpt lat="46.657" lon="5.94126">
        <ele>746</ele>
        <time>2022-06-06T16:42:50Z</time>
      </trkpt>
      <trkpt lat="46.657" lon="5.9414">
        <ele>745</ele>
        <time>2022-06-06T16:42:52Z</time>
      </trkpt>
      <trkpt lat="46.65696" lon="5.94165">
        <ele>741</ele>
        <time>2022-06-06T16:42:55Z</time>
      </trkpt>
      <trkpt lat="46.65691" lon="5.94182">
        <ele>739</ele>
        <time>2022-06-06T16:42:57Z</time>
      </trkpt>
      <trkpt lat="46.65684" lon="5.94199">
        <ele>736</ele>
        <time>2022-06-06T16:42:59Z</time>
      </trkpt>
      <trkpt lat="46.65675" lon="5.94209">
        <ele>734</ele>
        <time>2022-06-06T16:43:01Z</time>
      </trkpt>
      <trkpt lat="46.65656" lon="5.94217">
        <ele>731</ele>
        <time>2022-06-06T16:43:05Z</time>
      </trkpt>
      <trkpt lat="46.65643" lon="5.94217">
        <ele>728</ele>
        <time>2022-06-06T16:43:07Z</time>
      </trkpt>
      <trkpt lat="46.65632" lon="5.94213">
        <ele>727</ele>
        <time>2022-06-06T16:43:09Z</time>
      </trkpt>
      <trkpt lat="46.65623" lon="5.94204">
        <ele>725</ele>
        <time>2022-06-06T16:43:11Z</time>
      </trkpt>
      <trkpt lat="46.65615" lon="5.94191">
        <ele>725</ele>
        <time>2022-06-06T16:43:13Z</time>
      </trkpt>
      <trkpt lat="46.65584" lon="5.94122">
        <ele>724</ele>
        <time>2022-06-06T16:43:23Z</time>
      </trkpt>
      <trkpt lat="46.65557" lon="5.94076">
        <ele>726</ele>
        <time>2022-06-06T16:43:31Z</time>
      </trkpt>
      <trkpt lat="46.65471" lon="5.93955">
        <ele>734</ele>
        <time>2022-06-06T16:43:52Z</time>
      </trkpt>
      <trkpt lat="46.65464" lon="5.9395">
        <ele>735</ele>
        <time>2022-06-06T16:43:53Z</time>
      </trkpt>
      <trkpt lat="46.65454" lon="5.93948">
        <ele>735</ele>
        <time>2022-06-06T16:43:55Z</time>
      </trkpt>
      <trkpt lat="46.65433" lon="5.93954">
        <ele>733</ele>
        <time>2022-06-06T16:43:59Z</time>
      </trkpt>
      <trkpt lat="46.65451" lon="5.94096">
        <ele>721</ele>
        <time>2022-06-06T16:44:17Z</time>
      </trkpt>
      <trkpt lat="46.65463" lon="5.94093">
        <ele>720</ele>
        <time>2022-06-06T16:44:19Z</time>
      </trkpt>
      <trkpt lat="46.65484" lon="5.94094">
        <ele>719</ele>
        <time>2022-06-06T16:44:23Z</time>
      </trkpt>
      <trkpt lat="46.65497" lon="5.94101">
        <ele>718</ele>
        <time>2022-06-06T16:44:25Z</time>
      </trkpt>
      <trkpt lat="46.65508" lon="5.94111">
        <ele>718</ele>
        <time>2022-06-06T16:44:27Z</time>
      </trkpt>
      <trkpt lat="46.65518" lon="5.94124">
        <ele>718</ele>
        <time>2022-06-06T16:44:30Z</time>
      </trkpt>
      <trkpt lat="46.65528" lon="5.94142">
        <ele>718</ele>
        <time>2022-06-06T16:44:33Z</time>
      </trkpt>
      <trkpt lat="46.65576" lon="5.94262">
        <ele>715</ele>
        <time>2022-06-06T16:44:50Z</time>
      </trkpt>
      <trkpt lat="46.65592" lon="5.94291">
        <ele>716</ele>
        <time>2022-06-06T16:44:54Z</time>
      </trkpt>
      <trkpt lat="46.65607" lon="5.94309">
        <ele>717</ele>
        <time>2022-06-06T16:44:58Z</time>
      </trkpt>
      <trkpt lat="46.656" lon="5.94321">
        <ele>715</ele>
        <time>2022-06-06T16:44:59Z</time>
      </trkpt>
      <trkpt lat="46.65596" lon="5.94334">
        <ele>714</ele>
        <time>2022-06-06T16:45:01Z</time>
      </trkpt>
      <trkpt lat="46.65584" lon="5.94384">
        <ele>713</ele>
        <time>2022-06-06T16:45:08Z</time>
      </trkpt>
      <trkpt lat="46.65573" lon="5.9443">
        <ele>713</ele>
        <time>2022-06-06T16:45:14Z</time>
      </trkpt>
      <trkpt lat="46.65563" lon="5.94489">
        <ele>714</ele>
        <time>2022-06-06T16:45:21Z</time>
      </trkpt>
      <trkpt lat="46.65588" lon="5.94817">
        <ele>720</ele>
        <time>2022-06-06T16:46:01Z</time>
      </trkpt>
      <trkpt lat="46.65593" lon="5.94906">
        <ele>724</ele>
        <time>2022-06-06T16:46:12Z</time>
      </trkpt>
      <trkpt lat="46.65596" lon="5.94977">
        <ele>725</ele>
        <time>2022-06-06T16:46:21Z</time>
      </trkpt>
      <trkpt lat="46.65592" lon="5.95013">
        <ele>725</ele>
        <time>2022-06-06T16:46:25Z</time>
      </trkpt>
      <trkpt lat="46.65586" lon="5.9504">
        <ele>726</ele>
        <time>2022-06-06T16:46:29Z</time>
      </trkpt>
      <trkpt lat="46.65574" lon="5.95071">
        <ele>729</ele>
        <time>2022-06-06T16:46:33Z</time>
      </trkpt>
      <trkpt lat="46.65552" lon="5.95114">
        <ele>734</ele>
        <time>2022-06-06T16:46:40Z</time>
      </trkpt>
      <trkpt lat="46.65544" lon="5.95135">
        <ele>736</ele>
        <time>2022-06-06T16:46:43Z</time>
      </trkpt>
      <trkpt lat="46.65539" lon="5.95154">
        <ele>737</ele>
        <time>2022-06-06T16:46:45Z</time>
      </trkpt>
      <trkpt lat="46.65537" lon="5.95183">
        <ele>738</ele>
        <time>2022-06-06T16:46:49Z</time>
      </trkpt>
      <trkpt lat="46.6554" lon="5.95214">
        <ele>739</ele>
        <time>2022-06-06T16:46:53Z</time>
      </trkpt>
      <trkpt lat="46.65575" lon="5.95393">
        <ele>742</ele>
        <time>2022-06-06T16:47:15Z</time>
      </trkpt>
      <trkpt lat="46.65581" lon="5.95444">
        <ele>743</ele>
        <time>2022-06-06T16:47:22Z</time>
      </trkpt>
      <trkpt lat="46.65579" lon="5.95619">
        <ele>746</ele>
        <time>2022-06-06T16:47:43Z</time>
      </trkpt>
      <trkpt lat="46.6558" lon="5.95655">
        <ele>746</ele>
        <time>2022-06-06T16:47:47Z</time>
      </trkpt>
      <trkpt lat="46.6559" lon="5.95753">
        <ele>746</ele>
        <time>2022-06-06T16:47:59Z</time>
      </trkpt>
      <trkpt lat="46.65598" lon="5.95795">
        <ele>747</ele>
        <time>2022-06-06T16:48:05Z</time>
      </trkpt>
      <trkpt lat="46.65607" lon="5.95821">
        <ele>748</ele>
        <time>2022-06-06T16:48:08Z</time>
      </trkpt>
      <trkpt lat="46.65623" lon="5.95845">
        <ele>749</ele>
        <time>2022-06-06T16:48:12Z</time>
      </trkpt>
      <trkpt lat="46.65654" lon="5.95877">
        <ele>750</ele>
        <time>2022-06-06T16:48:19Z</time>
      </trkpt>
      <trkpt lat="46.65738" lon="5.9595">
        <ele>753</ele>
        <time>2022-06-06T16:48:37Z</time>
      </trkpt>
      <trkpt lat="46.65827" lon="5.96034">
        <ele>759</ele>
        <time>2022-06-06T16:48:55Z</time>
      </trkpt>
      <trkpt lat="46.65837" lon="5.96049">
        <ele>760</ele>
        <time>2022-06-06T16:48:58Z</time>
      </trkpt>
      <trkpt lat="46.65844" lon="5.96073">
        <ele>761</ele>
        <time>2022-06-06T16:49:01Z</time>
      </trkpt>
      <trkpt lat="46.65869" lon="5.96235">
        <ele>766</ele>
        <time>2022-06-06T16:49:21Z</time>
      </trkpt>
      <trkpt lat="46.6587" lon="5.96249">
        <ele>767</ele>
        <time>2022-06-06T16:49:23Z</time>
      </trkpt>
      <trkpt lat="46.65868" lon="5.96264">
        <ele>768</ele>
        <time>2022-06-06T16:49:25Z</time>
      </trkpt>
      <trkpt lat="46.65864" lon="5.96275">
        <ele>769</ele>
        <time>2022-06-06T16:49:27Z</time>
      </trkpt>
      <trkpt lat="46.65855" lon="5.96286">
        <ele>769</ele>
        <time>2022-06-06T16:49:29Z</time>
      </trkpt>
      <trkpt lat="46.65794" lon="5.96337">
        <ele>771</ele>
        <time>2022-06-06T16:49:41Z</time>
      </trkpt>
      <trkpt lat="46.65779" lon="5.96352">
        <ele>772</ele>
        <time>2022-06-06T16:49:44Z</time>
      </trkpt>
      <trkpt lat="46.65771" lon="5.96363">
        <ele>772</ele>
        <time>2022-06-06T16:49:46Z</time>
      </trkpt>
      <trkpt lat="46.65765" lon="5.96385">
        <ele>773</ele>
        <time>2022-06-06T16:49:49Z</time>
      </trkpt>
      <trkpt lat="46.6576" lon="5.96441">
        <ele>774</ele>
        <time>2022-06-06T16:49:56Z</time>
      </trkpt>
      <trkpt lat="46.65769" lon="5.96584">
        <ele>778</ele>
        <time>2022-06-06T16:50:14Z</time>
      </trkpt>
      <trkpt lat="46.65786" lon="5.968">
        <ele>781</ele>
        <time>2022-06-06T16:50:40Z</time>
      </trkpt>
      <trkpt lat="46.6579" lon="5.96892">
        <ele>782</ele>
        <time>2022-06-06T16:50:52Z</time>
      </trkpt>
      <trkpt lat="46.65797" lon="5.96917">
        <ele>782</ele>
        <time>2022-06-06T16:50:55Z</time>
      </trkpt>
      <trkpt lat="46.6583" lon="5.96991">
        <ele>774</ele>
        <time>2022-06-06T16:51:06Z</time>
      </trkpt>
      <trkpt lat="46.65858" lon="5.9706">
        <ele>770</ele>
        <time>2022-06-06T16:51:15Z</time>
      </trkpt>
      <trkpt lat="46.65886" lon="5.97106">
        <ele>768</ele>
        <time>2022-06-06T16:51:23Z</time>
      </trkpt>
      <trkpt lat="46.65892" lon="5.97121">
        <ele>768</ele>
        <time>2022-06-06T16:51:25Z</time>
      </trkpt>
      <trkpt lat="46.65895" lon="5.97133">
        <ele>768</ele>
        <time>2022-06-06T16:51:27Z</time>
      </trkpt>
      <trkpt lat="46.65895" lon="5.97145">
        <ele>767</ele>
        <time>2022-06-06T16:51:28Z</time>
      </trkpt>
      <trkpt lat="46.6589" lon="5.97166">
        <ele>766</ele>
        <time>2022-06-06T16:51:31Z</time>
      </trkpt>
      <trkpt lat="46.65873" lon="5.97204">
        <ele>763</ele>
        <time>2022-06-06T16:51:36Z</time>
      </trkpt>
      <trkpt lat="46.65778" lon="5.97436">
        <ele>748</ele>
        <time>2022-06-06T16:52:09Z</time>
      </trkpt>
      <trkpt lat="46.65757" lon="5.97503">
        <ele>747</ele>
        <time>2022-06-06T16:52:18Z</time>
      </trkpt>
      <trkpt lat="46.65751" lon="5.97543">
        <ele>748</ele>
        <time>2022-06-06T16:52:23Z</time>
      </trkpt>
      <trkpt lat="46.65742" lon="5.97671">
        <ele>752</ele>
        <time>2022-06-06T16:52:39Z</time>
      </trkpt>
      <trkpt lat="46.65736" lon="5.97701">
        <ele>753</ele>
        <time>2022-06-06T16:52:43Z</time>
      </trkpt>
      <trkpt lat="46.65701" lon="5.97807">
        <ele>761</ele>
        <time>2022-06-06T16:52:57Z</time>
      </trkpt>
      <trkpt lat="46.65695" lon="5.9785">
        <ele>760</ele>
        <time>2022-06-06T16:53:03Z</time>
      </trkpt>
      <trkpt lat="46.65694" lon="5.97879">
        <ele>756</ele>
        <time>2022-06-06T16:53:06Z</time>
      </trkpt>
      <trkpt lat="46.65689" lon="5.97904">
        <ele>755</ele>
        <time>2022-06-06T16:53:09Z</time>
      </trkpt>
      <trkpt lat="46.65667" lon="5.97977">
        <ele>753</ele>
        <time>2022-06-06T16:53:19Z</time>
      </trkpt>
      <trkpt lat="46.65653" lon="5.98056">
        <ele>748</ele>
        <time>2022-06-06T16:53:29Z</time>
      </trkpt>
      <trkpt lat="46.65641" lon="5.98104">
        <ele>748</ele>
        <time>2022-06-06T16:53:35Z</time>
      </trkpt>
      <trkpt lat="46.6562" lon="5.98205">
        <ele>748</ele>
        <time>2022-06-06T16:53:48Z</time>
      </trkpt>
      <trkpt lat="46.6559" lon="5.98374">
        <ele>750</ele>
        <time>2022-06-06T16:54:09Z</time>
      </trkpt>
      <trkpt lat="46.65586" lon="5.98391">
        <ele>750</ele>
        <time>2022-06-06T16:54:12Z</time>
      </trkpt>
      <trkpt lat="46.65573" lon="5.98429">
        <ele>756</ele>
        <time>2022-06-06T16:54:17Z</time>
      </trkpt>
      <trkpt lat="46.65556" lon="5.98463">
        <ele>763</ele>
        <time>2022-06-06T16:54:22Z</time>
      </trkpt>
      <trkpt lat="46.65519" lon="5.98531">
        <ele>762</ele>
        <time>2022-06-06T16:54:33Z</time>
      </trkpt>
      <trkpt lat="46.65506" lon="5.98559">
        <ele>758</ele>
        <time>2022-06-06T16:54:37Z</time>
      </trkpt>
      <trkpt lat="46.65487" lon="5.98615">
        <ele>753</ele>
        <time>2022-06-06T16:54:44Z</time>
      </trkpt>
      <trkpt lat="46.65466" lon="5.9866">
        <ele>752</ele>
        <time>2022-06-06T16:54:51Z</time>
      </trkpt>
      <trkpt lat="46.65439" lon="5.98715">
        <ele>747</ele>
        <time>2022-06-06T16:54:59Z</time>
      </trkpt>
      <trkpt lat="46.65421" lon="5.98738">
        <ele>746</ele>
        <time>2022-06-06T16:55:03Z</time>
      </trkpt>
      <trkpt lat="46.65407" lon="5.98763">
        <ele>747</ele>
        <time>2022-06-06T16:55:07Z</time>
      </trkpt>
      <trkpt lat="46.65398" lon="5.98786">
        <ele>750</ele>
        <time>2022-06-06T16:55:11Z</time>
      </trkpt>
      <trkpt lat="46.65393" lon="5.98809">
        <ele>752</ele>
        <time>2022-06-06T16:55:14Z</time>
      </trkpt>
      <trkpt lat="46.65389" lon="5.98833">
        <ele>754</ele>
        <time>2022-06-06T16:55:17Z</time>
      </trkpt>
      <trkpt lat="46.65388" lon="5.98858">
        <ele>754</ele>
        <time>2022-06-06T16:55:20Z</time>
      </trkpt>
      <trkpt lat="46.65392" lon="5.98904">
        <ele>752</ele>
        <time>2022-06-06T16:55:25Z</time>
      </trkpt>
      <trkpt lat="46.65393" lon="5.98938">
        <ele>752</ele>
        <time>2022-06-06T16:55:29Z</time>
      </trkpt>
      <trkpt lat="46.6539" lon="5.9904">
        <ele>754</ele>
        <time>2022-06-06T16:55:42Z</time>
      </trkpt>
      <trkpt lat="46.65392" lon="5.99066">
        <ele>753</ele>
        <time>2022-06-06T16:55:45Z</time>
      </trkpt>
      <trkpt lat="46.65392" lon="5.99098">
        <ele>754</ele>
        <time>2022-06-06T16:55:49Z</time>
      </trkpt>
      <trkpt lat="46.65386" lon="5.9915">
        <ele>756</ele>
        <time>2022-06-06T16:55:55Z</time>
      </trkpt>
      <trkpt lat="46.65378" lon="5.9919">
        <ele>756</ele>
        <time>2022-06-06T16:56:01Z</time>
      </trkpt>
      <trkpt lat="46.65274" lon="5.99574">
        <ele>747</ele>
        <time>2022-06-06T16:56:51Z</time>
      </trkpt>
      <trkpt lat="46.6526" lon="5.99619">
        <ele>747</ele>
        <time>2022-06-06T16:56:57Z</time>
      </trkpt>
      <trkpt lat="46.65242" lon="5.99649">
        <ele>749</ele>
        <time>2022-06-06T16:57:02Z</time>
      </trkpt>
      <trkpt lat="46.6522" lon="5.99679">
        <ele>753</ele>
        <time>2022-06-06T16:57:07Z</time>
      </trkpt>
      <trkpt lat="46.652" lon="5.99718">
        <ele>752</ele>
        <time>2022-06-06T16:57:13Z</time>
      </trkpt>
      <trkpt lat="46.65183" lon="5.99766">
        <ele>748</ele>
        <time>2022-06-06T16:57:20Z</time>
      </trkpt>
      <trkpt lat="46.65178" lon="5.99826">
        <ele>743</ele>
        <time>2022-06-06T16:57:27Z</time>
      </trkpt>
      <trkpt lat="46.65172" lon="5.99875">
        <ele>740</ele>
        <time>2022-06-06T16:57:33Z</time>
      </trkpt>
      <trkpt lat="46.65168" lon="5.99896">
        <ele>740</ele>
        <time>2022-06-06T16:57:36Z</time>
      </trkpt>
      <trkpt lat="46.65154" lon="5.99939">
        <ele>743</ele>
        <time>2022-06-06T16:57:42Z</time>
      </trkpt>
      <trkpt lat="46.65137" lon="6.00017">
        <ele>745</ele>
        <time>2022-06-06T16:57:52Z</time>
      </trkpt>
      <trkpt lat="46.65121" lon="6.00067">
        <ele>747</ele>
        <time>2022-06-06T16:57:58Z</time>
      </trkpt>
      <trkpt lat="46.65118" lon="6.00086">
        <ele>747</ele>
        <time>2022-06-06T16:58:01Z</time>
      </trkpt>
      <trkpt lat="46.6512" lon="6.00188">
        <ele>738</ele>
        <time>2022-06-06T16:58:13Z</time>
      </trkpt>
      <trkpt lat="46.65115" lon="6.00226">
        <ele>738</ele>
        <time>2022-06-06T16:58:18Z</time>
      </trkpt>
      <trkpt lat="46.65103" lon="6.00262">
        <ele>740</ele>
        <time>2022-06-06T16:58:23Z</time>
      </trkpt>
      <trkpt lat="46.65079" lon="6.00312">
        <ele>745</ele>
        <time>2022-06-06T16:58:30Z</time>
      </trkpt>
      <trkpt lat="46.65074" lon="6.00332">
        <ele>746</ele>
        <time>2022-06-06T16:58:33Z</time>
      </trkpt>
      <trkpt lat="46.65062" lon="6.0046">
        <ele>736</ele>
        <time>2022-06-06T16:58:49Z</time>
      </trkpt>
      <trkpt lat="46.6505" lon="6.00509">
        <ele>733</ele>
        <time>2022-06-06T16:58:55Z</time>
      </trkpt>
      <trkpt lat="46.65037" lon="6.00544">
        <ele>732</ele>
        <time>2022-06-06T16:59:00Z</time>
      </trkpt>
      <trkpt lat="46.65009" lon="6.0059">
        <ele>732</ele>
        <time>2022-06-06T16:59:07Z</time>
      </trkpt>
      <trkpt lat="46.64967" lon="6.0065">
        <ele>732</ele>
        <time>2022-06-06T16:59:18Z</time>
      </trkpt>
      <trkpt lat="46.64944" lon="6.00675">
        <ele>732</ele>
        <time>2022-06-06T16:59:23Z</time>
      </trkpt>
      <trkpt lat="46.64926" lon="6.00686">
        <ele>733</ele>
        <time>2022-06-06T16:59:26Z</time>
      </trkpt>
      <trkpt lat="46.64837" lon="6.00727">
        <ele>733</ele>
        <time>2022-06-06T16:59:43Z</time>
      </trkpt>
      <trkpt lat="46.64813" lon="6.00741">
        <ele>735</ele>
        <time>2022-06-06T16:59:48Z</time>
      </trkpt>
      <trkpt lat="46.64708" lon="6.00841">
        <ele>744</ele>
        <time>2022-06-06T17:00:10Z</time>
      </trkpt>
      <trkpt lat="46.64698" lon="6.00852">
        <ele>746</ele>
        <time>2022-06-06T17:00:12Z</time>
      </trkpt>
      <trkpt lat="46.64681" lon="6.00881">
        <ele>750</ele>
        <time>2022-06-06T17:00:17Z</time>
      </trkpt>
      <trkpt lat="46.64675" lon="6.00897">
        <ele>751</ele>
        <time>2022-06-06T17:00:19Z</time>
      </trkpt>
      <trkpt lat="46.64672" lon="6.00914">
        <ele>753</ele>
        <time>2022-06-06T17:00:21Z</time>
      </trkpt>
      <trkpt lat="46.6467" lon="6.00932">
        <ele>757</ele>
        <time>2022-06-06T17:00:24Z</time>
      </trkpt>
      <trkpt lat="46.64671" lon="6.00954">
        <ele>761</ele>
        <time>2022-06-06T17:00:26Z</time>
      </trkpt>
      <trkpt lat="46.64674" lon="6.00974">
        <ele>764</ele>
        <time>2022-06-06T17:00:29Z</time>
      </trkpt>
      <trkpt lat="46.64678" lon="6.00988">
        <ele>765</ele>
        <time>2022-06-06T17:00:31Z</time>
      </trkpt>
      <trkpt lat="46.64686" lon="6.01009">
        <ele>766</ele>
        <time>2022-06-06T17:00:33Z</time>
      </trkpt>
      <trkpt lat="46.64695" lon="6.01024">
        <ele>766</ele>
        <time>2022-06-06T17:00:36Z</time>
      </trkpt>
      <trkpt lat="46.64718" lon="6.01057">
        <ele>762</ele>
        <time>2022-06-06T17:00:42Z</time>
      </trkpt>
      <trkpt lat="46.64726" lon="6.01072">
        <ele>760</ele>
        <time>2022-06-06T17:00:44Z</time>
      </trkpt>
      <trkpt lat="46.64734" lon="6.01095">
        <ele>760</ele>
        <time>2022-06-06T17:00:47Z</time>
      </trkpt>
      <trkpt lat="46.64751" lon="6.01159">
        <ele>764</ele>
        <time>2022-06-06T17:00:56Z</time>
      </trkpt>
      <trkpt lat="46.64757" lon="6.01191">
        <ele>766</ele>
        <time>2022-06-06T17:01:00Z</time>
      </trkpt>
      <trkpt lat="46.64762" lon="6.01254">
        <ele>771</ele>
        <time>2022-06-06T17:01:07Z</time>
      </trkpt>
      <trkpt lat="46.64761" lon="6.01313">
        <ele>775</ele>
        <time>2022-06-06T17:01:15Z</time>
      </trkpt>
      <trkpt lat="46.64763" lon="6.01337">
        <ele>776</ele>
        <time>2022-06-06T17:01:17Z</time>
      </trkpt>
      <trkpt lat="46.64792" lon="6.01479">
        <ele>780</ele>
        <time>2022-06-06T17:01:36Z</time>
      </trkpt>
      <trkpt lat="46.64796" lon="6.01517">
        <ele>783</ele>
        <time>2022-06-06T17:01:40Z</time>
      </trkpt>
      <trkpt lat="46.64797" lon="6.01664">
        <ele>788</ele>
        <time>2022-06-06T17:01:58Z</time>
      </trkpt>
      <trkpt lat="46.64793" lon="6.01695">
        <ele>790</ele>
        <time>2022-06-06T17:02:02Z</time>
      </trkpt>
      <trkpt lat="46.6475" lon="6.0188">
        <ele>805</ele>
        <time>2022-06-06T17:02:26Z</time>
      </trkpt>
      <trkpt lat="46.64742" lon="6.01904">
        <ele>805</ele>
        <time>2022-06-06T17:02:29Z</time>
      </trkpt>
      <trkpt lat="46.64711" lon="6.01977">
        <ele>807</ele>
        <time>2022-06-06T17:02:40Z</time>
      </trkpt>
      <trkpt lat="46.64703" lon="6.02001">
        <ele>806</ele>
        <time>2022-06-06T17:02:43Z</time>
      </trkpt>
      <trkpt lat="46.64696" lon="6.02041">
        <ele>807</ele>
        <time>2022-06-06T17:02:48Z</time>
      </trkpt>
      <trkpt lat="46.64686" lon="6.02132">
        <ele>804</ele>
        <time>2022-06-06T17:02:59Z</time>
      </trkpt>
      <trkpt lat="46.64682" lon="6.02151">
        <ele>803</ele>
        <time>2022-06-06T17:03:02Z</time>
      </trkpt>
      <trkpt lat="46.64678" lon="6.02162">
        <ele>803</ele>
        <time>2022-06-06T17:03:03Z</time>
      </trkpt>
      <trkpt lat="46.64675" lon="6.02168">
        <ele>803</ele>
        <time>2022-06-06T17:03:04Z</time>
      </trkpt>
      <trkpt lat="46.64666" lon="6.02176">
        <ele>803</ele>
        <time>2022-06-06T17:03:06Z</time>
      </trkpt>
      <trkpt lat="46.64643" lon="6.02184">
        <ele>803</ele>
        <time>2022-06-06T17:03:10Z</time>
      </trkpt>
      <trkpt lat="46.64612" lon="6.02188">
        <ele>806</ele>
        <time>2022-06-06T17:03:16Z</time>
      </trkpt>
      <trkpt lat="46.64575" lon="6.0219">
        <ele>812</ele>
        <time>2022-06-06T17:03:22Z</time>
      </trkpt>
      <trkpt lat="46.6451" lon="6.02215">
        <ele>817</ele>
        <time>2022-06-06T17:03:34Z</time>
      </trkpt>
      <trkpt lat="46.64497" lon="6.02225">
        <ele>816</ele>
        <time>2022-06-06T17:03:37Z</time>
      </trkpt>
      <trkpt lat="46.64435" lon="6.02299">
        <ele>823</ele>
        <time>2022-06-06T17:03:51Z</time>
      </trkpt>
      <trkpt lat="46.64427" lon="6.02312">
        <ele>826</ele>
        <time>2022-06-06T17:03:53Z</time>
      </trkpt>
      <trkpt lat="46.64424" lon="6.02325">
        <ele>828</ele>
        <time>2022-06-06T17:03:55Z</time>
      </trkpt>
      <trkpt lat="46.64422" lon="6.02349">
        <ele>830</ele>
        <time>2022-06-06T17:03:58Z</time>
      </trkpt>
      <trkpt lat="46.64434" lon="6.02512">
        <ele>824</ele>
        <time>2022-06-06T17:04:18Z</time>
      </trkpt>
      <trkpt lat="46.64433" lon="6.02525">
        <ele>823</ele>
        <time>2022-06-06T17:04:20Z</time>
      </trkpt>
      <trkpt lat="46.64429" lon="6.02538">
        <ele>822</ele>
        <time>2022-06-06T17:04:21Z</time>
      </trkpt>
      <trkpt lat="46.6442" lon="6.02549">
        <ele>821</ele>
        <time>2022-06-06T17:04:23Z</time>
      </trkpt>
      <trkpt lat="46.6441" lon="6.02557">
        <ele>821</ele>
        <time>2022-06-06T17:04:25Z</time>
      </trkpt>
      <trkpt lat="46.64388" lon="6.02564">
        <ele>822</ele>
        <time>2022-06-06T17:04:29Z</time>
      </trkpt>
      <trkpt lat="46.64338" lon="6.02571">
        <ele>826</ele>
        <time>2022-06-06T17:04:38Z</time>
      </trkpt>
      <trkpt lat="46.6432" lon="6.02576">
        <ele>825</ele>
        <time>2022-06-06T17:04:42Z</time>
      </trkpt>
      <trkpt lat="46.6429" lon="6.02592">
        <ele>821</ele>
        <time>2022-06-06T17:04:47Z</time>
      </trkpt>
      <trkpt lat="46.64246" lon="6.02622">
        <ele>812</ele>
        <time>2022-06-06T17:04:56Z</time>
      </trkpt>
      <trkpt lat="46.64228" lon="6.02629">
        <ele>810</ele>
        <time>2022-06-06T17:04:59Z</time>
      </trkpt>
      <trkpt lat="46.6418" lon="6.02636">
        <ele>808</ele>
        <time>2022-06-06T17:05:08Z</time>
      </trkpt>
      <trkpt lat="46.64113" lon="6.0265">
        <ele>806</ele>
        <time>2022-06-06T17:05:20Z</time>
      </trkpt>
      <trkpt lat="46.64086" lon="6.02659">
        <ele>805</ele>
        <time>2022-06-06T17:05:25Z</time>
      </trkpt>
      <trkpt lat="46.64042" lon="6.02679">
        <ele>806</ele>
        <time>2022-06-06T17:05:33Z</time>
      </trkpt>
      <trkpt lat="46.63974" lon="6.02721">
        <ele>804</ele>
        <time>2022-06-06T17:05:46Z</time>
      </trkpt>
      <trkpt lat="46.63965" lon="6.02728">
        <ele>804</ele>
        <time>2022-06-06T17:05:48Z</time>
      </trkpt>
      <trkpt lat="46.63946" lon="6.0275">
        <ele>803</ele>
        <time>2022-06-06T17:05:52Z</time>
      </trkpt>
      <trkpt lat="46.63868" lon="6.02852">
        <ele>803</ele>
        <time>2022-06-06T17:06:11Z</time>
      </trkpt>
      <trkpt lat="46.63866" lon="6.02843">
        <ele>804</ele>
        <time>2022-06-06T17:06:12Z</time>
      </trkpt>
      <trkpt lat="46.63869" lon="6.02828">
        <ele>805</ele>
        <time>2022-06-06T17:06:14Z</time>
      </trkpt>
      <trkpt lat="46.63894" lon="6.02731">
        <ele>810</ele>
        <time>2022-06-06T17:06:27Z</time>
      </trkpt>
      <trkpt lat="46.63906" lon="6.02706">
        <ele>811</ele>
        <time>2022-06-06T17:06:30Z</time>
      </trkpt>
      <trkpt lat="46.63914" lon="6.02697">
        <ele>811</ele>
        <time>2022-06-06T17:06:32Z</time>
      </trkpt>
      <trkpt lat="46.63937" lon="6.02678">
        <ele>812</ele>
        <time>2022-06-06T17:06:37Z</time>
      </trkpt>
      <trkpt lat="46.63951" lon="6.02661">
        <ele>814</ele>
        <time>2022-06-06T17:06:40Z</time>
      </trkpt>
      <trkpt lat="46.63953" lon="6.02652">
        <ele>814</ele>
        <time>2022-06-06T17:06:41Z</time>
      </trkpt>
      <trkpt lat="46.63955" lon="6.02637">
        <ele>815</ele>
        <time>2022-06-06T17:06:43Z</time>
      </trkpt>
      <trkpt lat="46.63954" lon="6.02624">
        <ele>816</ele>
        <time>2022-06-06T17:06:45Z</time>
      </trkpt>
      <trkpt lat="46.63942" lon="6.0257">
        <ele>819</ele>
        <time>2022-06-06T17:06:52Z</time>
      </trkpt>
      <trkpt lat="46.63936" lon="6.0256">
        <ele>820</ele>
        <time>2022-06-06T17:06:53Z</time>
      </trkpt>
      <trkpt lat="46.63924" lon="6.02552">
        <ele>820</ele>
        <time>2022-06-06T17:06:56Z</time>
      </trkpt>
      <trkpt lat="46.6389" lon="6.02548">
        <ele>819</ele>
        <time>2022-06-06T17:07:02Z</time>
      </trkpt>
      <trkpt lat="46.63874" lon="6.0254">
        <ele>819</ele>
        <time>2022-06-06T17:07:05Z</time>
      </trkpt>
      <trkpt lat="46.63864" lon="6.02524">
        <ele>819</ele>
        <time>2022-06-06T17:07:07Z</time>
      </trkpt>
      <trkpt lat="46.6386" lon="6.02481">
        <ele>820</ele>
        <time>2022-06-06T17:07:13Z</time>
      </trkpt>
      <trkpt lat="46.63855" lon="6.02367">
        <ele>827</ele>
        <time>2022-06-06T17:07:27Z</time>
      </trkpt>
      <trkpt lat="46.63853" lon="6.02343">
        <ele>829</ele>
        <time>2022-06-06T17:07:30Z</time>
      </trkpt>
      <trkpt lat="46.63847" lon="6.0232">
        <ele>831</ele>
        <time>2022-06-06T17:07:33Z</time>
      </trkpt>
      <trkpt lat="46.63843" lon="6.0231">
        <ele>832</ele>
        <time>2022-06-06T17:07:34Z</time>
      </trkpt>
      <trkpt lat="46.63837" lon="6.02301">
        <ele>833</ele>
        <time>2022-06-06T17:07:36Z</time>
      </trkpt>
      <trkpt lat="46.63801" lon="6.02266">
        <ele>842</ele>
        <time>2022-06-06T17:07:43Z</time>
      </trkpt>
      <trkpt lat="46.63774" lon="6.02242">
        <ele>848</ele>
        <time>2022-06-06T17:07:49Z</time>
      </trkpt>
      <trkpt lat="46.63758" lon="6.02237">
        <ele>851</ele>
        <time>2022-06-06T17:07:52Z</time>
      </trkpt>
      <trkpt lat="46.63748" lon="6.02239">
        <ele>852</ele>
        <time>2022-06-06T17:07:54Z</time>
      </trkpt>
      <trkpt lat="46.63737" lon="6.02245">
        <ele>852</ele>
        <time>2022-06-06T17:07:56Z</time>
      </trkpt>
      <trkpt lat="46.63664" lon="6.02335">
        <ele>851</ele>
        <time>2022-06-06T17:08:13Z</time>
      </trkpt>
      <trkpt lat="46.63636" lon="6.02362">
        <ele>845</ele>
        <time>2022-06-06T17:08:19Z</time>
      </trkpt>
      <trkpt lat="46.63618" lon="6.02372">
        <ele>844</ele>
        <time>2022-06-06T17:08:22Z</time>
      </trkpt>
      <trkpt lat="46.63598" lon="6.0237">
        <ele>845</ele>
        <time>2022-06-06T17:08:26Z</time>
      </trkpt>
      <trkpt lat="46.63583" lon="6.02361">
        <ele>847</ele>
        <time>2022-06-06T17:08:29Z</time>
      </trkpt>
      <trkpt lat="46.63567" lon="6.02331">
        <ele>850</ele>
        <time>2022-06-06T17:08:33Z</time>
      </trkpt>
      <trkpt lat="46.6356" lon="6.02322">
        <ele>851</ele>
        <time>2022-06-06T17:08:35Z</time>
      </trkpt>
      <trkpt lat="46.63547" lon="6.02315">
        <ele>850</ele>
        <time>2022-06-06T17:08:37Z</time>
      </trkpt>
      <trkpt lat="46.63516" lon="6.02311">
        <ele>848</ele>
        <time>2022-06-06T17:08:43Z</time>
      </trkpt>
      <trkpt lat="46.63509" lon="6.02307">
        <ele>848</ele>
        <time>2022-06-06T17:08:44Z</time>
      </trkpt>
      <trkpt lat="46.63496" lon="6.02293">
        <ele>850</ele>
        <time>2022-06-06T17:08:47Z</time>
      </trkpt>
      <trkpt lat="46.63462" lon="6.02236">
        <ele>858</ele>
        <time>2022-06-06T17:08:56Z</time>
      </trkpt>
      <trkpt lat="46.63458" lon="6.02231">
        <ele>859</ele>
        <time>2022-06-06T17:08:57Z</time>
      </trkpt>
      <trkpt lat="46.6345" lon="6.02226">
        <ele>859</ele>
        <time>2022-06-06T17:08:59Z</time>
      </trkpt>
      <trkpt lat="46.63422" lon="6.02219">
        <ele>859</ele>
        <time>2022-06-06T17:09:04Z</time>
      </trkpt>
      <trkpt lat="46.63409" lon="6.02218">
        <ele>861</ele>
        <time>2022-06-06T17:09:06Z</time>
      </trkpt>
      <trkpt lat="46.63398" lon="6.0222">
        <ele>862</ele>
        <time>2022-06-06T17:09:08Z</time>
      </trkpt>
      <trkpt lat="46.63366" lon="6.0224">
        <ele>865</ele>
        <time>2022-06-06T17:09:14Z</time>
      </trkpt>
      <trkpt lat="46.63344" lon="6.0225">
        <ele>868</ele>
        <time>2022-06-06T17:09:18Z</time>
      </trkpt>
      <trkpt lat="46.63334" lon="6.02252">
        <ele>870</ele>
        <time>2022-06-06T17:09:20Z</time>
      </trkpt>
      <trkpt lat="46.63325" lon="6.0225">
        <ele>869</ele>
        <time>2022-06-06T17:09:22Z</time>
      </trkpt>
      <trkpt lat="46.6331" lon="6.0224">
        <ele>868</ele>
        <time>2022-06-06T17:09:25Z</time>
      </trkpt>
      <trkpt lat="46.63303" lon="6.02231">
        <ele>868</ele>
        <time>2022-06-06T17:09:26Z</time>
      </trkpt>
      <trkpt lat="46.63296" lon="6.02218">
        <ele>868</ele>
        <time>2022-06-06T17:09:28Z</time>
      </trkpt>
      <trkpt lat="46.63277" lon="6.02168">
        <ele>870</ele>
        <time>2022-06-06T17:09:35Z</time>
      </trkpt>
      <trkpt lat="46.63258" lon="6.0213">
        <ele>871</ele>
        <time>2022-06-06T17:09:41Z</time>
      </trkpt>
      <trkpt lat="46.63228" lon="6.0209">
        <ele>873</ele>
        <time>2022-06-06T17:09:48Z</time>
      </trkpt>
      <trkpt lat="46.63217" lon="6.02072">
        <ele>874</ele>
        <time>2022-06-06T17:09:51Z</time>
      </trkpt>
      <trkpt lat="46.63204" lon="6.02008">
        <ele>880</ele>
        <time>2022-06-06T17:09:59Z</time>
      </trkpt>
      <trkpt lat="46.63201" lon="6.01995">
        <ele>880</ele>
        <time>2022-06-06T17:10:01Z</time>
      </trkpt>
      <trkpt lat="46.63195" lon="6.01985">
        <ele>881</ele>
        <time>2022-06-06T17:10:03Z</time>
      </trkpt>
      <trkpt lat="46.6319" lon="6.01979">
        <ele>881</ele>
        <time>2022-06-06T17:10:04Z</time>
      </trkpt>
      <trkpt lat="46.63182" lon="6.01975">
        <ele>881</ele>
        <time>2022-06-06T17:10:05Z</time>
      </trkpt>
      <trkpt lat="46.63174" lon="6.01975">
        <ele>880</ele>
        <time>2022-06-06T17:10:07Z</time>
      </trkpt>
      <trkpt lat="46.63163" lon="6.01977">
        <ele>880</ele>
        <time>2022-06-06T17:10:09Z</time>
      </trkpt>
      <trkpt lat="46.63129" lon="6.01994">
        <ele>881</ele>
        <time>2022-06-06T17:10:15Z</time>
      </trkpt>
      <trkpt lat="46.6313" lon="6.01984">
        <ele>881</ele>
        <time>2022-06-06T17:10:16Z</time>
      </trkpt>
      <trkpt lat="46.63132" lon="6.01977">
        <ele>881</ele>
        <time>2022-06-06T17:10:17Z</time>
      </trkpt>
      <trkpt lat="46.63142" lon="6.01961">
        <ele>881</ele>
        <time>2022-06-06T17:10:20Z</time>
      </trkpt>
      <trkpt lat="46.63147" lon="6.01946">
        <ele>882</ele>
        <time>2022-06-06T17:10:22Z</time>
      </trkpt>
      <trkpt lat="46.63154" lon="6.01899">
        <ele>883</ele>
        <time>2022-06-06T17:10:28Z</time>
      </trkpt>
      <trkpt lat="46.63158" lon="6.01885">
        <ele>884</ele>
        <time>2022-06-06T17:10:30Z</time>
      </trkpt>
      <trkpt lat="46.63165" lon="6.01877">
        <ele>884</ele>
        <time>2022-06-06T17:10:31Z</time>
      </trkpt>
      <trkpt lat="46.63176" lon="6.0187">
        <ele>884</ele>
        <time>2022-06-06T17:10:34Z</time>
      </trkpt>
      <trkpt lat="46.63198" lon="6.01838">
        <ele>886</ele>
        <time>2022-06-06T17:10:39Z</time>
      </trkpt>
      <trkpt lat="46.63237" lon="6.01832">
        <ele>888</ele>
        <time>2022-06-06T17:10:46Z</time>
      </trkpt>
      <trkpt lat="46.63251" lon="6.01824">
        <ele>888</ele>
        <time>2022-06-06T17:10:49Z</time>
      </trkpt>
      <trkpt lat="46.6326" lon="6.01808">
        <ele>889</ele>
        <time>2022-06-06T17:10:51Z</time>
      </trkpt>
      <trkpt lat="46.63265" lon="6.01776">
        <ele>890</ele>
        <time>2022-06-06T17:10:55Z</time>
      </trkpt>
      <trkpt lat="46.63265" lon="6.01744">
        <ele>890</ele>
        <time>2022-06-06T17:10:59Z</time>
      </trkpt>
      <trkpt lat="46.6326" lon="6.01711">
        <ele>890</ele>
        <time>2022-06-06T17:11:03Z</time>
      </trkpt>
      <trkpt lat="46.63247" lon="6.01651">
        <ele>889</ele>
        <time>2022-06-06T17:11:11Z</time>
      </trkpt>
      <trkpt lat="46.63238" lon="6.0159">
        <ele>890</ele>
        <time>2022-06-06T17:11:19Z</time>
      </trkpt>
      <trkpt lat="46.63238" lon="6.01551">
        <ele>888</ele>
        <time>2022-06-06T17:11:23Z</time>
      </trkpt>
      <trkpt lat="46.63242" lon="6.01517">
        <ele>886</ele>
        <time>2022-06-06T17:11:28Z</time>
      </trkpt>
      <trkpt lat="46.6328" lon="6.01444">
        <ele>885</ele>
        <time>2022-06-06T17:11:39Z</time>
      </trkpt>
      <trkpt lat="46.63312" lon="6.01407">
        <ele>883</ele>
        <time>2022-06-06T17:11:46Z</time>
      </trkpt>
      <trkpt lat="46.63327" lon="6.01396">
        <ele>883</ele>
        <time>2022-06-06T17:11:49Z</time>
      </trkpt>
      <trkpt lat="46.63348" lon="6.01392">
        <ele>883</ele>
        <time>2022-06-06T17:11:53Z</time>
      </trkpt>
      <trkpt lat="46.6338" lon="6.01375">
        <ele>881</ele>
        <time>2022-06-06T17:11:59Z</time>
      </trkpt>
      <trkpt lat="46.63394" lon="6.01373">
        <ele>881</ele>
        <time>2022-06-06T17:12:01Z</time>
      </trkpt>
      <trkpt lat="46.63434" lon="6.01377">
        <ele>880</ele>
        <time>2022-06-06T17:12:08Z</time>
      </trkpt>
      <trkpt lat="46.63448" lon="6.01381">
        <ele>880</ele>
        <time>2022-06-06T17:12:11Z</time>
      </trkpt>
      <trkpt lat="46.63468" lon="6.0137">
        <ele>879</ele>
        <time>2022-06-06T17:12:15Z</time>
      </trkpt>
      <trkpt lat="46.63482" lon="6.01353">
        <ele>878</ele>
        <time>2022-06-06T17:12:18Z</time>
      </trkpt>
      <trkpt lat="46.63484" lon="6.01333">
        <ele>878</ele>
        <time>2022-06-06T17:12:21Z</time>
      </trkpt>
      <trkpt lat="46.63466" lon="6.01271">
        <ele>880</ele>
        <time>2022-06-06T17:12:29Z</time>
      </trkpt>
      <trkpt lat="46.63423" lon="6.0114">
        <ele>883</ele>
        <time>2022-06-06T17:12:47Z</time>
      </trkpt>
      <trkpt lat="46.63409" lon="6.01089">
        <ele>885</ele>
        <time>2022-06-06T17:12:53Z</time>
      </trkpt>
      <trkpt lat="46.63398" lon="6.00992">
        <ele>888</ele>
        <time>2022-06-06T17:13:05Z</time>
      </trkpt>
      <trkpt lat="46.63375" lon="6.00942">
        <ele>889</ele>
        <time>2022-06-06T17:13:13Z</time>
      </trkpt>
      <trkpt lat="46.63353" lon="6.00889">
        <ele>888</ele>
        <time>2022-06-06T17:13:20Z</time>
      </trkpt>
      <trkpt lat="46.63319" lon="6.0083">
        <ele>887</ele>
        <time>2022-06-06T17:13:30Z</time>
      </trkpt>
      <trkpt lat="46.63266" lon="6.00775">
        <ele>885</ele>
        <time>2022-06-06T17:13:41Z</time>
      </trkpt>
      <trkpt lat="46.6325" lon="6.00745">
        <ele>886</ele>
        <time>2022-06-06T17:13:46Z</time>
      </trkpt>
      <trkpt lat="46.63238" lon="6.00735">
        <ele>886</ele>
        <time>2022-06-06T17:13:48Z</time>
      </trkpt>
      <trkpt lat="46.63225" lon="6.00708">
        <ele>887</ele>
        <time>2022-06-06T17:13:52Z</time>
      </trkpt>
      <trkpt lat="46.63213" lon="6.00699">
        <ele>888</ele>
        <time>2022-06-06T17:13:55Z</time>
      </trkpt>
      <trkpt lat="46.63203" lon="6.00697">
        <ele>888</ele>
        <time>2022-06-06T17:13:56Z</time>
      </trkpt>
      <trkpt lat="46.63166" lon="6.00728">
        <ele>883</ele>
        <time>2022-06-06T17:14:04Z</time>
      </trkpt>
      <trkpt lat="46.6315" lon="6.00727">
        <ele>882</ele>
        <time>2022-06-06T17:14:07Z</time>
      </trkpt>
      <trkpt lat="46.63133" lon="6.00716">
        <ele>882</ele>
        <time>2022-06-06T17:14:10Z</time>
      </trkpt>
      <trkpt lat="46.63116" lon="6.007">
        <ele>882</ele>
        <time>2022-06-06T17:14:14Z</time>
      </trkpt>
      <trkpt lat="46.63064" lon="6.00602">
        <ele>886</ele>
        <time>2022-06-06T17:14:29Z</time>
      </trkpt>
      <trkpt lat="46.63054" lon="6.00591">
        <ele>887</ele>
        <time>2022-06-06T17:14:31Z</time>
      </trkpt>
      <trkpt lat="46.63045" lon="6.00588">
        <ele>887</ele>
        <time>2022-06-06T17:14:33Z</time>
      </trkpt>
      <trkpt lat="46.63035" lon="6.00589">
        <ele>887</ele>
        <time>2022-06-06T17:14:35Z</time>
      </trkpt>
      <trkpt lat="46.63017" lon="6.00606">
        <ele>887</ele>
        <time>2022-06-06T17:14:38Z</time>
      </trkpt>
      <trkpt lat="46.63006" lon="6.00623">
        <ele>886</ele>
        <time>2022-06-06T17:14:41Z</time>
      </trkpt>
      <trkpt lat="46.62977" lon="6.00657">
        <ele>888</ele>
        <time>2022-06-06T17:14:48Z</time>
      </trkpt>
      <trkpt lat="46.62951" lon="6.00707">
        <ele>888</ele>
        <time>2022-06-06T17:14:56Z</time>
      </trkpt>
      <trkpt lat="46.62945" lon="6.00716">
        <ele>888</ele>
        <time>2022-06-06T17:14:57Z</time>
      </trkpt>
      <trkpt lat="46.62935" lon="6.00722">
        <ele>888</ele>
        <time>2022-06-06T17:14:59Z</time>
      </trkpt>
      <trkpt lat="46.62838" lon="6.00724">
        <ele>895</ele>
        <time>2022-06-06T17:15:16Z</time>
      </trkpt>
      <trkpt lat="46.62832" lon="6.00723">
        <ele>895</ele>
        <time>2022-06-06T17:15:17Z</time>
      </trkpt>
      <trkpt lat="46.62817" lon="6.00687">
        <ele>898</ele>
        <time>2022-06-06T17:15:23Z</time>
      </trkpt>
      <trkpt lat="46.62806" lon="6.00649">
        <ele>900</ele>
        <time>2022-06-06T17:15:28Z</time>
      </trkpt>
      <trkpt lat="46.62793" lon="6.00591">
        <ele>901</ele>
        <time>2022-06-06T17:15:35Z</time>
      </trkpt>
      <trkpt lat="46.62784" lon="6.0059">
        <ele>901</ele>
        <time>2022-06-06T17:15:37Z</time>
      </trkpt>
      <trkpt lat="46.62787" lon="6.00563">
        <ele>901</ele>
        <time>2022-06-06T17:15:40Z</time>
      </trkpt>
      <trkpt lat="46.62787" lon="6.00548">
        <ele>901</ele>
        <time>2022-06-06T17:15:42Z</time>
      </trkpt>
      <trkpt lat="46.62785" lon="6.00536">
        <ele>900</ele>
        <time>2022-06-06T17:15:43Z</time>
      </trkpt>
      <trkpt lat="46.62779" lon="6.00519">
        <ele>900</ele>
        <time>2022-06-06T17:15:46Z</time>
      </trkpt>
      <trkpt lat="46.62741" lon="6.00455">
        <ele>900</ele>
        <time>2022-06-06T17:15:56Z</time>
      </trkpt>
      <trkpt lat="46.62712" lon="6.0042">
        <ele>898</ele>
        <time>2022-06-06T17:16:03Z</time>
      </trkpt>
      <trkpt lat="46.62681" lon="6.00391">
        <ele>895</ele>
        <time>2022-06-06T17:16:09Z</time>
      </trkpt>
      <trkpt lat="46.62643" lon="6.00361">
        <ele>893</ele>
        <time>2022-06-06T17:16:17Z</time>
      </trkpt>
      <trkpt lat="46.62538" lon="6.00292">
        <ele>890</ele>
        <time>2022-06-06T17:16:37Z</time>
      </trkpt>
      <trkpt lat="46.6253" lon="6.00281">
        <ele>889</ele>
        <time>2022-06-06T17:16:39Z</time>
      </trkpt>
      <trkpt lat="46.62526" lon="6.00274">
        <ele>889</ele>
        <time>2022-06-06T17:16:40Z</time>
      </trkpt>
      <trkpt lat="46.6252" lon="6.00247">
        <ele>889</ele>
        <time>2022-06-06T17:16:44Z</time>
      </trkpt>
      <trkpt lat="46.62514" lon="6.00196">
        <ele>889</ele>
        <time>2022-06-06T17:16:50Z</time>
      </trkpt>
      <trkpt lat="46.62506" lon="6.0016">
        <ele>888</ele>
        <time>2022-06-06T17:16:55Z</time>
      </trkpt>
      <trkpt lat="46.62489" lon="6.00103">
        <ele>887</ele>
        <time>2022-06-06T17:17:02Z</time>
      </trkpt>
      <trkpt lat="46.62454" lon="5.99995">
        <ele>887</ele>
        <time>2022-06-06T17:17:17Z</time>
      </trkpt>
      <trkpt lat="46.62424" lon="5.99891">
        <ele>885</ele>
        <time>2022-06-06T17:17:31Z</time>
      </trkpt>
      <trkpt lat="46.62415" lon="5.9987">
        <ele>884</ele>
        <time>2022-06-06T17:17:34Z</time>
      </trkpt>
      <trkpt lat="46.62379" lon="5.998">
        <ele>886</ele>
        <time>2022-06-06T17:17:45Z</time>
      </trkpt>
      <trkpt lat="46.62362" lon="5.99758">
        <ele>889</ele>
        <time>2022-06-06T17:17:51Z</time>
      </trkpt>
      <trkpt lat="46.62333" lon="5.99697">
        <ele>892</ele>
        <time>2022-06-06T17:18:00Z</time>
      </trkpt>
      <trkpt lat="46.62328" lon="5.99681">
        <ele>892</ele>
        <time>2022-06-06T17:18:02Z</time>
      </trkpt>
      <trkpt lat="46.62326" lon="5.99667">
        <ele>893</ele>
        <time>2022-06-06T17:18:03Z</time>
      </trkpt>
      <trkpt lat="46.62321" lon="5.99615">
        <ele>893</ele>
        <time>2022-06-06T17:18:10Z</time>
      </trkpt>
      <trkpt lat="46.62313" lon="5.99585">
        <ele>894</ele>
        <time>2022-06-06T17:18:14Z</time>
      </trkpt>
      <trkpt lat="46.62302" lon="5.99567">
        <ele>894</ele>
        <time>2022-06-06T17:18:17Z</time>
      </trkpt>
      <trkpt lat="46.62293" lon="5.99558">
        <ele>894</ele>
        <time>2022-06-06T17:18:19Z</time>
      </trkpt>
      <trkpt lat="46.62273" lon="5.99548">
        <ele>894</ele>
        <time>2022-06-06T17:18:22Z</time>
      </trkpt>
      <trkpt lat="46.62253" lon="5.99544">
        <ele>894</ele>
        <time>2022-06-06T17:18:26Z</time>
      </trkpt>
      <trkpt lat="46.62184" lon="5.99545">
        <ele>894</ele>
        <time>2022-06-06T17:18:38Z</time>
      </trkpt>
      <trkpt lat="46.62164" lon="5.9954">
        <ele>894</ele>
        <time>2022-06-06T17:18:42Z</time>
      </trkpt>
      <trkpt lat="46.6207" lon="5.99491">
        <ele>892</ele>
        <time>2022-06-06T17:19:00Z</time>
      </trkpt>
      <trkpt lat="46.62048" lon="5.99476">
        <ele>891</ele>
        <time>2022-06-06T17:19:04Z</time>
      </trkpt>
      <trkpt lat="46.62037" lon="5.99465">
        <ele>891</ele>
        <time>2022-06-06T17:19:06Z</time>
      </trkpt>
      <trkpt lat="46.62" lon="5.99412">
        <ele>890</ele>
        <time>2022-06-06T17:19:16Z</time>
      </trkpt>
      <trkpt lat="46.61967" lon="5.99379">
        <ele>888</ele>
        <time>2022-06-06T17:19:23Z</time>
      </trkpt>
      <trkpt lat="46.61952" lon="5.99358">
        <ele>888</ele>
        <time>2022-06-06T17:19:26Z</time>
      </trkpt>
      <trkpt lat="46.61895" lon="5.99218">
        <ele>887</ele>
        <time>2022-06-06T17:19:46Z</time>
      </trkpt>
      <trkpt lat="46.61877" lon="5.99161">
        <ele>888</ele>
        <time>2022-06-06T17:19:54Z</time>
      </trkpt>
      <trkpt lat="46.61867" lon="5.99119">
        <ele>887</ele>
        <time>2022-06-06T17:19:59Z</time>
      </trkpt>
      <trkpt lat="46.61864" lon="5.99097">
        <ele>887</ele>
        <time>2022-06-06T17:20:02Z</time>
      </trkpt>
      <trkpt lat="46.61863" lon="5.99079">
        <ele>886</ele>
        <time>2022-06-06T17:20:04Z</time>
      </trkpt>
      <trkpt lat="46.61878" lon="5.98927">
        <ele>887</ele>
        <time>2022-06-06T17:20:23Z</time>
      </trkpt>
      <trkpt lat="46.61878" lon="5.98895">
        <ele>886</ele>
        <time>2022-06-06T17:20:27Z</time>
      </trkpt>
      <trkpt lat="46.61876" lon="5.98876">
        <ele>886</ele>
        <time>2022-06-06T17:20:29Z</time>
      </trkpt>
      <trkpt lat="46.6187" lon="5.98842">
        <ele>885</ele>
        <time>2022-06-06T17:20:34Z</time>
      </trkpt>
      <trkpt lat="46.61864" lon="5.98826">
        <ele>884</ele>
        <time>2022-06-06T17:20:36Z</time>
      </trkpt>
      <trkpt lat="46.61821" lon="5.98732">
        <ele>884</ele>
        <time>2022-06-06T17:20:50Z</time>
      </trkpt>
      <trkpt lat="46.61783" lon="5.98645">
        <ele>884</ele>
        <time>2022-06-06T17:21:02Z</time>
      </trkpt>
      <trkpt lat="46.61782" lon="5.98623">
        <ele>884</ele>
        <time>2022-06-06T17:21:05Z</time>
      </trkpt>
      <trkpt lat="46.61788" lon="5.98586">
        <ele>885</ele>
        <time>2022-06-06T17:21:10Z</time>
      </trkpt>
      <trkpt lat="46.6179" lon="5.98526">
        <ele>884</ele>
        <time>2022-06-06T17:21:17Z</time>
      </trkpt>
      <trkpt lat="46.61785" lon="5.98446">
        <ele>883</ele>
        <time>2022-06-06T17:21:27Z</time>
      </trkpt>
      <trkpt lat="46.61787" lon="5.98397">
        <ele>882</ele>
        <time>2022-06-06T17:21:33Z</time>
      </trkpt>
      <trkpt lat="46.61794" lon="5.98331">
        <ele>880</ele>
        <time>2022-06-06T17:21:41Z</time>
      </trkpt>
      <trkpt lat="46.61799" lon="5.98304">
        <ele>879</ele>
        <time>2022-06-06T17:21:44Z</time>
      </trkpt>
      <trkpt lat="46.6181" lon="5.98264">
        <ele>877</ele>
        <time>2022-06-06T17:21:50Z</time>
      </trkpt>
      <trkpt lat="46.61818" lon="5.98219">
        <ele>876</ele>
        <time>2022-06-06T17:21:55Z</time>
      </trkpt>
      <trkpt lat="46.61819" lon="5.98189">
        <ele>876</ele>
        <time>2022-06-06T17:21:59Z</time>
      </trkpt>
      <trkpt lat="46.61819" lon="5.98121">
        <ele>873</ele>
        <time>2022-06-06T17:22:07Z</time>
      </trkpt>
      <trkpt lat="46.61823" lon="5.98042">
        <ele>872</ele>
        <time>2022-06-06T17:22:17Z</time>
      </trkpt>
      <trkpt lat="46.6182" lon="5.98017">
        <ele>872</ele>
        <time>2022-06-06T17:22:20Z</time>
      </trkpt>
      <trkpt lat="46.61811" lon="5.97997">
        <ele>870</ele>
        <time>2022-06-06T17:22:23Z</time>
      </trkpt>
      <trkpt lat="46.61762" lon="5.97917">
        <ele>867</ele>
        <time>2022-06-06T17:22:36Z</time>
      </trkpt>
      <trkpt lat="46.61755" lon="5.9791">
        <ele>867</ele>
        <time>2022-06-06T17:22:38Z</time>
      </trkpt>
      <trkpt lat="46.61738" lon="5.97898">
        <ele>868</ele>
        <time>2022-06-06T17:22:41Z</time>
      </trkpt>
      <trkpt lat="46.61638" lon="5.97872">
        <ele>857</ele>
        <time>2022-06-06T17:22:59Z</time>
      </trkpt>
      <trkpt lat="46.6162" lon="5.97863">
        <ele>854</ele>
        <time>2022-06-06T17:23:03Z</time>
      </trkpt>
      <trkpt lat="46.61604" lon="5.97842">
        <ele>853</ele>
        <time>2022-06-06T17:23:06Z</time>
      </trkpt>
      <trkpt lat="46.61596" lon="5.97823">
        <ele>853</ele>
        <time>2022-06-06T17:23:09Z</time>
      </trkpt>
      <trkpt lat="46.61548" lon="5.97662">
        <ele>855</ele>
        <time>2022-06-06T17:23:31Z</time>
      </trkpt>
      <trkpt lat="46.61533" lon="5.97631">
        <ele>852</ele>
        <time>2022-06-06T17:23:35Z</time>
      </trkpt>
      <trkpt lat="46.61503" lon="5.97585">
        <ele>848</ele>
        <time>2022-06-06T17:23:43Z</time>
      </trkpt>
      <trkpt lat="46.61464" lon="5.97507">
        <ele>842</ele>
        <time>2022-06-06T17:23:55Z</time>
      </trkpt>
      <trkpt lat="46.61452" lon="5.97471">
        <ele>839</ele>
        <time>2022-06-06T17:24:00Z</time>
      </trkpt>
      <trkpt lat="46.61427" lon="5.97375">
        <ele>835</ele>
        <time>2022-06-06T17:24:12Z</time>
      </trkpt>
      <trkpt lat="46.61313" lon="5.9689">
        <ele>825</ele>
        <time>2022-06-06T17:25:15Z</time>
      </trkpt>
      <trkpt lat="46.61304" lon="5.96869">
        <ele>825</ele>
        <time>2022-06-06T17:25:18Z</time>
      </trkpt>
      <trkpt lat="46.61292" lon="5.96849">
        <ele>825</ele>
        <time>2022-06-06T17:25:21Z</time>
      </trkpt>
      <trkpt lat="46.61284" lon="5.96839">
        <ele>825</ele>
        <time>2022-06-06T17:25:23Z</time>
      </trkpt>
      <trkpt lat="46.61267" lon="5.96825">
        <ele>825</ele>
        <time>2022-06-06T17:25:26Z</time>
      </trkpt>
      <trkpt lat="46.61238" lon="5.96818">
        <ele>826</ele>
        <time>2022-06-06T17:25:32Z</time>
      </trkpt>
      <trkpt lat="46.61042" lon="5.96787">
        <ele>823</ele>
        <time>2022-06-06T17:26:07Z</time>
      </trkpt>
      <trkpt lat="46.61013" lon="5.96779">
        <ele>823</ele>
        <time>2022-06-06T17:26:12Z</time>
      </trkpt>
      <trkpt lat="46.6098" lon="5.9678">
        <ele>822</ele>
        <time>2022-06-06T17:26:18Z</time>
      </trkpt>
      <trkpt lat="46.60971" lon="5.96784">
        <ele>822</ele>
        <time>2022-06-06T17:26:20Z</time>
      </trkpt>
      <trkpt lat="46.60962" lon="5.96786">
        <ele>822</ele>
        <time>2022-06-06T17:26:21Z</time>
      </trkpt>
      <trkpt lat="46.60931" lon="5.96798">
        <ele>822</ele>
        <time>2022-06-06T17:26:27Z</time>
      </trkpt>
      <trkpt lat="46.60902" lon="5.96802">
        <ele>823</ele>
        <time>2022-06-06T17:26:32Z</time>
      </trkpt>
      <trkpt lat="46.60823" lon="5.96794">
        <ele>825</ele>
        <time>2022-06-06T17:26:46Z</time>
      </trkpt>
      <trkpt lat="46.60787" lon="5.96805">
        <ele>825</ele>
        <time>2022-06-06T17:26:53Z</time>
      </trkpt>
      <trkpt lat="46.60698" lon="5.96841">
        <ele>823</ele>
        <time>2022-06-06T17:27:09Z</time>
      </trkpt>
      <trkpt lat="46.60679" lon="5.96859">
        <ele>824</ele>
        <time>2022-06-06T17:27:13Z</time>
      </trkpt>
      <trkpt lat="46.60616" lon="5.96941">
        <ele>829</ele>
        <time>2022-06-06T17:27:28Z</time>
      </trkpt>
      <trkpt lat="46.60598" lon="5.9695">
        <ele>829</ele>
        <time>2022-06-06T17:27:32Z</time>
      </trkpt>
      <trkpt lat="46.60577" lon="5.96951">
        <ele>828</ele>
        <time>2022-06-06T17:27:35Z</time>
      </trkpt>
      <trkpt lat="46.60516" lon="5.96935">
        <ele>829</ele>
        <time>2022-06-06T17:27:46Z</time>
      </trkpt>
      <trkpt lat="46.60489" lon="5.96931">
        <ele>829</ele>
        <time>2022-06-06T17:27:51Z</time>
      </trkpt>
      <trkpt lat="46.6043" lon="5.96934">
        <ele>833</ele>
        <time>2022-06-06T17:28:02Z</time>
      </trkpt>
      <trkpt lat="46.60274" lon="5.9693">
        <ele>835</ele>
        <time>2022-06-06T17:28:29Z</time>
      </trkpt>
      <trkpt lat="46.6019" lon="5.96913">
        <ele>832</ele>
        <time>2022-06-06T17:28:45Z</time>
      </trkpt>
      <trkpt lat="46.6013" lon="5.96907">
        <ele>833</ele>
        <time>2022-06-06T17:28:55Z</time>
      </trkpt>
      <trkpt lat="46.60109" lon="5.9691">
        <ele>834</ele>
        <time>2022-06-06T17:28:59Z</time>
      </trkpt>
      <trkpt lat="46.60075" lon="5.96923">
        <ele>837</ele>
        <time>2022-06-06T17:29:05Z</time>
      </trkpt>
      <trkpt lat="46.60049" lon="5.96947">
        <ele>840</ele>
        <time>2022-06-06T17:29:11Z</time>
      </trkpt>
      <trkpt lat="46.60022" lon="5.96984">
        <ele>843</ele>
        <time>2022-06-06T17:29:17Z</time>
      </trkpt>
      <trkpt lat="46.59977" lon="5.97028">
        <ele>843</ele>
        <time>2022-06-06T17:29:27Z</time>
      </trkpt>
      <trkpt lat="46.59954" lon="5.97053">
        <ele>842</ele>
        <time>2022-06-06T17:29:32Z</time>
      </trkpt>
      <trkpt lat="46.59945" lon="5.9707">
        <ele>842</ele>
        <time>2022-06-06T17:29:35Z</time>
      </trkpt>
      <trkpt lat="46.59922" lon="5.97174">
        <ele>846</ele>
        <time>2022-06-06T17:29:48Z</time>
      </trkpt>
      <trkpt lat="46.59892" lon="5.97218">
        <ele>851</ele>
        <time>2022-06-06T17:29:56Z</time>
      </trkpt>
      <trkpt lat="46.59848" lon="5.97254">
        <ele>851</ele>
        <time>2022-06-06T17:30:05Z</time>
      </trkpt>
      <trkpt lat="46.59707" lon="5.97336">
        <ele>859</ele>
        <time>2022-06-06T17:30:32Z</time>
      </trkpt>
      <trkpt lat="46.59636" lon="5.97356">
        <ele>856</ele>
        <time>2022-06-06T17:30:44Z</time>
      </trkpt>
      <trkpt lat="46.59552" lon="5.97426">
        <ele>851</ele>
        <time>2022-06-06T17:31:02Z</time>
      </trkpt>
      <trkpt lat="46.59536" lon="5.97443">
        <ele>850</ele>
        <time>2022-06-06T17:31:05Z</time>
      </trkpt>
      <trkpt lat="46.59528" lon="5.97459">
        <ele>849</ele>
        <time>2022-06-06T17:31:08Z</time>
      </trkpt>
      <trkpt lat="46.59504" lon="5.97538">
        <ele>851</ele>
        <time>2022-06-06T17:31:18Z</time>
      </trkpt>
      <trkpt lat="46.59483" lon="5.9762">
        <ele>857</ele>
        <time>2022-06-06T17:31:29Z</time>
      </trkpt>
      <trkpt lat="46.59476" lon="5.9764">
        <ele>858</ele>
        <time>2022-06-06T17:31:32Z</time>
      </trkpt>
      <trkpt lat="46.59453" lon="5.97675">
        <ele>859</ele>
        <time>2022-06-06T17:31:38Z</time>
      </trkpt>
      <trkpt lat="46.59411" lon="5.9772">
        <ele>858</ele>
        <time>2022-06-06T17:31:47Z</time>
      </trkpt>
      <trkpt lat="46.59399" lon="5.97735">
        <ele>858</ele>
        <time>2022-06-06T17:31:50Z</time>
      </trkpt>
      <trkpt lat="46.59198" lon="5.97914">
        <ele>863</ele>
        <time>2022-06-06T17:32:32Z</time>
      </trkpt>
      <trkpt lat="46.59136" lon="5.97985">
        <ele>868</ele>
        <time>2022-06-06T17:32:46Z</time>
      </trkpt>
      <trkpt lat="46.59111" lon="5.98009">
        <ele>871</ele>
        <time>2022-06-06T17:32:51Z</time>
      </trkpt>
      <trkpt lat="46.59079" lon="5.98024">
        <ele>873</ele>
        <time>2022-06-06T17:32:57Z</time>
      </trkpt>
      <trkpt lat="46.59013" lon="5.98046">
        <ele>871</ele>
        <time>2022-06-06T17:33:09Z</time>
      </trkpt>
      <trkpt lat="46.58983" lon="5.98061">
        <ele>869</ele>
        <time>2022-06-06T17:33:15Z</time>
      </trkpt>
      <trkpt lat="46.58956" lon="5.98081">
        <ele>868</ele>
        <time>2022-06-06T17:33:20Z</time>
      </trkpt>
      <trkpt lat="46.58895" lon="5.98134">
        <ele>870</ele>
        <time>2022-06-06T17:33:33Z</time>
      </trkpt>
      <trkpt lat="46.58878" lon="5.98145">
        <ele>870</ele>
        <time>2022-06-06T17:33:36Z</time>
      </trkpt>
      <trkpt lat="46.58859" lon="5.98153">
        <ele>870</ele>
        <time>2022-06-06T17:33:39Z</time>
      </trkpt>
      <trkpt lat="46.58804" lon="5.98169">
        <ele>868</ele>
        <time>2022-06-06T17:33:49Z</time>
      </trkpt>
      <trkpt lat="46.58745" lon="5.98198">
        <ele>866</ele>
        <time>2022-06-06T17:34:01Z</time>
      </trkpt>
      <trkpt lat="46.58737" lon="5.98209">
        <ele>867</ele>
        <time>2022-06-06T17:34:03Z</time>
      </trkpt>
      <trkpt lat="46.58724" lon="5.98251">
        <ele>868</ele>
        <time>2022-06-06T17:34:08Z</time>
      </trkpt>
      <trkpt lat="46.58717" lon="5.98261">
        <ele>868</ele>
        <time>2022-06-06T17:34:10Z</time>
      </trkpt>
      <trkpt lat="46.587" lon="5.98264">
        <ele>867</ele>
        <time>2022-06-06T17:34:13Z</time>
      </trkpt>
      <trkpt lat="46.587" lon="5.98228">
        <ele>866</ele>
        <time>2022-06-06T17:34:17Z</time>
      </trkpt>
      <trkpt lat="46.587" lon="5.98211">
        <ele>865</ele>
        <time>2022-06-06T17:34:19Z</time>
      </trkpt>
      <trkpt lat="46.58704" lon="5.98196">
        <ele>865</ele>
        <time>2022-06-06T17:34:21Z</time>
      </trkpt>
      <trkpt lat="46.587" lon="5.98211">
        <ele>865</ele>
        <time>2022-06-06T17:34:23Z</time>
      </trkpt>
      <trkpt lat="46.587" lon="5.98228">
        <ele>866</ele>
        <time>2022-06-06T17:34:25Z</time>
      </trkpt>
      <trkpt lat="46.587" lon="5.98264">
        <ele>867</ele>
        <time>2022-06-06T17:34:30Z</time>
      </trkpt>
      <trkpt lat="46.58673" lon="5.98271">
        <ele>866</ele>
        <time>2022-06-06T17:34:35Z</time>
      </trkpt>
      <trkpt lat="46.58646" lon="5.98284">
        <ele>866</ele>
        <time>2022-06-06T17:34:40Z</time>
      </trkpt>
      <trkpt lat="46.58629" lon="5.98289">
        <ele>866</ele>
        <time>2022-06-06T17:34:43Z</time>
      </trkpt>
      <trkpt lat="46.58576" lon="5.98272">
        <ele>866</ele>
        <time>2022-06-06T17:34:53Z</time>
      </trkpt>
      <trkpt lat="46.58367" lon="5.98022">
        <ele>871</ele>
        <time>2022-06-06T17:35:41Z</time>
      </trkpt>
      <trkpt lat="46.58342" lon="5.97986">
        <ele>872</ele>
        <time>2022-06-06T17:35:47Z</time>
      </trkpt>
      <trkpt lat="46.58302" lon="5.97916">
        <ele>875</ele>
        <time>2022-06-06T17:35:58Z</time>
      </trkpt>
      <trkpt lat="46.58269" lon="5.97863">
        <ele>882</ele>
        <time>2022-06-06T17:36:07Z</time>
      </trkpt>
      <trkpt lat="46.58247" lon="5.97838">
        <ele>884</ele>
        <time>2022-06-06T17:36:12Z</time>
      </trkpt>
      <trkpt lat="46.58213" lon="5.97817">
        <ele>885</ele>
        <time>2022-06-06T17:36:18Z</time>
      </trkpt>
      <trkpt lat="46.58173" lon="5.97811">
        <ele>882</ele>
        <time>2022-06-06T17:36:25Z</time>
      </trkpt>
      <trkpt lat="46.58114" lon="5.97808">
        <ele>879</ele>
        <time>2022-06-06T17:36:36Z</time>
      </trkpt>
      <trkpt lat="46.58096" lon="5.97799">
        <ele>879</ele>
        <time>2022-06-06T17:36:39Z</time>
      </trkpt>
      <trkpt lat="46.58076" lon="5.97781">
        <ele>879</ele>
        <time>2022-06-06T17:36:44Z</time>
      </trkpt>
      <trkpt lat="46.58063" lon="5.97764">
        <ele>879</ele>
        <time>2022-06-06T17:36:47Z</time>
      </trkpt>
      <trkpt lat="46.58052" lon="5.97739">
        <ele>879</ele>
        <time>2022-06-06T17:36:50Z</time>
      </trkpt>
      <trkpt lat="46.58042" lon="5.97695">
        <ele>880</ele>
        <time>2022-06-06T17:36:56Z</time>
      </trkpt>
      <trkpt lat="46.5803" lon="5.97619">
        <ele>882</ele>
        <time>2022-06-06T17:37:06Z</time>
      </trkpt>
      <trkpt lat="46.58017" lon="5.97566">
        <ele>883</ele>
        <time>2022-06-06T17:37:12Z</time>
      </trkpt>
      <trkpt lat="46.58007" lon="5.97542">
        <ele>884</ele>
        <time>2022-06-06T17:37:16Z</time>
      </trkpt>
      <trkpt lat="46.57995" lon="5.97526">
        <ele>885</ele>
        <time>2022-06-06T17:37:19Z</time>
      </trkpt>
      <trkpt lat="46.57943" lon="5.97469">
        <ele>887</ele>
        <time>2022-06-06T17:37:30Z</time>
      </trkpt>
      <trkpt lat="46.57914" lon="5.9743">
        <ele>889</ele>
        <time>2022-06-06T17:37:37Z</time>
      </trkpt>
      <trkpt lat="46.57832" lon="5.97257">
        <ele>894</ele>
        <time>2022-06-06T17:38:03Z</time>
      </trkpt>
      <trkpt lat="46.57823" lon="5.97227">
        <ele>893</ele>
        <time>2022-06-06T17:38:07Z</time>
      </trkpt>
      <trkpt lat="46.57821" lon="5.97209">
        <ele>893</ele>
        <time>2022-06-06T17:38:09Z</time>
      </trkpt>
      <trkpt lat="46.57823" lon="5.97184">
        <ele>893</ele>
        <time>2022-06-06T17:38:12Z</time>
      </trkpt>
      <trkpt lat="46.57828" lon="5.97161">
        <ele>894</ele>
        <time>2022-06-06T17:38:15Z</time>
      </trkpt>
      <trkpt lat="46.57849" lon="5.97099">
        <ele>897</ele>
        <time>2022-06-06T17:38:24Z</time>
      </trkpt>
      <trkpt lat="46.57854" lon="5.97069">
        <ele>898</ele>
        <time>2022-06-06T17:38:28Z</time>
      </trkpt>
      <trkpt lat="46.57854" lon="5.97025">
        <ele>899</ele>
        <time>2022-06-06T17:38:33Z</time>
      </trkpt>
      <trkpt lat="46.57837" lon="5.96914">
        <ele>897</ele>
        <time>2022-06-06T17:38:47Z</time>
      </trkpt>
      <trkpt lat="46.57836" lon="5.96891">
        <ele>898</ele>
        <time>2022-06-06T17:38:50Z</time>
      </trkpt>
      <trkpt lat="46.57858" lon="5.96691">
        <ele>905</ele>
        <time>2022-06-06T17:39:14Z</time>
      </trkpt>
      <trkpt lat="46.5786" lon="5.96682">
        <ele>905</ele>
        <time>2022-06-06T17:39:16Z</time>
      </trkpt>
      <trkpt lat="46.57861" lon="5.9667">
        <ele>906</ele>
        <time>2022-06-06T17:39:17Z</time>
      </trkpt>
      <trkpt lat="46.57858" lon="5.96643">
        <ele>905</ele>
        <time>2022-06-06T17:39:20Z</time>
      </trkpt>
      <trkpt lat="46.57855" lon="5.96627">
        <ele>905</ele>
        <time>2022-06-06T17:39:22Z</time>
      </trkpt>
      <trkpt lat="46.57848" lon="5.96607">
        <ele>905</ele>
        <time>2022-06-06T17:39:25Z</time>
      </trkpt>
      <trkpt lat="46.57834" lon="5.96582">
        <ele>905</ele>
        <time>2022-06-06T17:39:29Z</time>
      </trkpt>
      <trkpt lat="46.57823" lon="5.9657">
        <ele>906</ele>
        <time>2022-06-06T17:39:32Z</time>
      </trkpt>
      <trkpt lat="46.57801" lon="5.96552">
        <ele>907</ele>
        <time>2022-06-06T17:39:36Z</time>
      </trkpt>
      <trkpt lat="46.57792" lon="5.96539">
        <ele>907</ele>
        <time>2022-06-06T17:39:38Z</time>
      </trkpt>
      <trkpt lat="46.57789" lon="5.96526">
        <ele>908</ele>
        <time>2022-06-06T17:39:40Z</time>
      </trkpt>
      <trkpt lat="46.57783" lon="5.96518">
        <ele>908</ele>
        <time>2022-06-06T17:39:41Z</time>
      </trkpt>
      <trkpt lat="46.57776" lon="5.96514">
        <ele>908</ele>
        <time>2022-06-06T17:39:43Z</time>
      </trkpt>
      <trkpt lat="46.5777" lon="5.96514">
        <ele>909</ele>
        <time>2022-06-06T17:39:44Z</time>
      </trkpt>
      <trkpt lat="46.57747" lon="5.96483">
        <ele>910</ele>
        <time>2022-06-06T17:39:49Z</time>
      </trkpt>
      <trkpt lat="46.5773" lon="5.96433">
        <ele>911</ele>
        <time>2022-06-06T17:39:56Z</time>
      </trkpt>
      <trkpt lat="46.57723" lon="5.96403">
        <ele>911</ele>
        <time>2022-06-06T17:40:00Z</time>
      </trkpt>
      <trkpt lat="46.57676" lon="5.96213">
        <ele>915</ele>
        <time>2022-06-06T17:40:25Z</time>
      </trkpt>
      <trkpt lat="46.57672" lon="5.96188">
        <ele>915</ele>
        <time>2022-06-06T17:40:28Z</time>
      </trkpt>
      <trkpt lat="46.57671" lon="5.9593">
        <ele>915</ele>
        <time>2022-06-06T17:40:59Z</time>
      </trkpt>
      <trkpt lat="46.57618" lon="5.95597">
        <ele>909</ele>
        <time>2022-06-06T17:41:41Z</time>
      </trkpt>
      <trkpt lat="46.57594" lon="5.95457">
        <ele>910</ele>
        <time>2022-06-06T17:41:59Z</time>
      </trkpt>
      <trkpt lat="46.57591" lon="5.95428">
        <ele>911</ele>
        <time>2022-06-06T17:42:03Z</time>
      </trkpt>
      <trkpt lat="46.57576" lon="5.95355">
        <ele>909</ele>
        <time>2022-06-06T17:42:12Z</time>
      </trkpt>
      <trkpt lat="46.57571" lon="5.95322">
        <ele>908</ele>
        <time>2022-06-06T17:42:16Z</time>
      </trkpt>
      <trkpt lat="46.57569" lon="5.95261">
        <ele>906</ele>
        <time>2022-06-06T17:42:23Z</time>
      </trkpt>
      <trkpt lat="46.57575" lon="5.9507">
        <ele>904</ele>
        <time>2022-06-06T17:42:47Z</time>
      </trkpt>
      <trkpt lat="46.57584" lon="5.94883">
        <ele>906</ele>
        <time>2022-06-06T17:43:10Z</time>
      </trkpt>
      <trkpt lat="46.57585" lon="5.94832">
        <ele>906</ele>
        <time>2022-06-06T17:43:16Z</time>
      </trkpt>
      <trkpt lat="46.57584" lon="5.94797">
        <ele>906</ele>
        <time>2022-06-06T17:43:20Z</time>
      </trkpt>
      <trkpt lat="46.5754" lon="5.94446">
        <ele>904</ele>
        <time>2022-06-06T17:44:04Z</time>
      </trkpt>
      <trkpt lat="46.57536" lon="5.94424">
        <ele>904</ele>
        <time>2022-06-06T17:44:07Z</time>
      </trkpt>
      <trkpt lat="46.57518" lon="5.94397">
        <ele>904</ele>
        <time>2022-06-06T17:44:11Z</time>
      </trkpt>
      <trkpt lat="46.57516" lon="5.94386">
        <ele>904</ele>
        <time>2022-06-06T17:44:13Z</time>
      </trkpt>
      <trkpt lat="46.57519" lon="5.94373">
        <ele>904</ele>
        <time>2022-06-06T17:44:14Z</time>
      </trkpt>
      <trkpt lat="46.57526" lon="5.94364">
        <ele>904</ele>
        <time>2022-06-06T17:44:16Z</time>
      </trkpt>
      <trkpt lat="46.57528" lon="5.94357">
        <ele>904</ele>
        <time>2022-06-06T17:44:17Z</time>
      </trkpt>
      <trkpt lat="46.57528" lon="5.94349">
        <ele>904</ele>
        <time>2022-06-06T17:44:18Z</time>
      </trkpt>
      <trkpt lat="46.57523" lon="5.94336">
        <ele>904</ele>
        <time>2022-06-06T17:44:20Z</time>
      </trkpt>
      <trkpt lat="46.57514" lon="5.94331">
        <ele>904</ele>
        <time>2022-06-06T17:44:21Z</time>
      </trkpt>
      <trkpt lat="46.5751" lon="5.94331">
        <ele>904</ele>
        <time>2022-06-06T17:44:22Z</time>
      </trkpt>
      <trkpt lat="46.57501" lon="5.94322">
        <ele>904</ele>
        <time>2022-06-06T17:44:24Z</time>
      </trkpt>
      <trkpt lat="46.57461" lon="5.94271">
        <ele>905</ele>
        <time>2022-06-06T17:44:34Z</time>
      </trkpt>
      <trkpt lat="46.57332" lon="5.94124">
        <ele>905</ele>
        <time>2022-06-06T17:45:03Z</time>
      </trkpt>
      <trkpt lat="46.57224" lon="5.94011">
        <ele>905</ele>
        <time>2022-06-06T17:45:26Z</time>
      </trkpt>
      <trkpt lat="46.57201" lon="5.93984">
        <ele>906</ele>
        <time>2022-06-06T17:45:32Z</time>
      </trkpt>
      <trkpt lat="46.57191" lon="5.93969">
        <ele>906</ele>
        <time>2022-06-06T17:45:34Z</time>
      </trkpt>
      <trkpt lat="46.57177" lon="5.9394">
        <ele>906</ele>
        <time>2022-06-06T17:45:39Z</time>
      </trkpt>
      <trkpt lat="46.57156" lon="5.93866">
        <ele>904</ele>
        <time>2022-06-06T17:45:48Z</time>
      </trkpt>
      <trkpt lat="46.57142" lon="5.93839">
        <ele>903</ele>
        <time>2022-06-06T17:45:53Z</time>
      </trkpt>
      <trkpt lat="46.57132" lon="5.93826">
        <ele>903</ele>
        <time>2022-06-06T17:45:55Z</time>
      </trkpt>
      <trkpt lat="46.57124" lon="5.93819">
        <ele>903</ele>
        <time>2022-06-06T17:45:57Z</time>
      </trkpt>
      <trkpt lat="46.57104" lon="5.93809">
        <ele>904</ele>
        <time>2022-06-06T17:46:00Z</time>
      </trkpt>
      <trkpt lat="46.5691" lon="5.93759">
        <ele>908</ele>
        <time>2022-06-06T17:46:35Z</time>
      </trkpt>
      <trkpt lat="46.56885" lon="5.93748">
        <ele>907</ele>
        <time>2022-06-06T17:46:40Z</time>
      </trkpt>
      <trkpt lat="46.56871" lon="5.93739">
        <ele>906</ele>
        <time>2022-06-06T17:46:43Z</time>
      </trkpt>
      <trkpt lat="46.56859" lon="5.93726">
        <ele>906</ele>
        <time>2022-06-06T17:46:45Z</time>
      </trkpt>
      <trkpt lat="46.56835" lon="5.93691">
        <ele>905</ele>
        <time>2022-06-06T17:46:51Z</time>
      </trkpt>
      <trkpt lat="46.5679" lon="5.93615">
        <ele>902</ele>
        <time>2022-06-06T17:47:04Z</time>
      </trkpt>
      <trkpt lat="46.56772" lon="5.93598">
        <ele>901</ele>
        <time>2022-06-06T17:47:08Z</time>
      </trkpt>
      <trkpt lat="46.5676" lon="5.93588">
        <ele>901</ele>
        <time>2022-06-06T17:47:10Z</time>
      </trkpt>
      <trkpt lat="46.56679" lon="5.9356">
        <ele>900</ele>
        <time>2022-06-06T17:47:25Z</time>
      </trkpt>
      <trkpt lat="46.56647" lon="5.93552">
        <ele>899</ele>
        <time>2022-06-06T17:47:31Z</time>
      </trkpt>
      <trkpt lat="46.5663" lon="5.93551">
        <ele>899</ele>
        <time>2022-06-06T17:47:34Z</time>
      </trkpt>
      <trkpt lat="46.56626" lon="5.93567">
        <ele>898</ele>
        <time>2022-06-06T17:47:36Z</time>
      </trkpt>
      <trkpt lat="46.56596" lon="5.93639">
        <ele>893</ele>
        <time>2022-06-06T17:47:46Z</time>
      </trkpt>
      <trkpt lat="46.56734" lon="5.93684">
        <ele>895</ele>
        <time>2022-06-06T17:48:11Z</time>
      </trkpt>
      <trkpt lat="46.56596" lon="5.93639">
        <ele>893</ele>
        <time>2022-06-06T17:48:36Z</time>
      </trkpt>
      <trkpt lat="46.56626" lon="5.93567">
        <ele>898</ele>
        <time>2022-06-06T17:48:47Z</time>
      </trkpt>
      <trkpt lat="46.5663" lon="5.93551">
        <ele>899</ele>
        <time>2022-06-06T17:48:49Z</time>
      </trkpt>
      <trkpt lat="46.56605" lon="5.9355">
        <ele>898</ele>
        <time>2022-06-06T17:48:53Z</time>
      </trkpt>
      <trkpt lat="46.56563" lon="5.93558">
        <ele>898</ele>
        <time>2022-06-06T17:49:01Z</time>
      </trkpt>
      <trkpt lat="46.56504" lon="5.93574">
        <ele>898</ele>
        <time>2022-06-06T17:49:11Z</time>
      </trkpt>
      <trkpt lat="46.56481" lon="5.93576">
        <ele>898</ele>
        <time>2022-06-06T17:49:15Z</time>
      </trkpt>
      <trkpt lat="46.56457" lon="5.93573">
        <ele>898</ele>
        <time>2022-06-06T17:49:20Z</time>
      </trkpt>
      <trkpt lat="46.56446" lon="5.93568">
        <ele>898</ele>
        <time>2022-06-06T17:49:22Z</time>
      </trkpt>
      <trkpt lat="46.56422" lon="5.93554">
        <ele>898</ele>
        <time>2022-06-06T17:49:26Z</time>
      </trkpt>
      <trkpt lat="46.56366" lon="5.93505">
        <ele>897</ele>
        <time>2022-06-06T17:49:38Z</time>
      </trkpt>
      <trkpt lat="46.56306" lon="5.93455">
        <ele>895</ele>
        <time>2022-06-06T17:49:50Z</time>
      </trkpt>
      <trkpt lat="46.56251" lon="5.93417">
        <ele>891</ele>
        <time>2022-06-06T17:50:01Z</time>
      </trkpt>
      <trkpt lat="46.56174" lon="5.93368">
        <ele>890</ele>
        <time>2022-06-06T17:50:16Z</time>
      </trkpt>
      <trkpt lat="46.56144" lon="5.93342">
        <ele>890</ele>
        <time>2022-06-06T17:50:22Z</time>
      </trkpt>
      <trkpt lat="46.56129" lon="5.93325">
        <ele>890</ele>
        <time>2022-06-06T17:50:26Z</time>
      </trkpt>
      <trkpt lat="46.56086" lon="5.93257">
        <ele>890</ele>
        <time>2022-06-06T17:50:37Z</time>
      </trkpt>
      <trkpt lat="46.56069" lon="5.93232">
        <ele>890</ele>
        <time>2022-06-06T17:50:41Z</time>
      </trkpt>
      <trkpt lat="46.56057" lon="5.93218">
        <ele>889</ele>
        <time>2022-06-06T17:50:44Z</time>
      </trkpt>
      <trkpt lat="46.55939" lon="5.93098">
        <ele>886</ele>
        <time>2022-06-06T17:51:10Z</time>
      </trkpt>
      <trkpt lat="46.55794" lon="5.92935">
        <ele>880</ele>
        <time>2022-06-06T17:51:42Z</time>
      </trkpt>
      <trkpt lat="46.55781" lon="5.92923">
        <ele>880</ele>
        <time>2022-06-06T17:51:45Z</time>
      </trkpt>
      <trkpt lat="46.55761" lon="5.92908">
        <ele>880</ele>
        <time>2022-06-06T17:51:49Z</time>
      </trkpt>
      <trkpt lat="46.55729" lon="5.92894">
        <ele>879</ele>
        <time>2022-06-06T17:51:55Z</time>
      </trkpt>
      <trkpt lat="46.55717" lon="5.92892">
        <ele>879</ele>
        <time>2022-06-06T17:51:57Z</time>
      </trkpt>
      <trkpt lat="46.55695" lon="5.92891">
        <ele>880</ele>
        <time>2022-06-06T17:52:01Z</time>
      </trkpt>
      <trkpt lat="46.55648" lon="5.92895">
        <ele>880</ele>
        <time>2022-06-06T17:52:09Z</time>
      </trkpt>
      <trkpt lat="46.55618" lon="5.92893">
        <ele>880</ele>
        <time>2022-06-06T17:52:15Z</time>
      </trkpt>
      <trkpt lat="46.55586" lon="5.92886">
        <ele>879</ele>
        <time>2022-06-06T17:52:21Z</time>
      </trkpt>
      <trkpt lat="46.55496" lon="5.92857">
        <ele>878</ele>
        <time>2022-06-06T17:52:37Z</time>
      </trkpt>
      <trkpt lat="46.55494" lon="5.92846">
        <ele>878</ele>
        <time>2022-06-06T17:52:38Z</time>
      </trkpt>
      <trkpt lat="46.55488" lon="5.92839">
        <ele>877</ele>
        <time>2022-06-06T17:52:40Z</time>
      </trkpt>
      <trkpt lat="46.55439" lon="5.92787">
        <ele>875</ele>
        <time>2022-06-06T17:52:50Z</time>
      </trkpt>
      <trkpt lat="46.55349" lon="5.92682">
        <ele>871</ele>
        <time>2022-06-06T17:53:11Z</time>
      </trkpt>
      <trkpt lat="46.5532" lon="5.92644">
        <ele>870</ele>
        <time>2022-06-06T17:53:18Z</time>
      </trkpt>
      <trkpt lat="46.55276" lon="5.92573">
        <ele>869</ele>
        <time>2022-06-06T17:53:30Z</time>
      </trkpt>
      <trkpt lat="46.55236" lon="5.92515">
        <ele>868</ele>
        <time>2022-06-06T17:53:40Z</time>
      </trkpt>
      <trkpt lat="46.55276" lon="5.92573">
        <ele>869</ele>
        <time>2022-06-06T17:53:50Z</time>
      </trkpt>
      <trkpt lat="46.5532" lon="5.92644">
        <ele>870</ele>
        <time>2022-06-06T17:54:01Z</time>
      </trkpt>
      <trkpt lat="46.55349" lon="5.92682">
        <ele>871</ele>
        <time>2022-06-06T17:54:08Z</time>
      </trkpt>
      <trkpt lat="46.55439" lon="5.92787">
        <ele>875</ele>
        <time>2022-06-06T17:54:29Z</time>
      </trkpt>
      <trkpt lat="46.55488" lon="5.92839">
        <ele>877</ele>
        <time>2022-06-06T17:54:40Z</time>
      </trkpt>
      <trkpt lat="46.55494" lon="5.92846">
        <ele>878</ele>
        <time>2022-06-06T17:54:41Z</time>
      </trkpt>
      <trkpt lat="46.55496" lon="5.92857">
        <ele>878</ele>
        <time>2022-06-06T17:54:42Z</time>
      </trkpt>
      <trkpt lat="46.55371" lon="5.92817">
        <ele>880</ele>
        <time>2022-06-06T17:55:05Z</time>
      </trkpt>
      <trkpt lat="46.5535" lon="5.92809">
        <ele>880</ele>
        <time>2022-06-06T17:55:09Z</time>
      </trkpt>
      <trkpt lat="46.55334" lon="5.92799">
        <ele>880</ele>
        <time>2022-06-06T17:55:12Z</time>
      </trkpt>
      <trkpt lat="46.55318" lon="5.9278">
        <ele>880</ele>
        <time>2022-06-06T17:55:16Z</time>
      </trkpt>
      <trkpt lat="46.55262" lon="5.9266">
        <ele>875</ele>
        <time>2022-06-06T17:55:34Z</time>
      </trkpt>
      <trkpt lat="46.55245" lon="5.92629">
        <ele>873</ele>
        <time>2022-06-06T17:55:38Z</time>
      </trkpt>
      <trkpt lat="46.55216" lon="5.92595">
        <ele>874</ele>
        <time>2022-06-06T17:55:45Z</time>
      </trkpt>
      <trkpt lat="46.55176" lon="5.92556">
        <ele>876</ele>
        <time>2022-06-06T17:55:54Z</time>
      </trkpt>
      <trkpt lat="46.55142" lon="5.92518">
        <ele>875</ele>
        <time>2022-06-06T17:56:01Z</time>
      </trkpt>
      <trkpt lat="46.5508" lon="5.92437">
        <ele>870</ele>
        <time>2022-06-06T17:56:16Z</time>
      </trkpt>
      <trkpt lat="46.55069" lon="5.92419">
        <ele>868</ele>
        <time>2022-06-06T17:56:19Z</time>
      </trkpt>
      <trkpt lat="46.55044" lon="5.92358">
        <ele>865</ele>
        <time>2022-06-06T17:56:28Z</time>
      </trkpt>
      <trkpt lat="46.55037" lon="5.92345">
        <ele>864</ele>
        <time>2022-06-06T17:56:30Z</time>
      </trkpt>
      <trkpt lat="46.54981" lon="5.92262">
        <ele>865</ele>
        <time>2022-06-06T17:56:44Z</time>
      </trkpt>
      <trkpt lat="46.5494" lon="5.92177">
        <ele>862</ele>
        <time>2022-06-06T17:56:57Z</time>
      </trkpt>
      <trkpt lat="46.54924" lon="5.92153">
        <ele>861</ele>
        <time>2022-06-06T17:57:01Z</time>
      </trkpt>
      <trkpt lat="46.54896" lon="5.92122">
        <ele>860</ele>
        <time>2022-06-06T17:57:07Z</time>
      </trkpt>
      <trkpt lat="46.54872" lon="5.92105">
        <ele>859</ele>
        <time>2022-06-06T17:57:12Z</time>
      </trkpt>
      <trkpt lat="46.54786" lon="5.92055">
        <ele>858</ele>
        <time>2022-06-06T17:57:28Z</time>
      </trkpt>
      <trkpt lat="46.54766" lon="5.92041">
        <ele>858</ele>
        <time>2022-06-06T17:57:32Z</time>
      </trkpt>
      <trkpt lat="46.54746" lon="5.92022">
        <ele>857</ele>
        <time>2022-06-06T17:57:37Z</time>
      </trkpt>
      <trkpt lat="46.54647" lon="5.91911">
        <ele>860</ele>
        <time>2022-06-06T17:57:59Z</time>
      </trkpt>
      <trkpt lat="46.54551" lon="5.91815">
        <ele>866</ele>
        <time>2022-06-06T17:58:19Z</time>
      </trkpt>
      <trkpt lat="46.54492" lon="5.91764">
        <ele>867</ele>
        <time>2022-06-06T17:58:32Z</time>
      </trkpt>
      <trkpt lat="46.54462" lon="5.91717">
        <ele>867</ele>
        <time>2022-06-06T17:58:40Z</time>
      </trkpt>
      <trkpt lat="46.54444" lon="5.917">
        <ele>867</ele>
        <time>2022-06-06T17:58:43Z</time>
      </trkpt>
      <trkpt lat="46.54423" lon="5.91687">
        <ele>867</ele>
        <time>2022-06-06T17:58:47Z</time>
      </trkpt>
      <trkpt lat="46.54364" lon="5.91667">
        <ele>869</ele>
        <time>2022-06-06T17:58:58Z</time>
      </trkpt>
      <trkpt lat="46.54284" lon="5.9165">
        <ele>875</ele>
        <time>2022-06-06T17:59:13Z</time>
      </trkpt>
      <trkpt lat="46.54266" lon="5.91641">
        <ele>876</ele>
        <time>2022-06-06T17:59:16Z</time>
      </trkpt>
      <trkpt lat="46.54234" lon="5.91622">
        <ele>878</ele>
        <time>2022-06-06T17:59:22Z</time>
      </trkpt>
      <trkpt lat="46.54222" lon="5.91618">
        <ele>878</ele>
        <time>2022-06-06T17:59:24Z</time>
      </trkpt>
      <trkpt lat="46.54171" lon="5.91616">
        <ele>879</ele>
        <time>2022-06-06T17:59:33Z</time>
      </trkpt>
      <trkpt lat="46.54132" lon="5.91618">
        <ele>880</ele>
        <time>2022-06-06T17:59:40Z</time>
      </trkpt>
      <trkpt lat="46.54104" lon="5.91629">
        <ele>880</ele>
        <time>2022-06-06T17:59:46Z</time>
      </trkpt>
      <trkpt lat="46.54086" lon="5.91645">
        <ele>881</ele>
        <time>2022-06-06T17:59:49Z</time>
      </trkpt>
      <trkpt lat="46.54078" lon="5.91657">
        <ele>881</ele>
        <time>2022-06-06T17:59:51Z</time>
      </trkpt>
      <trkpt lat="46.5407" lon="5.91671">
        <ele>881</ele>
        <time>2022-06-06T17:59:54Z</time>
      </trkpt>
      <trkpt lat="46.5405" lon="5.91719">
        <ele>881</ele>
        <time>2022-06-06T18:00:00Z</time>
      </trkpt>
      <trkpt lat="46.53988" lon="5.91929">
        <ele>877</ele>
        <time>2022-06-06T18:00:28Z</time>
      </trkpt>
      <trkpt lat="46.53977" lon="5.91949">
        <ele>877</ele>
        <time>2022-06-06T18:00:32Z</time>
      </trkpt>
      <trkpt lat="46.53966" lon="5.91963">
        <ele>877</ele>
        <time>2022-06-06T18:00:34Z</time>
      </trkpt>
      <trkpt lat="46.5395" lon="5.91978">
        <ele>877</ele>
        <time>2022-06-06T18:00:37Z</time>
      </trkpt>
      <trkpt lat="46.53616" lon="5.9218">
        <ele>878</ele>
        <time>2022-06-06T18:01:42Z</time>
      </trkpt>
      <trkpt lat="46.53584" lon="5.92193">
        <ele>877</ele>
        <time>2022-06-06T18:01:48Z</time>
      </trkpt>
      <trkpt lat="46.53549" lon="5.922">
        <ele>878</ele>
        <time>2022-06-06T18:01:54Z</time>
      </trkpt>
      <trkpt lat="46.53525" lon="5.922">
        <ele>878</ele>
        <time>2022-06-06T18:01:58Z</time>
      </trkpt>
      <trkpt lat="46.53508" lon="5.92195">
        <ele>879</ele>
        <time>2022-06-06T18:02:01Z</time>
      </trkpt>
      <trkpt lat="46.53323" lon="5.92075">
        <ele>887</ele>
        <time>2022-06-06T18:02:37Z</time>
      </trkpt>
      <trkpt lat="46.53301" lon="5.92056">
        <ele>893</ele>
        <time>2022-06-06T18:02:42Z</time>
      </trkpt>
      <trkpt lat="46.53281" lon="5.92034">
        <ele>897</ele>
        <time>2022-06-06T18:02:46Z</time>
      </trkpt>
      <trkpt lat="46.53212" lon="5.91941">
        <ele>895</ele>
        <time>2022-06-06T18:03:03Z</time>
      </trkpt>
      <trkpt lat="46.53177" lon="5.91884">
        <ele>892</ele>
        <time>2022-06-06T18:03:13Z</time>
      </trkpt>
      <trkpt lat="46.53153" lon="5.91851">
        <ele>888</ele>
        <time>2022-06-06T18:03:18Z</time>
      </trkpt>
      <trkpt lat="46.53092" lon="5.9179">
        <ele>889</ele>
        <time>2022-06-06T18:03:32Z</time>
      </trkpt>
      <trkpt lat="46.53093" lon="5.91783">
        <ele>887</ele>
        <time>2022-06-06T18:03:32Z</time>
      </trkpt>
      <trkpt lat="46.53093" lon="5.91779">
        <ele>887</ele>
        <time>2022-06-06T18:03:33Z</time>
      </trkpt>
      <trkpt lat="46.53045" lon="5.91708">
        <ele>887</ele>
        <time>2022-06-06T18:03:45Z</time>
      </trkpt>
      <trkpt lat="46.5302" lon="5.91677">
        <ele>888</ele>
        <time>2022-06-06T18:03:51Z</time>
      </trkpt>
      <trkpt lat="46.52872" lon="5.9147">
        <ele>886</ele>
        <time>2022-06-06T18:04:28Z</time>
      </trkpt>
      <trkpt lat="46.52855" lon="5.91436">
        <ele>884</ele>
        <time>2022-06-06T18:04:33Z</time>
      </trkpt>
      <trkpt lat="46.52797" lon="5.91349">
        <ele>885</ele>
        <time>2022-06-06T18:04:48Z</time>
      </trkpt>
      <trkpt lat="46.52755" lon="5.91277">
        <ele>884</ele>
        <time>2022-06-06T18:04:59Z</time>
      </trkpt>
      <trkpt lat="46.52704" lon="5.91184">
        <ele>886</ele>
        <time>2022-06-06T18:05:14Z</time>
      </trkpt>
      <trkpt lat="46.52606" lon="5.91012">
        <ele>886</ele>
        <time>2022-06-06T18:05:41Z</time>
      </trkpt>
      <trkpt lat="46.52555" lon="5.90932">
        <ele>882</ele>
        <time>2022-06-06T18:05:54Z</time>
      </trkpt>
      <trkpt lat="46.52502" lon="5.90854">
        <ele>883</ele>
        <time>2022-06-06T18:06:08Z</time>
      </trkpt>
      <trkpt lat="46.52486" lon="5.9082">
        <ele>885</ele>
        <time>2022-06-06T18:06:13Z</time>
      </trkpt>
      <trkpt lat="46.52439" lon="5.90705">
        <ele>887</ele>
        <time>2022-06-06T18:06:29Z</time>
      </trkpt>
      <trkpt lat="46.5239" lon="5.9061">
        <ele>889</ele>
        <time>2022-06-06T18:06:44Z</time>
      </trkpt>
      <trkpt lat="46.52385" lon="5.90594">
        <ele>889</ele>
        <time>2022-06-06T18:06:46Z</time>
      </trkpt>
      <trkpt lat="46.52269" lon="5.9035">
        <ele>889</ele>
        <time>2022-06-06T18:07:22Z</time>
      </trkpt>
      <trkpt lat="46.5222" lon="5.90242">
        <ele>887</ele>
        <time>2022-06-06T18:07:38Z</time>
      </trkpt>
      <trkpt lat="46.52215" lon="5.90226">
        <ele>887</ele>
        <time>2022-06-06T18:07:40Z</time>
      </trkpt>
      <trkpt lat="46.52204" lon="5.90178">
        <ele>884</ele>
        <time>2022-06-06T18:07:46Z</time>
      </trkpt>
      <trkpt lat="46.52188" lon="5.90085">
        <ele>881</ele>
        <time>2022-06-06T18:07:58Z</time>
      </trkpt>
      <trkpt lat="46.52186" lon="5.9006">
        <ele>880</ele>
        <time>2022-06-06T18:08:01Z</time>
      </trkpt>
      <trkpt lat="46.52188" lon="5.90028">
        <ele>879</ele>
        <time>2022-06-06T18:08:05Z</time>
      </trkpt>
      <trkpt lat="46.52202" lon="5.89977">
        <ele>878</ele>
        <time>2022-06-06T18:08:12Z</time>
      </trkpt>
      <trkpt lat="46.52209" lon="5.89943">
        <ele>879</ele>
        <time>2022-06-06T18:08:16Z</time>
      </trkpt>
      <trkpt lat="46.52215" lon="5.89902">
        <ele>880</ele>
        <time>2022-06-06T18:08:21Z</time>
      </trkpt>
      <trkpt lat="46.52221" lon="5.89839">
        <ele>882</ele>
        <time>2022-06-06T18:08:29Z</time>
      </trkpt>
      <trkpt lat="46.52234" lon="5.89808">
        <ele>881</ele>
        <time>2022-06-06T18:08:34Z</time>
      </trkpt>
      <trkpt lat="46.52255" lon="5.89768">
        <ele>880</ele>
        <time>2022-06-06T18:08:40Z</time>
      </trkpt>
      <trkpt lat="46.5227" lon="5.89744">
        <ele>880</ele>
        <time>2022-06-06T18:08:44Z</time>
      </trkpt>
      <trkpt lat="46.52282" lon="5.89732">
        <ele>879</ele>
        <time>2022-06-06T18:08:46Z</time>
      </trkpt>
      <trkpt lat="46.5231" lon="5.89714">
        <ele>879</ele>
        <time>2022-06-06T18:08:52Z</time>
      </trkpt>
      <trkpt lat="46.52322" lon="5.89699">
        <ele>880</ele>
        <time>2022-06-06T18:08:55Z</time>
      </trkpt>
      <trkpt lat="46.52332" lon="5.89677">
        <ele>881</ele>
        <time>2022-06-06T18:08:58Z</time>
      </trkpt>
      <trkpt lat="46.52342" lon="5.89644">
        <ele>881</ele>
        <time>2022-06-06T18:09:02Z</time>
      </trkpt>
      <trkpt lat="46.5236" lon="5.896">
        <ele>883</ele>
        <time>2022-06-06T18:09:08Z</time>
      </trkpt>
      <trkpt lat="46.52399" lon="5.89527">
        <ele>888</ele>
        <time>2022-06-06T18:09:20Z</time>
      </trkpt>
      <trkpt lat="46.524" lon="5.89517">
        <ele>888</ele>
        <time>2022-06-06T18:09:21Z</time>
      </trkpt>
      <trkpt lat="46.52398" lon="5.89509">
        <ele>888</ele>
        <time>2022-06-06T18:09:22Z</time>
      </trkpt>
      <trkpt lat="46.52389" lon="5.89491">
        <ele>888</ele>
        <time>2022-06-06T18:09:25Z</time>
      </trkpt>
      <trkpt lat="46.52377" lon="5.89476">
        <ele>887</ele>
        <time>2022-06-06T18:09:28Z</time>
      </trkpt>
      <trkpt lat="46.52348" lon="5.8945">
        <ele>886</ele>
        <time>2022-06-06T18:09:34Z</time>
      </trkpt>
      <trkpt lat="46.52336" lon="5.89433">
        <ele>885</ele>
        <time>2022-06-06T18:09:37Z</time>
      </trkpt>
      <trkpt lat="46.52312" lon="5.8938">
        <ele>886</ele>
        <time>2022-06-06T18:09:44Z</time>
      </trkpt>
      <trkpt lat="46.52301" lon="5.89352">
        <ele>886</ele>
        <time>2022-06-06T18:09:48Z</time>
      </trkpt>
      <trkpt lat="46.52291" lon="5.89326">
        <ele>886</ele>
        <time>2022-06-06T18:09:52Z</time>
      </trkpt>
      <trkpt lat="46.52285" lon="5.89302">
        <ele>885</ele>
        <time>2022-06-06T18:09:55Z</time>
      </trkpt>
      <trkpt lat="46.52286" lon="5.89288">
        <ele>886</ele>
        <time>2022-06-06T18:09:57Z</time>
      </trkpt>
      <trkpt lat="46.52295" lon="5.89225">
        <ele>889</ele>
        <time>2022-06-06T18:10:05Z</time>
      </trkpt>
      <trkpt lat="46.52293" lon="5.89198">
        <ele>890</ele>
        <time>2022-06-06T18:10:08Z</time>
      </trkpt>
      <trkpt lat="46.52289" lon="5.89183">
        <ele>890</ele>
        <time>2022-06-06T18:10:10Z</time>
      </trkpt>
      <trkpt lat="46.52225" lon="5.89024">
        <ele>893</ele>
        <time>2022-06-06T18:10:33Z</time>
      </trkpt>
      <trkpt lat="46.5216" lon="5.88849">
        <ele>898</ele>
        <time>2022-06-06T18:10:57Z</time>
      </trkpt>
      <trkpt lat="46.52142" lon="5.88805">
        <ele>896</ele>
        <time>2022-06-06T18:11:03Z</time>
      </trkpt>
      <trkpt lat="46.5212" lon="5.88773">
        <ele>895</ele>
        <time>2022-06-06T18:11:09Z</time>
      </trkpt>
      <trkpt lat="46.5211" lon="5.88764">
        <ele>894</ele>
        <time>2022-06-06T18:11:11Z</time>
      </trkpt>
      <trkpt lat="46.52091" lon="5.88723">
        <ele>894</ele>
        <time>2022-06-06T18:11:17Z</time>
      </trkpt>
      <trkpt lat="46.52089" lon="5.88706">
        <ele>894</ele>
        <time>2022-06-06T18:11:19Z</time>
      </trkpt>
      <trkpt lat="46.52004" lon="5.88564">
        <ele>891</ele>
        <time>2022-06-06T18:11:42Z</time>
      </trkpt>
      <trkpt lat="46.51967" lon="5.88493">
        <ele>889</ele>
        <time>2022-06-06T18:11:53Z</time>
      </trkpt>
      <trkpt lat="46.51952" lon="5.88454">
        <ele>889</ele>
        <time>2022-06-06T18:11:58Z</time>
      </trkpt>
      <trkpt lat="46.51897" lon="5.88201">
        <ele>889</ele>
        <time>2022-06-06T18:12:31Z</time>
      </trkpt>
      <trkpt lat="46.51897" lon="5.88172">
        <ele>889</ele>
        <time>2022-06-06T18:12:34Z</time>
      </trkpt>
      <trkpt lat="46.519" lon="5.88146">
        <ele>889</ele>
        <time>2022-06-06T18:12:38Z</time>
      </trkpt>
      <trkpt lat="46.51909" lon="5.88111">
        <ele>888</ele>
        <time>2022-06-06T18:12:42Z</time>
      </trkpt>
      <trkpt lat="46.51911" lon="5.88073">
        <ele>887</ele>
        <time>2022-06-06T18:12:47Z</time>
      </trkpt>
      <trkpt lat="46.51907" lon="5.88045">
        <ele>885</ele>
        <time>2022-06-06T18:12:50Z</time>
      </trkpt>
      <trkpt lat="46.51899" lon="5.88024">
        <ele>883</ele>
        <time>2022-06-06T18:12:53Z</time>
      </trkpt>
      <trkpt lat="46.5189" lon="5.88008">
        <ele>882</ele>
        <time>2022-06-06T18:12:56Z</time>
      </trkpt>
      <trkpt lat="46.51881" lon="5.87997">
        <ele>882</ele>
        <time>2022-06-06T18:12:58Z</time>
      </trkpt>
      <trkpt lat="46.51871" lon="5.8799">
        <ele>881</ele>
        <time>2022-06-06T18:13:00Z</time>
      </trkpt>
      <trkpt lat="46.51813" lon="5.87971">
        <ele>878</ele>
        <time>2022-06-06T18:13:10Z</time>
      </trkpt>
      <trkpt lat="46.51783" lon="5.87954">
        <ele>875</ele>
        <time>2022-06-06T18:13:16Z</time>
      </trkpt>
      <trkpt lat="46.51764" lon="5.87941">
        <ele>874</ele>
        <time>2022-06-06T18:13:20Z</time>
      </trkpt>
      <trkpt lat="46.51751" lon="5.87928">
        <ele>874</ele>
        <time>2022-06-06T18:13:23Z</time>
      </trkpt>
      <trkpt lat="46.51721" lon="5.87889">
        <ele>875</ele>
        <time>2022-06-06T18:13:30Z</time>
      </trkpt>
      <trkpt lat="46.51659" lon="5.87788">
        <ele>879</ele>
        <time>2022-06-06T18:13:47Z</time>
      </trkpt>
      <trkpt lat="46.51602" lon="5.87653">
        <ele>876</ele>
        <time>2022-06-06T18:14:06Z</time>
      </trkpt>
      <trkpt lat="46.51561" lon="5.87566">
        <ele>876</ele>
        <time>2022-06-06T18:14:19Z</time>
      </trkpt>
      <trkpt lat="46.5155" lon="5.8755">
        <ele>875</ele>
        <time>2022-06-06T18:14:22Z</time>
      </trkpt>
      <trkpt lat="46.51531" lon="5.87525">
        <ele>874</ele>
        <time>2022-06-06T18:14:26Z</time>
      </trkpt>
      <trkpt lat="46.51452" lon="5.87453">
        <ele>872</ele>
        <time>2022-06-06T18:14:43Z</time>
      </trkpt>
      <trkpt lat="46.51403" lon="5.87404">
        <ele>870</ele>
        <time>2022-06-06T18:14:53Z</time>
      </trkpt>
      <trkpt lat="46.51392" lon="5.87386">
        <ele>870</ele>
        <time>2022-06-06T18:14:56Z</time>
      </trkpt>
      <trkpt lat="46.51369" lon="5.87357">
        <ele>870</ele>
        <time>2022-06-06T18:15:02Z</time>
      </trkpt>
      <trkpt lat="46.51378" lon="5.87344">
        <ele>871</ele>
        <time>2022-06-06T18:15:04Z</time>
      </trkpt>
      <trkpt lat="46.51392" lon="5.8732">
        <ele>871</ele>
        <time>2022-06-06T18:15:08Z</time>
      </trkpt>
      <trkpt lat="46.5143" lon="5.87283">
        <ele>869</ele>
        <time>2022-06-06T18:15:16Z</time>
      </trkpt>
      <trkpt lat="46.51454" lon="5.87258">
        <ele>868</ele>
        <time>2022-06-06T18:15:21Z</time>
      </trkpt>
      <trkpt lat="46.51471" lon="5.87234">
        <ele>867</ele>
        <time>2022-06-06T18:15:25Z</time>
      </trkpt>
      <trkpt lat="46.5152" lon="5.87153">
        <ele>868</ele>
        <time>2022-06-06T18:15:39Z</time>
      </trkpt>
      <trkpt lat="46.51577" lon="5.87065">
        <ele>867</ele>
        <time>2022-06-06T18:15:53Z</time>
      </trkpt>
      <trkpt lat="46.51599" lon="5.87042">
        <ele>867</ele>
        <time>2022-06-06T18:15:58Z</time>
      </trkpt>
      <trkpt lat="46.51608" lon="5.87036">
        <ele>868</ele>
        <time>2022-06-06T18:16:00Z</time>
      </trkpt>
      <trkpt lat="46.51623" lon="5.8703">
        <ele>869</ele>
        <time>2022-06-06T18:16:03Z</time>
      </trkpt>
      <trkpt lat="46.51672" lon="5.87025">
        <ele>871</ele>
        <time>2022-06-06T18:16:11Z</time>
      </trkpt>
      <trkpt lat="46.51763" lon="5.8701">
        <ele>880</ele>
        <time>2022-06-06T18:16:28Z</time>
      </trkpt>
      <trkpt lat="46.51787" lon="5.8701">
        <ele>881</ele>
        <time>2022-06-06T18:16:32Z</time>
      </trkpt>
      <trkpt lat="46.51861" lon="5.87014">
        <ele>883</ele>
        <time>2022-06-06T18:16:45Z</time>
      </trkpt>
      <trkpt lat="46.51881" lon="5.87013">
        <ele>884</ele>
        <time>2022-06-06T18:16:49Z</time>
      </trkpt>
      <trkpt lat="46.51895" lon="5.87008">
        <ele>884</ele>
        <time>2022-06-06T18:16:51Z</time>
      </trkpt>
      <trkpt lat="46.5195" lon="5.8697">
        <ele>888</ele>
        <time>2022-06-06T18:17:02Z</time>
      </trkpt>
      <trkpt lat="46.51966" lon="5.86955">
        <ele>889</ele>
        <time>2022-06-06T18:17:06Z</time>
      </trkpt>
      <trkpt lat="46.51977" lon="5.8694">
        <ele>890</ele>
        <time>2022-06-06T18:17:08Z</time>
      </trkpt>
      <trkpt lat="46.51986" lon="5.86923">
        <ele>891</ele>
        <time>2022-06-06T18:17:11Z</time>
      </trkpt>
      <trkpt lat="46.5201" lon="5.86857">
        <ele>894</ele>
        <time>2022-06-06T18:17:20Z</time>
      </trkpt>
      <trkpt lat="46.52039" lon="5.86792">
        <ele>898</ele>
        <time>2022-06-06T18:17:30Z</time>
      </trkpt>
      <trkpt lat="46.52046" lon="5.8677">
        <ele>899</ele>
        <time>2022-06-06T18:17:32Z</time>
      </trkpt>
      <trkpt lat="46.52049" lon="5.86752">
        <ele>900</ele>
        <time>2022-06-06T18:17:35Z</time>
      </trkpt>
      <trkpt lat="46.5205" lon="5.86728">
        <ele>901</ele>
        <time>2022-06-06T18:17:38Z</time>
      </trkpt>
      <trkpt lat="46.52047" lon="5.86705">
        <ele>902</ele>
        <time>2022-06-06T18:17:41Z</time>
      </trkpt>
      <trkpt lat="46.52033" lon="5.86654">
        <ele>902</ele>
        <time>2022-06-06T18:17:47Z</time>
      </trkpt>
      <trkpt lat="46.52028" lon="5.86626">
        <ele>900</ele>
        <time>2022-06-06T18:17:51Z</time>
      </trkpt>
      <trkpt lat="46.52027" lon="5.86592">
        <ele>899</ele>
        <time>2022-06-06T18:17:55Z</time>
      </trkpt>
      <trkpt lat="46.5203" lon="5.86575">
        <ele>899</ele>
        <time>2022-06-06T18:17:57Z</time>
      </trkpt>
      <trkpt lat="46.5204" lon="5.86538">
        <ele>899</ele>
        <time>2022-06-06T18:18:02Z</time>
      </trkpt>
      <trkpt lat="46.52044" lon="5.86519">
        <ele>899</ele>
        <time>2022-06-06T18:18:04Z</time>
      </trkpt>
      <trkpt lat="46.52045" lon="5.86497">
        <ele>898</ele>
        <time>2022-06-06T18:18:07Z</time>
      </trkpt>
      <trkpt lat="46.52044" lon="5.86467">
        <ele>898</ele>
        <time>2022-06-06T18:18:11Z</time>
      </trkpt>
      <trkpt lat="46.52037" lon="5.86419">
        <ele>897</ele>
        <time>2022-06-06T18:18:17Z</time>
      </trkpt>
      <trkpt lat="46.52037" lon="5.86411">
        <ele>897</ele>
        <time>2022-06-06T18:18:18Z</time>
      </trkpt>
      <trkpt lat="46.5204" lon="5.86391">
        <ele>896</ele>
        <time>2022-06-06T18:18:20Z</time>
      </trkpt>
      <trkpt lat="46.52049" lon="5.8635">
        <ele>895</ele>
        <time>2022-06-06T18:18:26Z</time>
      </trkpt>
      <trkpt lat="46.52055" lon="5.86247">
        <ele>895</ele>
        <time>2022-06-06T18:18:38Z</time>
      </trkpt>
      <trkpt lat="46.5206" lon="5.86203">
        <ele>896</ele>
        <time>2022-06-06T18:18:44Z</time>
      </trkpt>
      <trkpt lat="46.52066" lon="5.86179">
        <ele>897</ele>
        <time>2022-06-06T18:18:47Z</time>
      </trkpt>
      <trkpt lat="46.52073" lon="5.86159">
        <ele>895</ele>
        <time>2022-06-06T18:18:50Z</time>
      </trkpt>
      <trkpt lat="46.52087" lon="5.86135">
        <ele>892</ele>
        <time>2022-06-06T18:18:53Z</time>
      </trkpt>
      <trkpt lat="46.52109" lon="5.86114">
        <ele>892</ele>
        <time>2022-06-06T18:18:58Z</time>
      </trkpt>
      <trkpt lat="46.52129" lon="5.86101">
        <ele>891</ele>
        <time>2022-06-06T18:19:02Z</time>
      </trkpt>
      <trkpt lat="46.52143" lon="5.86095">
        <ele>891</ele>
        <time>2022-06-06T18:19:05Z</time>
      </trkpt>
      <trkpt lat="46.52211" lon="5.86088">
        <ele>895</ele>
        <time>2022-06-06T18:19:17Z</time>
      </trkpt>
      <trkpt lat="46.52278" lon="5.86068">
        <ele>894</ele>
        <time>2022-06-06T18:19:29Z</time>
      </trkpt>
      <trkpt lat="46.52299" lon="5.86059">
        <ele>893</ele>
        <time>2022-06-06T18:19:33Z</time>
      </trkpt>
      <trkpt lat="46.5232" lon="5.86041">
        <ele>891</ele>
        <time>2022-06-06T18:19:37Z</time>
      </trkpt>
      <trkpt lat="46.52332" lon="5.86029">
        <ele>890</ele>
        <time>2022-06-06T18:19:40Z</time>
      </trkpt>
      <trkpt lat="46.52374" lon="5.85974">
        <ele>886</ele>
        <time>2022-06-06T18:19:50Z</time>
      </trkpt>
      <trkpt lat="46.5239" lon="5.85959">
        <ele>885</ele>
        <time>2022-06-06T18:19:53Z</time>
      </trkpt>
      <trkpt lat="46.52409" lon="5.85947">
        <ele>886</ele>
        <time>2022-06-06T18:19:57Z</time>
      </trkpt>
      <trkpt lat="46.52423" lon="5.85941">
        <ele>886</ele>
        <time>2022-06-06T18:19:59Z</time>
      </trkpt>
      <trkpt lat="46.52439" lon="5.85938">
        <ele>886</ele>
        <time>2022-06-06T18:20:02Z</time>
      </trkpt>
      <trkpt lat="46.52455" lon="5.85939">
        <ele>886</ele>
        <time>2022-06-06T18:20:05Z</time>
      </trkpt>
      <trkpt lat="46.52503" lon="5.85947">
        <ele>887</ele>
        <time>2022-06-06T18:20:14Z</time>
      </trkpt>
      <trkpt lat="46.52516" lon="5.85947">
        <ele>886</ele>
        <time>2022-06-06T18:20:16Z</time>
      </trkpt>
      <trkpt lat="46.52534" lon="5.85939">
        <ele>886</ele>
        <time>2022-06-06T18:20:19Z</time>
      </trkpt>
      <trkpt lat="46.5255" lon="5.85923">
        <ele>884</ele>
        <time>2022-06-06T18:20:23Z</time>
      </trkpt>
      <trkpt lat="46.52559" lon="5.85901">
        <ele>884</ele>
        <time>2022-06-06T18:20:26Z</time>
      </trkpt>
      <trkpt lat="46.52595" lon="5.85786">
        <ele>884</ele>
        <time>2022-06-06T18:20:41Z</time>
      </trkpt>
      <trkpt lat="46.526" lon="5.85756">
        <ele>884</ele>
        <time>2022-06-06T18:20:45Z</time>
      </trkpt>
      <trkpt lat="46.52599" lon="5.85715">
        <ele>885</ele>
        <time>2022-06-06T18:20:50Z</time>
      </trkpt>
      <trkpt lat="46.52594" lon="5.85673">
        <ele>886</ele>
        <time>2022-06-06T18:20:56Z</time>
      </trkpt>
      <trkpt lat="46.52572" lon="5.85571">
        <ele>894</ele>
        <time>2022-06-06T18:21:09Z</time>
      </trkpt>
      <trkpt lat="46.52545" lon="5.85473">
        <ele>900</ele>
        <time>2022-06-06T18:21:22Z</time>
      </trkpt>
      <trkpt lat="46.52536" lon="5.85425">
        <ele>903</ele>
        <time>2022-06-06T18:21:28Z</time>
      </trkpt>
      <trkpt lat="46.52526" lon="5.8539">
        <ele>904</ele>
        <time>2022-06-06T18:21:32Z</time>
      </trkpt>
      <trkpt lat="46.52493" lon="5.85311">
        <ele>903</ele>
        <time>2022-06-06T18:21:44Z</time>
      </trkpt>
      <trkpt lat="46.52486" lon="5.85292">
        <ele>902</ele>
        <time>2022-06-06T18:21:46Z</time>
      </trkpt>
      <trkpt lat="46.52468" lon="5.85223">
        <ele>901</ele>
        <time>2022-06-06T18:21:55Z</time>
      </trkpt>
      <trkpt lat="46.5246" lon="5.85187">
        <ele>901</ele>
        <time>2022-06-06T18:22:00Z</time>
      </trkpt>
      <trkpt lat="46.52452" lon="5.85121">
        <ele>903</ele>
        <time>2022-06-06T18:22:08Z</time>
      </trkpt>
      <trkpt lat="46.52445" lon="5.85085">
        <ele>904</ele>
        <time>2022-06-06T18:22:13Z</time>
      </trkpt>
      <trkpt lat="46.52436" lon="5.8506">
        <ele>906</ele>
        <time>2022-06-06T18:22:16Z</time>
      </trkpt>
      <trkpt lat="46.52424" lon="5.85038">
        <ele>907</ele>
        <time>2022-06-06T18:22:20Z</time>
      </trkpt>
      <trkpt lat="46.52406" lon="5.85016">
        <ele>908</ele>
        <time>2022-06-06T18:22:24Z</time>
      </trkpt>
      <trkpt lat="46.5237" lon="5.84983">
        <ele>908</ele>
        <time>2022-06-06T18:22:31Z</time>
      </trkpt>
      <trkpt lat="46.52357" lon="5.84969">
        <ele>909</ele>
        <time>2022-06-06T18:22:34Z</time>
      </trkpt>
      <trkpt lat="46.52336" lon="5.8494">
        <ele>910</ele>
        <time>2022-06-06T18:22:39Z</time>
      </trkpt>
      <trkpt lat="46.52314" lon="5.84907">
        <ele>913</ele>
        <time>2022-06-06T18:22:45Z</time>
      </trkpt>
      <trkpt lat="46.523" lon="5.84883">
        <ele>915</ele>
        <time>2022-06-06T18:22:49Z</time>
      </trkpt>
      <trkpt lat="46.52294" lon="5.84868">
        <ele>916</ele>
        <time>2022-06-06T18:22:51Z</time>
      </trkpt>
      <trkpt lat="46.52283" lon="5.84832">
        <ele>919</ele>
        <time>2022-06-06T18:22:56Z</time>
      </trkpt>
      <trkpt lat="46.52272" lon="5.84813">
        <ele>920</ele>
        <time>2022-06-06T18:22:59Z</time>
      </trkpt>
      <trkpt lat="46.52261" lon="5.84804">
        <ele>920</ele>
        <time>2022-06-06T18:23:01Z</time>
      </trkpt>
      <trkpt lat="46.52145" lon="5.84743">
        <ele>919</ele>
        <time>2022-06-06T18:23:23Z</time>
      </trkpt>
      <trkpt lat="46.52128" lon="5.84736">
        <ele>919</ele>
        <time>2022-06-06T18:23:26Z</time>
      </trkpt>
      <trkpt lat="46.52113" lon="5.84736">
        <ele>918</ele>
        <time>2022-06-06T18:23:29Z</time>
      </trkpt>
      <trkpt lat="46.52093" lon="5.84741">
        <ele>917</ele>
        <time>2022-06-06T18:23:32Z</time>
      </trkpt>
      <trkpt lat="46.52074" lon="5.84754">
        <ele>916</ele>
        <time>2022-06-06T18:23:36Z</time>
      </trkpt>
      <trkpt lat="46.52058" lon="5.84771">
        <ele>916</ele>
        <time>2022-06-06T18:23:40Z</time>
      </trkpt>
      <trkpt lat="46.52006" lon="5.84858">
        <ele>914</ele>
        <time>2022-06-06T18:23:54Z</time>
      </trkpt>
      <trkpt lat="46.51988" lon="5.84879">
        <ele>912</ele>
        <time>2022-06-06T18:23:58Z</time>
      </trkpt>
      <trkpt lat="46.51969" lon="5.84894">
        <ele>909</ele>
        <time>2022-06-06T18:24:02Z</time>
      </trkpt>
      <trkpt lat="46.51954" lon="5.84901">
        <ele>908</ele>
        <time>2022-06-06T18:24:05Z</time>
      </trkpt>
      <trkpt lat="46.51938" lon="5.84904">
        <ele>907</ele>
        <time>2022-06-06T18:24:07Z</time>
      </trkpt>
      <trkpt lat="46.51915" lon="5.84899">
        <ele>906</ele>
        <time>2022-06-06T18:24:12Z</time>
      </trkpt>
      <trkpt lat="46.51892" lon="5.84886">
        <ele>907</ele>
        <time>2022-06-06T18:24:16Z</time>
      </trkpt>
      <trkpt lat="46.51869" lon="5.84869">
        <ele>908</ele>
        <time>2022-06-06T18:24:21Z</time>
      </trkpt>
      <trkpt lat="46.51767" lon="5.84775">
        <ele>908</ele>
        <time>2022-06-06T18:24:42Z</time>
      </trkpt>
      <trkpt lat="46.51742" lon="5.84738">
        <ele>908</ele>
        <time>2022-06-06T18:24:48Z</time>
      </trkpt>
      <trkpt lat="46.51727" lon="5.84671">
        <ele>909</ele>
        <time>2022-06-06T18:24:57Z</time>
      </trkpt>
      <trkpt lat="46.51725" lon="5.84622">
        <ele>909</ele>
        <time>2022-06-06T18:25:03Z</time>
      </trkpt>
      <trkpt lat="46.51736" lon="5.84544">
        <ele>911</ele>
        <time>2022-06-06T18:25:13Z</time>
      </trkpt>
      <trkpt lat="46.51738" lon="5.84447">
        <ele>912</ele>
        <time>2022-06-06T18:25:25Z</time>
      </trkpt>
      <trkpt lat="46.51725" lon="5.84405">
        <ele>912</ele>
        <time>2022-06-06T18:25:30Z</time>
      </trkpt>
      <trkpt lat="46.51699" lon="5.84376">
        <ele>912</ele>
        <time>2022-06-06T18:25:36Z</time>
      </trkpt>
      <trkpt lat="46.5167" lon="5.84354">
        <ele>911</ele>
        <time>2022-06-06T18:25:42Z</time>
      </trkpt>
      <trkpt lat="46.51596" lon="5.84282">
        <ele>914</ele>
        <time>2022-06-06T18:25:58Z</time>
      </trkpt>
      <trkpt lat="46.51545" lon="5.84241">
        <ele>914</ele>
        <time>2022-06-06T18:26:08Z</time>
      </trkpt>
      <trkpt lat="46.51518" lon="5.84202">
        <ele>917</ele>
        <time>2022-06-06T18:26:15Z</time>
      </trkpt>
      <trkpt lat="46.51498" lon="5.84184">
        <ele>919</ele>
        <time>2022-06-06T18:26:19Z</time>
      </trkpt>
      <trkpt lat="46.51454" lon="5.84177">
        <ele>916</ele>
        <time>2022-06-06T18:26:27Z</time>
      </trkpt>
      <trkpt lat="46.51428" lon="5.84165">
        <ele>915</ele>
        <time>2022-06-06T18:26:32Z</time>
      </trkpt>
      <trkpt lat="46.51389" lon="5.84132">
        <ele>913</ele>
        <time>2022-06-06T18:26:40Z</time>
      </trkpt>
      <trkpt lat="46.51334" lon="5.84098">
        <ele>906</ele>
        <time>2022-06-06T18:26:51Z</time>
      </trkpt>
      <trkpt lat="46.51325" lon="5.84086">
        <ele>906</ele>
        <time>2022-06-06T18:26:53Z</time>
      </trkpt>
      <trkpt lat="46.51319" lon="5.84073">
        <ele>907</ele>
        <time>2022-06-06T18:26:55Z</time>
      </trkpt>
      <trkpt lat="46.51318" lon="5.84065">
        <ele>907</ele>
        <time>2022-06-06T18:26:56Z</time>
      </trkpt>
      <trkpt lat="46.5132" lon="5.84019">
        <ele>913</ele>
        <time>2022-06-06T18:27:01Z</time>
      </trkpt>
      <trkpt lat="46.51315" lon="5.83994">
        <ele>915</ele>
        <time>2022-06-06T18:27:04Z</time>
      </trkpt>
      <trkpt lat="46.51302" lon="5.83973">
        <ele>917</ele>
        <time>2022-06-06T18:27:08Z</time>
      </trkpt>
      <trkpt lat="46.5129" lon="5.83962">
        <ele>917</ele>
        <time>2022-06-06T18:27:10Z</time>
      </trkpt>
      <trkpt lat="46.51258" lon="5.83947">
        <ele>915</ele>
        <time>2022-06-06T18:27:16Z</time>
      </trkpt>
      <trkpt lat="46.51235" lon="5.83939">
        <ele>915</ele>
        <time>2022-06-06T18:27:21Z</time>
      </trkpt>
      <trkpt lat="46.51222" lon="5.83942">
        <ele>914</ele>
        <time>2022-06-06T18:27:23Z</time>
      </trkpt>
      <trkpt lat="46.51183" lon="5.83969">
        <ele>911</ele>
        <time>2022-06-06T18:27:31Z</time>
      </trkpt>
      <trkpt lat="46.51166" lon="5.83974">
        <ele>910</ele>
        <time>2022-06-06T18:27:34Z</time>
      </trkpt>
      <trkpt lat="46.51164" lon="5.83968">
        <ele>911</ele>
        <time>2022-06-06T18:27:35Z</time>
      </trkpt>
      <trkpt lat="46.51161" lon="5.83965">
        <ele>911</ele>
        <time>2022-06-06T18:27:35Z</time>
      </trkpt>
      <trkpt lat="46.51155" lon="5.83968">
        <ele>910</ele>
        <time>2022-06-06T18:27:36Z</time>
      </trkpt>
      <trkpt lat="46.51154" lon="5.83977">
        <ele>910</ele>
        <time>2022-06-06T18:27:37Z</time>
      </trkpt>
      <trkpt lat="46.51135" lon="5.8398">
        <ele>910</ele>
        <time>2022-06-06T18:27:41Z</time>
      </trkpt>
      <trkpt lat="46.51131" lon="5.83979">
        <ele>910</ele>
        <time>2022-06-06T18:27:42Z</time>
      </trkpt>
    </trkseg>
  </trk>
</gpx>